<?xml version="1.0" encoding="UTF-8" standalone="no" ?>
<gpx xmlns="http://www.topografix.com/GPX/1/1" xmlns:xsi="http://www.w3.org/2001/XMLSchema-instance" xsi:schemaLocation="http://www.topografix.com/GPX/1/1 http://www.topografix.com/GPX/1/1/gpx.xsd" version="1.1" creator="VisuGPX - https://www.visugpx.com">
  <metadata>
    <name>Barassé</name>
  </metadata>
  <trk>
    <name><![CDATA[Barassé]]></name>
    <trkseg>
      <trkpt lat="42.91827" lon="0.19091">
        <ele>1501</ele>
        <time>2019-03-24T06:59:59Z</time>
      </trkpt>
      <trkpt lat="42.9183" lon="0.19087">
        <ele>1502</ele>
        <time>2019-03-24T07:00:21Z</time>
      </trkpt>
      <trkpt lat="42.9184" lon="0.19084">
        <ele>1502</ele>
        <time>2019-03-24T07:00:49Z</time>
      </trkpt>
      <trkpt lat="42.91856" lon="0.19076">
        <ele>1498</ele>
        <time>2019-03-24T07:01:04Z</time>
      </trkpt>
      <trkpt lat="42.91856" lon="0.19075">
        <ele>1501</ele>
        <time>2019-03-24T07:01:05Z</time>
      </trkpt>
      <trkpt lat="42.91856" lon="0.19075">
        <ele>1505</ele>
        <time>2019-03-24T07:01:07Z</time>
      </trkpt>
      <trkpt lat="42.91856" lon="0.19076">
        <ele>1503</ele>
        <time>2019-03-24T07:01:08Z</time>
      </trkpt>
      <trkpt lat="42.91857" lon="0.19076">
        <ele>1501</ele>
        <time>2019-03-24T07:01:10Z</time>
      </trkpt>
      <trkpt lat="42.91859" lon="0.19073">
        <ele>1505</ele>
        <time>2019-03-24T07:01:16Z</time>
      </trkpt>
      <trkpt lat="42.91859" lon="0.19072">
        <ele>1507</ele>
        <time>2019-03-24T07:01:17Z</time>
      </trkpt>
      <trkpt lat="42.91859" lon="0.19071">
        <ele>1511</ele>
        <time>2019-03-24T07:01:18Z</time>
      </trkpt>
      <trkpt lat="42.91862" lon="0.19067">
        <ele>1514</ele>
        <time>2019-03-24T07:01:19Z</time>
      </trkpt>
      <trkpt lat="42.91875" lon="0.19053">
        <ele>1520</ele>
        <time>2019-03-24T07:01:21Z</time>
      </trkpt>
      <trkpt lat="42.91874" lon="0.19054">
        <ele>1524</ele>
        <time>2019-03-24T07:01:23Z</time>
      </trkpt>
      <trkpt lat="42.91871" lon="0.19057">
        <ele>1530</ele>
        <time>2019-03-24T07:01:25Z</time>
      </trkpt>
      <trkpt lat="42.91871" lon="0.19057">
        <ele>1534</ele>
        <time>2019-03-24T07:01:27Z</time>
      </trkpt>
      <trkpt lat="42.91872" lon="0.19056">
        <ele>1538</ele>
        <time>2019-03-24T07:01:29Z</time>
      </trkpt>
      <trkpt lat="42.91872" lon="0.19058">
        <ele>1542</ele>
        <time>2019-03-24T07:01:34Z</time>
      </trkpt>
      <trkpt lat="42.91872" lon="0.19058">
        <ele>1544</ele>
        <time>2019-03-24T07:01:35Z</time>
      </trkpt>
      <trkpt lat="42.91872" lon="0.19056">
        <ele>1547</ele>
        <time>2019-03-24T07:01:41Z</time>
      </trkpt>
      <trkpt lat="42.91872" lon="0.19056">
        <ele>1547</ele>
        <time>2019-03-24T07:01:42Z</time>
      </trkpt>
      <trkpt lat="42.91872" lon="0.19056">
        <ele>1551</ele>
        <time>2019-03-24T07:01:44Z</time>
      </trkpt>
      <trkpt lat="42.91873" lon="0.19056">
        <ele>1554</ele>
        <time>2019-03-24T07:01:46Z</time>
      </trkpt>
      <trkpt lat="42.91872" lon="0.19056">
        <ele>1557</ele>
        <time>2019-03-24T07:01:48Z</time>
      </trkpt>
      <trkpt lat="42.91872" lon="0.19056">
        <ele>1558</ele>
        <time>2019-03-24T07:01:49Z</time>
      </trkpt>
      <trkpt lat="42.91872" lon="0.19056">
        <ele>1560</ele>
        <time>2019-03-24T07:01:50Z</time>
      </trkpt>
      <trkpt lat="42.91872" lon="0.19056">
        <ele>1563</ele>
        <time>2019-03-24T07:01:52Z</time>
      </trkpt>
      <trkpt lat="42.91871" lon="0.19057">
        <ele>1565</ele>
        <time>2019-03-24T07:01:54Z</time>
      </trkpt>
      <trkpt lat="42.9187" lon="0.19059">
        <ele>1568</ele>
        <time>2019-03-24T07:01:56Z</time>
      </trkpt>
      <trkpt lat="42.9187" lon="0.19059">
        <ele>1572</ele>
        <time>2019-03-24T07:01:59Z</time>
      </trkpt>
      <trkpt lat="42.91871" lon="0.19058">
        <ele>1572</ele>
        <time>2019-03-24T07:02:00Z</time>
      </trkpt>
      <trkpt lat="42.91871" lon="0.19056">
        <ele>1576</ele>
        <time>2019-03-24T07:02:03Z</time>
      </trkpt>
      <trkpt lat="42.91871" lon="0.19056">
        <ele>1576</ele>
        <time>2019-03-24T07:02:04Z</time>
      </trkpt>
      <trkpt lat="42.91871" lon="0.19057">
        <ele>1578</ele>
        <time>2019-03-24T07:02:07Z</time>
      </trkpt>
      <trkpt lat="42.91871" lon="0.19056">
        <ele>1580</ele>
        <time>2019-03-24T07:02:09Z</time>
      </trkpt>
      <trkpt lat="42.91871" lon="0.19056">
        <ele>1581</ele>
        <time>2019-03-24T07:02:11Z</time>
      </trkpt>
      <trkpt lat="42.9187" lon="0.19055">
        <ele>1584</ele>
        <time>2019-03-24T07:02:16Z</time>
      </trkpt>
      <trkpt lat="42.91871" lon="0.19055">
        <ele>1588</ele>
        <time>2019-03-24T07:02:22Z</time>
      </trkpt>
      <trkpt lat="42.91871" lon="0.19054">
        <ele>1588</ele>
        <time>2019-03-24T07:02:23Z</time>
      </trkpt>
      <trkpt lat="42.91871" lon="0.19055">
        <ele>1591</ele>
        <time>2019-03-24T07:02:29Z</time>
      </trkpt>
      <trkpt lat="42.91871" lon="0.19053">
        <ele>1594</ele>
        <time>2019-03-24T07:02:38Z</time>
      </trkpt>
      <trkpt lat="42.9187" lon="0.19053">
        <ele>1595</ele>
        <time>2019-03-24T07:02:40Z</time>
      </trkpt>
      <trkpt lat="42.9187" lon="0.19056">
        <ele>1598</ele>
        <time>2019-03-24T07:02:52Z</time>
      </trkpt>
      <trkpt lat="42.91869" lon="0.19056">
        <ele>1602</ele>
        <time>2019-03-24T07:03:20Z</time>
      </trkpt>
      <trkpt lat="42.91868" lon="0.19055">
        <ele>1601</ele>
        <time>2019-03-24T07:03:57Z</time>
      </trkpt>
      <trkpt lat="42.91869" lon="0.19054">
        <ele>1602</ele>
        <time>2019-03-24T07:04:35Z</time>
      </trkpt>
      <trkpt lat="42.91867" lon="0.19051">
        <ele>1602</ele>
        <time>2019-03-24T07:05:09Z</time>
      </trkpt>
      <trkpt lat="42.9187" lon="0.19053">
        <ele>1601</ele>
        <time>2019-03-24T07:05:39Z</time>
      </trkpt>
      <trkpt lat="42.9187" lon="0.19051">
        <ele>1602</ele>
        <time>2019-03-24T07:06:14Z</time>
      </trkpt>
      <trkpt lat="42.91868" lon="0.19054">
        <ele>1602</ele>
        <time>2019-03-24T07:06:44Z</time>
      </trkpt>
      <trkpt lat="42.91871" lon="0.19054">
        <ele>1601</ele>
        <time>2019-03-24T07:07:04Z</time>
      </trkpt>
      <trkpt lat="42.91872" lon="0.19056">
        <ele>1602</ele>
        <time>2019-03-24T07:07:33Z</time>
      </trkpt>
      <trkpt lat="42.91876" lon="0.19056">
        <ele>1602</ele>
        <time>2019-03-24T07:07:51Z</time>
      </trkpt>
      <trkpt lat="42.91873" lon="0.19056">
        <ele>1603</ele>
        <time>2019-03-24T07:08:16Z</time>
      </trkpt>
      <trkpt lat="42.91873" lon="0.19053">
        <ele>1602</ele>
        <time>2019-03-24T07:08:42Z</time>
      </trkpt>
      <trkpt lat="42.91872" lon="0.19052">
        <ele>1603</ele>
        <time>2019-03-24T07:09:03Z</time>
      </trkpt>
      <trkpt lat="42.91869" lon="0.19053">
        <ele>1603</ele>
        <time>2019-03-24T07:09:25Z</time>
      </trkpt>
      <trkpt lat="42.91867" lon="0.19052">
        <ele>1603</ele>
        <time>2019-03-24T07:09:36Z</time>
      </trkpt>
      <trkpt lat="42.91866" lon="0.1906">
        <ele>1604</ele>
        <time>2019-03-24T07:09:44Z</time>
      </trkpt>
      <trkpt lat="42.91866" lon="0.19062">
        <ele>1604</ele>
        <time>2019-03-24T07:09:59Z</time>
      </trkpt>
      <trkpt lat="42.91862" lon="0.19063">
        <ele>1606</ele>
        <time>2019-03-24T07:10:15Z</time>
      </trkpt>
      <trkpt lat="42.91857" lon="0.19071">
        <ele>1609</ele>
        <time>2019-03-24T07:10:26Z</time>
      </trkpt>
      <trkpt lat="42.91865" lon="0.19091">
        <ele>1610</ele>
        <time>2019-03-24T07:10:39Z</time>
      </trkpt>
      <trkpt lat="42.91865" lon="0.19092">
        <ele>1611</ele>
        <time>2019-03-24T07:10:52Z</time>
      </trkpt>
      <trkpt lat="42.91876" lon="0.19086">
        <ele>1610</ele>
        <time>2019-03-24T07:11:15Z</time>
      </trkpt>
      <trkpt lat="42.91869" lon="0.19092">
        <ele>1611</ele>
        <time>2019-03-24T07:11:38Z</time>
      </trkpt>
      <trkpt lat="42.91866" lon="0.19091">
        <ele>1610</ele>
        <time>2019-03-24T07:11:50Z</time>
      </trkpt>
      <trkpt lat="42.91866" lon="0.19092">
        <ele>1610</ele>
        <time>2019-03-24T07:12:04Z</time>
      </trkpt>
      <trkpt lat="42.91869" lon="0.19088">
        <ele>1609</ele>
        <time>2019-03-24T07:12:21Z</time>
      </trkpt>
      <trkpt lat="42.91867" lon="0.19095">
        <ele>1610</ele>
        <time>2019-03-24T07:12:36Z</time>
      </trkpt>
      <trkpt lat="42.91862" lon="0.19101">
        <ele>1610</ele>
        <time>2019-03-24T07:12:59Z</time>
      </trkpt>
      <trkpt lat="42.91867" lon="0.19098">
        <ele>1611</ele>
        <time>2019-03-24T07:13:14Z</time>
      </trkpt>
      <trkpt lat="42.91876" lon="0.19107">
        <ele>1612</ele>
        <time>2019-03-24T07:13:24Z</time>
      </trkpt>
      <trkpt lat="42.91881" lon="0.19123">
        <ele>1614</ele>
        <time>2019-03-24T07:13:37Z</time>
      </trkpt>
      <trkpt lat="42.91885" lon="0.19129">
        <ele>1614</ele>
        <time>2019-03-24T07:13:42Z</time>
      </trkpt>
      <trkpt lat="42.91887" lon="0.19142">
        <ele>1615</ele>
        <time>2019-03-24T07:13:52Z</time>
      </trkpt>
      <trkpt lat="42.91886" lon="0.19156">
        <ele>1616</ele>
        <time>2019-03-24T07:14:03Z</time>
      </trkpt>
      <trkpt lat="42.91889" lon="0.1917">
        <ele>1619</ele>
        <time>2019-03-24T07:14:17Z</time>
      </trkpt>
      <trkpt lat="42.91888" lon="0.19188">
        <ele>1619</ele>
        <time>2019-03-24T07:14:31Z</time>
      </trkpt>
      <trkpt lat="42.91887" lon="0.19201">
        <ele>1619</ele>
        <time>2019-03-24T07:14:44Z</time>
      </trkpt>
      <trkpt lat="42.91885" lon="0.19218">
        <ele>1622</ele>
        <time>2019-03-24T07:14:59Z</time>
      </trkpt>
      <trkpt lat="42.91885" lon="0.19229">
        <ele>1623</ele>
        <time>2019-03-24T07:15:13Z</time>
      </trkpt>
      <trkpt lat="42.91886" lon="0.19233">
        <ele>1623</ele>
        <time>2019-03-24T07:15:16Z</time>
      </trkpt>
      <trkpt lat="42.91885" lon="0.19235">
        <ele>1624</ele>
        <time>2019-03-24T07:15:18Z</time>
      </trkpt>
      <trkpt lat="42.91884" lon="0.19252">
        <ele>1624</ele>
        <time>2019-03-24T07:15:30Z</time>
      </trkpt>
      <trkpt lat="42.91883" lon="0.19263">
        <ele>1626</ele>
        <time>2019-03-24T07:15:40Z</time>
      </trkpt>
      <trkpt lat="42.91884" lon="0.19278">
        <ele>1627</ele>
        <time>2019-03-24T07:15:54Z</time>
      </trkpt>
      <trkpt lat="42.91886" lon="0.19293">
        <ele>1629</ele>
        <time>2019-03-24T07:16:08Z</time>
      </trkpt>
      <trkpt lat="42.91886" lon="0.19301">
        <ele>1629</ele>
        <time>2019-03-24T07:16:22Z</time>
      </trkpt>
      <trkpt lat="42.91886" lon="0.19302">
        <ele>1630</ele>
        <time>2019-03-24T07:16:23Z</time>
      </trkpt>
      <trkpt lat="42.91887" lon="0.19315">
        <ele>1631</ele>
        <time>2019-03-24T07:16:35Z</time>
      </trkpt>
      <trkpt lat="42.91887" lon="0.1933">
        <ele>1632</ele>
        <time>2019-03-24T07:16:48Z</time>
      </trkpt>
      <trkpt lat="42.91886" lon="0.19344">
        <ele>1633</ele>
        <time>2019-03-24T07:17:00Z</time>
      </trkpt>
      <trkpt lat="42.91884" lon="0.19361">
        <ele>1634</ele>
        <time>2019-03-24T07:17:13Z</time>
      </trkpt>
      <trkpt lat="42.91881" lon="0.19378">
        <ele>1636</ele>
        <time>2019-03-24T07:17:27Z</time>
      </trkpt>
      <trkpt lat="42.91882" lon="0.19381">
        <ele>1637</ele>
        <time>2019-03-24T07:17:42Z</time>
      </trkpt>
      <trkpt lat="42.91884" lon="0.19393">
        <ele>1637</ele>
        <time>2019-03-24T07:17:53Z</time>
      </trkpt>
      <trkpt lat="42.91884" lon="0.19407">
        <ele>1639</ele>
        <time>2019-03-24T07:18:05Z</time>
      </trkpt>
      <trkpt lat="42.91882" lon="0.1942">
        <ele>1641</ele>
        <time>2019-03-24T07:18:19Z</time>
      </trkpt>
      <trkpt lat="42.91881" lon="0.19432">
        <ele>1642</ele>
        <time>2019-03-24T07:18:32Z</time>
      </trkpt>
      <trkpt lat="42.91883" lon="0.19437">
        <ele>1643</ele>
        <time>2019-03-24T07:18:38Z</time>
      </trkpt>
      <trkpt lat="42.91881" lon="0.19454">
        <ele>1644</ele>
        <time>2019-03-24T07:18:52Z</time>
      </trkpt>
      <trkpt lat="42.91881" lon="0.19455">
        <ele>1644</ele>
        <time>2019-03-24T07:18:53Z</time>
      </trkpt>
      <trkpt lat="42.91881" lon="0.19468">
        <ele>1646</ele>
        <time>2019-03-24T07:19:07Z</time>
      </trkpt>
      <trkpt lat="42.91879" lon="0.19475">
        <ele>1647</ele>
        <time>2019-03-24T07:19:23Z</time>
      </trkpt>
      <trkpt lat="42.91881" lon="0.19485">
        <ele>1647</ele>
        <time>2019-03-24T07:19:34Z</time>
      </trkpt>
      <trkpt lat="42.91882" lon="0.19499">
        <ele>1648</ele>
        <time>2019-03-24T07:19:46Z</time>
      </trkpt>
      <trkpt lat="42.91885" lon="0.19509">
        <ele>1650</ele>
        <time>2019-03-24T07:19:57Z</time>
      </trkpt>
      <trkpt lat="42.91885" lon="0.19515">
        <ele>1649</ele>
        <time>2019-03-24T07:20:03Z</time>
      </trkpt>
      <trkpt lat="42.91886" lon="0.19525">
        <ele>1651</ele>
        <time>2019-03-24T07:20:14Z</time>
      </trkpt>
      <trkpt lat="42.91887" lon="0.19536">
        <ele>1652</ele>
        <time>2019-03-24T07:20:27Z</time>
      </trkpt>
      <trkpt lat="42.91885" lon="0.19549">
        <ele>1653</ele>
        <time>2019-03-24T07:20:37Z</time>
      </trkpt>
      <trkpt lat="42.91885" lon="0.19549">
        <ele>1653</ele>
        <time>2019-03-24T07:20:38Z</time>
      </trkpt>
      <trkpt lat="42.91884" lon="0.19556">
        <ele>1654</ele>
        <time>2019-03-24T07:20:55Z</time>
      </trkpt>
      <trkpt lat="42.91885" lon="0.19569">
        <ele>1655</ele>
        <time>2019-03-24T07:21:08Z</time>
      </trkpt>
      <trkpt lat="42.91883" lon="0.19581">
        <ele>1656</ele>
        <time>2019-03-24T07:21:20Z</time>
      </trkpt>
      <trkpt lat="42.91886" lon="0.19591">
        <ele>1657</ele>
        <time>2019-03-24T07:21:32Z</time>
      </trkpt>
      <trkpt lat="42.91885" lon="0.19601">
        <ele>1657</ele>
        <time>2019-03-24T07:21:42Z</time>
      </trkpt>
      <trkpt lat="42.91886" lon="0.19619">
        <ele>1659</ele>
        <time>2019-03-24T07:21:55Z</time>
      </trkpt>
      <trkpt lat="42.91891" lon="0.19628">
        <ele>1660</ele>
        <time>2019-03-24T07:22:07Z</time>
      </trkpt>
      <trkpt lat="42.91896" lon="0.19632">
        <ele>1661</ele>
        <time>2019-03-24T07:22:24Z</time>
      </trkpt>
      <trkpt lat="42.91895" lon="0.19642">
        <ele>1663</ele>
        <time>2019-03-24T07:22:35Z</time>
      </trkpt>
      <trkpt lat="42.91897" lon="0.19654">
        <ele>1663</ele>
        <time>2019-03-24T07:22:48Z</time>
      </trkpt>
      <trkpt lat="42.91897" lon="0.19661">
        <ele>1664</ele>
        <time>2019-03-24T07:22:55Z</time>
      </trkpt>
      <trkpt lat="42.91896" lon="0.19667">
        <ele>1665</ele>
        <time>2019-03-24T07:23:01Z</time>
      </trkpt>
      <trkpt lat="42.91897" lon="0.19678">
        <ele>1667</ele>
        <time>2019-03-24T07:23:13Z</time>
      </trkpt>
      <trkpt lat="42.91897" lon="0.19688">
        <ele>1668</ele>
        <time>2019-03-24T07:23:23Z</time>
      </trkpt>
      <trkpt lat="42.919" lon="0.19699">
        <ele>1668</ele>
        <time>2019-03-24T07:23:37Z</time>
      </trkpt>
      <trkpt lat="42.91904" lon="0.19703">
        <ele>1669</ele>
        <time>2019-03-24T07:23:44Z</time>
      </trkpt>
      <trkpt lat="42.91907" lon="0.19711">
        <ele>1670</ele>
        <time>2019-03-24T07:23:57Z</time>
      </trkpt>
      <trkpt lat="42.91909" lon="0.19712">
        <ele>1670</ele>
        <time>2019-03-24T07:24:00Z</time>
      </trkpt>
      <trkpt lat="42.91915" lon="0.19723">
        <ele>1671</ele>
        <time>2019-03-24T07:24:14Z</time>
      </trkpt>
      <trkpt lat="42.91921" lon="0.19729">
        <ele>1673</ele>
        <time>2019-03-24T07:24:24Z</time>
      </trkpt>
      <trkpt lat="42.91922" lon="0.1974">
        <ele>1674</ele>
        <time>2019-03-24T07:24:36Z</time>
      </trkpt>
      <trkpt lat="42.9192" lon="0.19747">
        <ele>1675</ele>
        <time>2019-03-24T07:24:45Z</time>
      </trkpt>
      <trkpt lat="42.91921" lon="0.1976">
        <ele>1675</ele>
        <time>2019-03-24T07:24:57Z</time>
      </trkpt>
      <trkpt lat="42.91923" lon="0.19771">
        <ele>1678</ele>
        <time>2019-03-24T07:25:11Z</time>
      </trkpt>
      <trkpt lat="42.91924" lon="0.19772">
        <ele>1677</ele>
        <time>2019-03-24T07:25:12Z</time>
      </trkpt>
      <trkpt lat="42.91925" lon="0.19772">
        <ele>1678</ele>
        <time>2019-03-24T07:25:13Z</time>
      </trkpt>
      <trkpt lat="42.91931" lon="0.19781">
        <ele>1678</ele>
        <time>2019-03-24T07:25:24Z</time>
      </trkpt>
      <trkpt lat="42.91934" lon="0.19787">
        <ele>1679</ele>
        <time>2019-03-24T07:25:36Z</time>
      </trkpt>
      <trkpt lat="42.91931" lon="0.1979">
        <ele>1679</ele>
        <time>2019-03-24T07:25:49Z</time>
      </trkpt>
      <trkpt lat="42.91938" lon="0.19792">
        <ele>1680</ele>
        <time>2019-03-24T07:26:12Z</time>
      </trkpt>
      <trkpt lat="42.91945" lon="0.19797">
        <ele>1680</ele>
        <time>2019-03-24T07:26:24Z</time>
      </trkpt>
      <trkpt lat="42.91962" lon="0.198">
        <ele>1681</ele>
        <time>2019-03-24T07:26:54Z</time>
      </trkpt>
      <trkpt lat="42.91963" lon="0.19813">
        <ele>1682</ele>
        <time>2019-03-24T07:27:07Z</time>
      </trkpt>
      <trkpt lat="42.91964" lon="0.19826">
        <ele>1683</ele>
        <time>2019-03-24T07:27:18Z</time>
      </trkpt>
      <trkpt lat="42.91966" lon="0.19838">
        <ele>1685</ele>
        <time>2019-03-24T07:27:29Z</time>
      </trkpt>
      <trkpt lat="42.91968" lon="0.19853">
        <ele>1686</ele>
        <time>2019-03-24T07:27:41Z</time>
      </trkpt>
      <trkpt lat="42.91971" lon="0.19865">
        <ele>1688</ele>
        <time>2019-03-24T07:27:53Z</time>
      </trkpt>
      <trkpt lat="42.91972" lon="0.19878">
        <ele>1688</ele>
        <time>2019-03-24T07:28:05Z</time>
      </trkpt>
      <trkpt lat="42.91973" lon="0.19881">
        <ele>1688</ele>
        <time>2019-03-24T07:28:07Z</time>
      </trkpt>
      <trkpt lat="42.91972" lon="0.19882">
        <ele>1688</ele>
        <time>2019-03-24T07:28:08Z</time>
      </trkpt>
      <trkpt lat="42.91972" lon="0.19894">
        <ele>1689</ele>
        <time>2019-03-24T07:28:18Z</time>
      </trkpt>
      <trkpt lat="42.91974" lon="0.19899">
        <ele>1690</ele>
        <time>2019-03-24T07:28:24Z</time>
      </trkpt>
      <trkpt lat="42.91974" lon="0.19913">
        <ele>1692</ele>
        <time>2019-03-24T07:28:36Z</time>
      </trkpt>
      <trkpt lat="42.91976" lon="0.19926">
        <ele>1693</ele>
        <time>2019-03-24T07:28:48Z</time>
      </trkpt>
      <trkpt lat="42.91974" lon="0.19935">
        <ele>1693</ele>
        <time>2019-03-24T07:28:59Z</time>
      </trkpt>
      <trkpt lat="42.91978" lon="0.1994">
        <ele>1693</ele>
        <time>2019-03-24T07:29:04Z</time>
      </trkpt>
      <trkpt lat="42.91975" lon="0.19953">
        <ele>1695</ele>
        <time>2019-03-24T07:29:17Z</time>
      </trkpt>
      <trkpt lat="42.91978" lon="0.19965">
        <ele>1695</ele>
        <time>2019-03-24T07:29:31Z</time>
      </trkpt>
      <trkpt lat="42.9198" lon="0.19976">
        <ele>1696</ele>
        <time>2019-03-24T07:29:40Z</time>
      </trkpt>
      <trkpt lat="42.91984" lon="0.19986">
        <ele>1698</ele>
        <time>2019-03-24T07:29:51Z</time>
      </trkpt>
      <trkpt lat="42.91988" lon="0.20001">
        <ele>1699</ele>
        <time>2019-03-24T07:30:03Z</time>
      </trkpt>
      <trkpt lat="42.91992" lon="0.20013">
        <ele>1700</ele>
        <time>2019-03-24T07:30:15Z</time>
      </trkpt>
      <trkpt lat="42.91995" lon="0.20027">
        <ele>1701</ele>
        <time>2019-03-24T07:30:28Z</time>
      </trkpt>
      <trkpt lat="42.91994" lon="0.20036">
        <ele>1702</ele>
        <time>2019-03-24T07:30:35Z</time>
      </trkpt>
      <trkpt lat="42.91995" lon="0.20047">
        <ele>1703</ele>
        <time>2019-03-24T07:30:45Z</time>
      </trkpt>
      <trkpt lat="42.91995" lon="0.20049">
        <ele>1703</ele>
        <time>2019-03-24T07:30:46Z</time>
      </trkpt>
      <trkpt lat="42.91996" lon="0.20063">
        <ele>1704</ele>
        <time>2019-03-24T07:30:59Z</time>
      </trkpt>
      <trkpt lat="42.91992" lon="0.20074">
        <ele>1705</ele>
        <time>2019-03-24T07:31:11Z</time>
      </trkpt>
      <trkpt lat="42.91994" lon="0.20076">
        <ele>1705</ele>
        <time>2019-03-24T07:31:37Z</time>
      </trkpt>
      <trkpt lat="42.91988" lon="0.20085">
        <ele>1706</ele>
        <time>2019-03-24T07:31:49Z</time>
      </trkpt>
      <trkpt lat="42.9198" lon="0.20093">
        <ele>1708</ele>
        <time>2019-03-24T07:32:02Z</time>
      </trkpt>
      <trkpt lat="42.91974" lon="0.20098">
        <ele>1709</ele>
        <time>2019-03-24T07:32:12Z</time>
      </trkpt>
      <trkpt lat="42.91965" lon="0.20106">
        <ele>1709</ele>
        <time>2019-03-24T07:32:25Z</time>
      </trkpt>
      <trkpt lat="42.9196" lon="0.20112">
        <ele>1710</ele>
        <time>2019-03-24T07:32:38Z</time>
      </trkpt>
      <trkpt lat="42.91962" lon="0.20112">
        <ele>1709</ele>
        <time>2019-03-24T07:32:50Z</time>
      </trkpt>
      <trkpt lat="42.91957" lon="0.20104">
        <ele>1709</ele>
        <time>2019-03-24T07:33:02Z</time>
      </trkpt>
      <trkpt lat="42.91956" lon="0.20104">
        <ele>1709</ele>
        <time>2019-03-24T07:33:26Z</time>
      </trkpt>
      <trkpt lat="42.9196" lon="0.20103">
        <ele>1709</ele>
        <time>2019-03-24T07:34:00Z</time>
      </trkpt>
      <trkpt lat="42.91964" lon="0.20102">
        <ele>1708</ele>
        <time>2019-03-24T07:34:24Z</time>
      </trkpt>
      <trkpt lat="42.91966" lon="0.20104">
        <ele>1709</ele>
        <time>2019-03-24T07:34:50Z</time>
      </trkpt>
      <trkpt lat="42.91966" lon="0.20102">
        <ele>1708</ele>
        <time>2019-03-24T07:35:02Z</time>
      </trkpt>
      <trkpt lat="42.91966" lon="0.20101">
        <ele>1709</ele>
        <time>2019-03-24T07:35:29Z</time>
      </trkpt>
      <trkpt lat="42.91966" lon="0.20108">
        <ele>1709</ele>
        <time>2019-03-24T07:35:44Z</time>
      </trkpt>
      <trkpt lat="42.91964" lon="0.20113">
        <ele>1709</ele>
        <time>2019-03-24T07:36:02Z</time>
      </trkpt>
      <trkpt lat="42.91965" lon="0.20116">
        <ele>1709</ele>
        <time>2019-03-24T07:36:22Z</time>
      </trkpt>
      <trkpt lat="42.91964" lon="0.20114">
        <ele>1707</ele>
        <time>2019-03-24T07:36:40Z</time>
      </trkpt>
      <trkpt lat="42.91963" lon="0.20113">
        <ele>1709</ele>
        <time>2019-03-24T07:37:01Z</time>
      </trkpt>
      <trkpt lat="42.91962" lon="0.20113">
        <ele>1709</ele>
        <time>2019-03-24T07:37:22Z</time>
      </trkpt>
      <trkpt lat="42.91962" lon="0.20117">
        <ele>1710</ele>
        <time>2019-03-24T07:37:40Z</time>
      </trkpt>
      <trkpt lat="42.91956" lon="0.20122">
        <ele>1710</ele>
        <time>2019-03-24T07:37:53Z</time>
      </trkpt>
      <trkpt lat="42.91948" lon="0.20133">
        <ele>1713</ele>
        <time>2019-03-24T07:38:07Z</time>
      </trkpt>
      <trkpt lat="42.91942" lon="0.20141">
        <ele>1714</ele>
        <time>2019-03-24T07:38:18Z</time>
      </trkpt>
      <trkpt lat="42.91935" lon="0.20152">
        <ele>1715</ele>
        <time>2019-03-24T07:38:31Z</time>
      </trkpt>
      <trkpt lat="42.91926" lon="0.20165">
        <ele>1716</ele>
        <time>2019-03-24T07:38:45Z</time>
      </trkpt>
      <trkpt lat="42.91918" lon="0.20172">
        <ele>1717</ele>
        <time>2019-03-24T07:38:57Z</time>
      </trkpt>
      <trkpt lat="42.91914" lon="0.20178">
        <ele>1718</ele>
        <time>2019-03-24T07:39:05Z</time>
      </trkpt>
      <trkpt lat="42.91903" lon="0.20187">
        <ele>1719</ele>
        <time>2019-03-24T07:39:20Z</time>
      </trkpt>
      <trkpt lat="42.91893" lon="0.20194">
        <ele>1721</ele>
        <time>2019-03-24T07:39:34Z</time>
      </trkpt>
      <trkpt lat="42.91881" lon="0.20201">
        <ele>1722</ele>
        <time>2019-03-24T07:39:49Z</time>
      </trkpt>
      <trkpt lat="42.91874" lon="0.20204">
        <ele>1723</ele>
        <time>2019-03-24T07:39:57Z</time>
      </trkpt>
      <trkpt lat="42.9187" lon="0.20208">
        <ele>1723</ele>
        <time>2019-03-24T07:40:03Z</time>
      </trkpt>
      <trkpt lat="42.91863" lon="0.20216">
        <ele>1725</ele>
        <time>2019-03-24T07:40:16Z</time>
      </trkpt>
      <trkpt lat="42.91855" lon="0.20225">
        <ele>1726</ele>
        <time>2019-03-24T07:40:29Z</time>
      </trkpt>
      <trkpt lat="42.91847" lon="0.20238">
        <ele>1727</ele>
        <time>2019-03-24T07:40:42Z</time>
      </trkpt>
      <trkpt lat="42.9184" lon="0.20246">
        <ele>1728</ele>
        <time>2019-03-24T07:40:54Z</time>
      </trkpt>
      <trkpt lat="42.91831" lon="0.20248">
        <ele>1728</ele>
        <time>2019-03-24T07:41:06Z</time>
      </trkpt>
      <trkpt lat="42.91821" lon="0.20245">
        <ele>1730</ele>
        <time>2019-03-24T07:41:17Z</time>
      </trkpt>
      <trkpt lat="42.91812" lon="0.20246">
        <ele>1731</ele>
        <time>2019-03-24T07:41:28Z</time>
      </trkpt>
      <trkpt lat="42.91801" lon="0.20254">
        <ele>1732</ele>
        <time>2019-03-24T07:41:42Z</time>
      </trkpt>
      <trkpt lat="42.91793" lon="0.20261">
        <ele>1733</ele>
        <time>2019-03-24T07:41:56Z</time>
      </trkpt>
      <trkpt lat="42.91784" lon="0.20269">
        <ele>1734</ele>
        <time>2019-03-24T07:42:11Z</time>
      </trkpt>
      <trkpt lat="42.91774" lon="0.20278">
        <ele>1736</ele>
        <time>2019-03-24T07:42:26Z</time>
      </trkpt>
      <trkpt lat="42.91766" lon="0.20284">
        <ele>1737</ele>
        <time>2019-03-24T07:42:38Z</time>
      </trkpt>
      <trkpt lat="42.91759" lon="0.20289">
        <ele>1737</ele>
        <time>2019-03-24T07:42:49Z</time>
      </trkpt>
      <trkpt lat="42.91753" lon="0.20296">
        <ele>1738</ele>
        <time>2019-03-24T07:43:06Z</time>
      </trkpt>
      <trkpt lat="42.91744" lon="0.20301">
        <ele>1739</ele>
        <time>2019-03-24T07:43:18Z</time>
      </trkpt>
      <trkpt lat="42.91735" lon="0.20307">
        <ele>1740</ele>
        <time>2019-03-24T07:43:31Z</time>
      </trkpt>
      <trkpt lat="42.91726" lon="0.20314">
        <ele>1741</ele>
        <time>2019-03-24T07:43:47Z</time>
      </trkpt>
      <trkpt lat="42.91721" lon="0.2032">
        <ele>1742</ele>
        <time>2019-03-24T07:43:54Z</time>
      </trkpt>
      <trkpt lat="42.91716" lon="0.20323">
        <ele>1742</ele>
        <time>2019-03-24T07:44:00Z</time>
      </trkpt>
      <trkpt lat="42.91711" lon="0.20326">
        <ele>1742</ele>
        <time>2019-03-24T07:44:06Z</time>
      </trkpt>
      <trkpt lat="42.91707" lon="0.20329">
        <ele>1742</ele>
        <time>2019-03-24T07:44:11Z</time>
      </trkpt>
      <trkpt lat="42.91699" lon="0.20338">
        <ele>1742</ele>
        <time>2019-03-24T07:44:24Z</time>
      </trkpt>
      <trkpt lat="42.91692" lon="0.20345">
        <ele>1743</ele>
        <time>2019-03-24T07:44:36Z</time>
      </trkpt>
      <trkpt lat="42.91681" lon="0.20354">
        <ele>1742</ele>
        <time>2019-03-24T07:44:49Z</time>
      </trkpt>
      <trkpt lat="42.91673" lon="0.20362">
        <ele>1743</ele>
        <time>2019-03-24T07:45:03Z</time>
      </trkpt>
      <trkpt lat="42.91671" lon="0.2036">
        <ele>1744</ele>
        <time>2019-03-24T07:45:33Z</time>
      </trkpt>
      <trkpt lat="42.9166" lon="0.20369">
        <ele>1743</ele>
        <time>2019-03-24T07:45:47Z</time>
      </trkpt>
      <trkpt lat="42.9165" lon="0.20376">
        <ele>1744</ele>
        <time>2019-03-24T07:46:00Z</time>
      </trkpt>
      <trkpt lat="42.91639" lon="0.20385">
        <ele>1743</ele>
        <time>2019-03-24T07:46:15Z</time>
      </trkpt>
      <trkpt lat="42.91624" lon="0.20389">
        <ele>1744</ele>
        <time>2019-03-24T07:46:29Z</time>
      </trkpt>
      <trkpt lat="42.91617" lon="0.20395">
        <ele>1744</ele>
        <time>2019-03-24T07:46:40Z</time>
      </trkpt>
      <trkpt lat="42.91606" lon="0.20402">
        <ele>1744</ele>
        <time>2019-03-24T07:46:54Z</time>
      </trkpt>
      <trkpt lat="42.91599" lon="0.20403">
        <ele>1745</ele>
        <time>2019-03-24T07:47:02Z</time>
      </trkpt>
      <trkpt lat="42.91587" lon="0.20405">
        <ele>1744</ele>
        <time>2019-03-24T07:47:16Z</time>
      </trkpt>
      <trkpt lat="42.9158" lon="0.20406">
        <ele>1745</ele>
        <time>2019-03-24T07:47:30Z</time>
      </trkpt>
      <trkpt lat="42.91573" lon="0.20397">
        <ele>1745</ele>
        <time>2019-03-24T07:47:42Z</time>
      </trkpt>
      <trkpt lat="42.91568" lon="0.20391">
        <ele>1745</ele>
        <time>2019-03-24T07:47:56Z</time>
      </trkpt>
      <trkpt lat="42.91564" lon="0.20385">
        <ele>1746</ele>
        <time>2019-03-24T07:48:13Z</time>
      </trkpt>
      <trkpt lat="42.9156" lon="0.20382">
        <ele>1746</ele>
        <time>2019-03-24T07:48:35Z</time>
      </trkpt>
      <trkpt lat="42.91559" lon="0.20384">
        <ele>1745</ele>
        <time>2019-03-24T07:48:53Z</time>
      </trkpt>
      <trkpt lat="42.91561" lon="0.20384">
        <ele>1746</ele>
        <time>2019-03-24T07:49:03Z</time>
      </trkpt>
      <trkpt lat="42.9156" lon="0.20384">
        <ele>1746</ele>
        <time>2019-03-24T07:49:06Z</time>
      </trkpt>
      <trkpt lat="42.91557" lon="0.20379">
        <ele>1745</ele>
        <time>2019-03-24T07:49:11Z</time>
      </trkpt>
      <trkpt lat="42.91547" lon="0.20376">
        <ele>1745</ele>
        <time>2019-03-24T07:49:24Z</time>
      </trkpt>
      <trkpt lat="42.91545" lon="0.20379">
        <ele>1746</ele>
        <time>2019-03-24T07:49:39Z</time>
      </trkpt>
      <trkpt lat="42.91543" lon="0.20379">
        <ele>1746</ele>
        <time>2019-03-24T07:50:06Z</time>
      </trkpt>
      <trkpt lat="42.91544" lon="0.20383">
        <ele>1746</ele>
        <time>2019-03-24T07:50:27Z</time>
      </trkpt>
      <trkpt lat="42.91546" lon="0.20376">
        <ele>1746</ele>
        <time>2019-03-24T07:50:51Z</time>
      </trkpt>
      <trkpt lat="42.91546" lon="0.20371">
        <ele>1746</ele>
        <time>2019-03-24T07:51:11Z</time>
      </trkpt>
      <trkpt lat="42.91546" lon="0.20359">
        <ele>1748</ele>
        <time>2019-03-24T07:51:25Z</time>
      </trkpt>
      <trkpt lat="42.91541" lon="0.20347">
        <ele>1750</ele>
        <time>2019-03-24T07:51:38Z</time>
      </trkpt>
      <trkpt lat="42.91538" lon="0.20336">
        <ele>1750</ele>
        <time>2019-03-24T07:51:52Z</time>
      </trkpt>
      <trkpt lat="42.91534" lon="0.20329">
        <ele>1750</ele>
        <time>2019-03-24T07:52:07Z</time>
      </trkpt>
      <trkpt lat="42.91525" lon="0.2032">
        <ele>1750</ele>
        <time>2019-03-24T07:52:23Z</time>
      </trkpt>
      <trkpt lat="42.91523" lon="0.20319">
        <ele>1750</ele>
        <time>2019-03-24T07:52:26Z</time>
      </trkpt>
      <trkpt lat="42.91513" lon="0.20315">
        <ele>1752</ele>
        <time>2019-03-24T07:52:40Z</time>
      </trkpt>
      <trkpt lat="42.91516" lon="0.20306">
        <ele>1754</ele>
        <time>2019-03-24T07:52:50Z</time>
      </trkpt>
      <trkpt lat="42.91518" lon="0.20298">
        <ele>1755</ele>
        <time>2019-03-24T07:53:02Z</time>
      </trkpt>
      <trkpt lat="42.91519" lon="0.20295">
        <ele>1757</ele>
        <time>2019-03-24T07:53:10Z</time>
      </trkpt>
      <trkpt lat="42.9151" lon="0.20295">
        <ele>1758</ele>
        <time>2019-03-24T07:53:22Z</time>
      </trkpt>
      <trkpt lat="42.91499" lon="0.20292">
        <ele>1758</ele>
        <time>2019-03-24T07:53:35Z</time>
      </trkpt>
      <trkpt lat="42.91488" lon="0.20289">
        <ele>1759</ele>
        <time>2019-03-24T07:53:50Z</time>
      </trkpt>
      <trkpt lat="42.91481" lon="0.20284">
        <ele>1762</ele>
        <time>2019-03-24T07:54:05Z</time>
      </trkpt>
      <trkpt lat="42.91482" lon="0.20281">
        <ele>1762</ele>
        <time>2019-03-24T07:54:14Z</time>
      </trkpt>
      <trkpt lat="42.91488" lon="0.20276">
        <ele>1763</ele>
        <time>2019-03-24T07:54:27Z</time>
      </trkpt>
      <trkpt lat="42.9149" lon="0.20274">
        <ele>1764</ele>
        <time>2019-03-24T07:54:45Z</time>
      </trkpt>
      <trkpt lat="42.9149" lon="0.20276">
        <ele>1764</ele>
        <time>2019-03-24T07:54:59Z</time>
      </trkpt>
      <trkpt lat="42.91489" lon="0.20276">
        <ele>1765</ele>
        <time>2019-03-24T07:55:02Z</time>
      </trkpt>
      <trkpt lat="42.91482" lon="0.20276">
        <ele>1766</ele>
        <time>2019-03-24T07:55:16Z</time>
      </trkpt>
      <trkpt lat="42.91478" lon="0.20282">
        <ele>1766</ele>
        <time>2019-03-24T07:55:28Z</time>
      </trkpt>
      <trkpt lat="42.91479" lon="0.20281">
        <ele>1767</ele>
        <time>2019-03-24T07:55:42Z</time>
      </trkpt>
      <trkpt lat="42.91485" lon="0.20277">
        <ele>1768</ele>
        <time>2019-03-24T07:55:59Z</time>
      </trkpt>
      <trkpt lat="42.91483" lon="0.20277">
        <ele>1768</ele>
        <time>2019-03-24T07:56:13Z</time>
      </trkpt>
      <trkpt lat="42.91478" lon="0.20274">
        <ele>1770</ele>
        <time>2019-03-24T07:56:27Z</time>
      </trkpt>
      <trkpt lat="42.91477" lon="0.20276">
        <ele>1771</ele>
        <time>2019-03-24T07:56:48Z</time>
      </trkpt>
      <trkpt lat="42.9147" lon="0.20272">
        <ele>1772</ele>
        <time>2019-03-24T07:57:00Z</time>
      </trkpt>
      <trkpt lat="42.91471" lon="0.20264">
        <ele>1773</ele>
        <time>2019-03-24T07:57:15Z</time>
      </trkpt>
      <trkpt lat="42.91477" lon="0.20256">
        <ele>1775</ele>
        <time>2019-03-24T07:57:29Z</time>
      </trkpt>
      <trkpt lat="42.91482" lon="0.20256">
        <ele>1777</ele>
        <time>2019-03-24T07:57:47Z</time>
      </trkpt>
      <trkpt lat="42.9148" lon="0.20257">
        <ele>1777</ele>
        <time>2019-03-24T07:58:09Z</time>
      </trkpt>
      <trkpt lat="42.91477" lon="0.20257">
        <ele>1778</ele>
        <time>2019-03-24T07:58:19Z</time>
      </trkpt>
      <trkpt lat="42.91469" lon="0.20256">
        <ele>1781</ele>
        <time>2019-03-24T07:58:34Z</time>
      </trkpt>
      <trkpt lat="42.91466" lon="0.20254">
        <ele>1781</ele>
        <time>2019-03-24T07:58:40Z</time>
      </trkpt>
      <trkpt lat="42.9146" lon="0.20247">
        <ele>1783</ele>
        <time>2019-03-24T07:58:53Z</time>
      </trkpt>
      <trkpt lat="42.91454" lon="0.20238">
        <ele>1786</ele>
        <time>2019-03-24T07:59:07Z</time>
      </trkpt>
      <trkpt lat="42.91451" lon="0.20232">
        <ele>1787</ele>
        <time>2019-03-24T07:59:20Z</time>
      </trkpt>
      <trkpt lat="42.91446" lon="0.20226">
        <ele>1791</ele>
        <time>2019-03-24T07:59:37Z</time>
      </trkpt>
      <trkpt lat="42.91436" lon="0.20221">
        <ele>1792</ele>
        <time>2019-03-24T07:59:51Z</time>
      </trkpt>
      <trkpt lat="42.91433" lon="0.20219">
        <ele>1793</ele>
        <time>2019-03-24T07:59:56Z</time>
      </trkpt>
      <trkpt lat="42.91423" lon="0.20218">
        <ele>1795</ele>
        <time>2019-03-24T08:00:11Z</time>
      </trkpt>
      <trkpt lat="42.91412" lon="0.2021">
        <ele>1799</ele>
        <time>2019-03-24T08:00:27Z</time>
      </trkpt>
      <trkpt lat="42.91411" lon="0.2021">
        <ele>1799</ele>
        <time>2019-03-24T08:00:29Z</time>
      </trkpt>
      <trkpt lat="42.91409" lon="0.20199">
        <ele>1799</ele>
        <time>2019-03-24T08:00:42Z</time>
      </trkpt>
      <trkpt lat="42.91409" lon="0.20191">
        <ele>1801</ele>
        <time>2019-03-24T08:00:54Z</time>
      </trkpt>
      <trkpt lat="42.91415" lon="0.20182">
        <ele>1803</ele>
        <time>2019-03-24T08:01:08Z</time>
      </trkpt>
      <trkpt lat="42.91416" lon="0.2017">
        <ele>1805</ele>
        <time>2019-03-24T08:01:25Z</time>
      </trkpt>
      <trkpt lat="42.91421" lon="0.2017">
        <ele>1807</ele>
        <time>2019-03-24T08:01:37Z</time>
      </trkpt>
      <trkpt lat="42.91413" lon="0.20171">
        <ele>1809</ele>
        <time>2019-03-24T08:01:52Z</time>
      </trkpt>
      <trkpt lat="42.91408" lon="0.20172">
        <ele>1811</ele>
        <time>2019-03-24T08:02:05Z</time>
      </trkpt>
      <trkpt lat="42.91401" lon="0.20174">
        <ele>1813</ele>
        <time>2019-03-24T08:02:22Z</time>
      </trkpt>
      <trkpt lat="42.91394" lon="0.20176">
        <ele>1816</ele>
        <time>2019-03-24T08:02:34Z</time>
      </trkpt>
      <trkpt lat="42.91395" lon="0.20169">
        <ele>1816</ele>
        <time>2019-03-24T08:02:53Z</time>
      </trkpt>
      <trkpt lat="42.91395" lon="0.20165">
        <ele>1816</ele>
        <time>2019-03-24T08:03:09Z</time>
      </trkpt>
      <trkpt lat="42.91396" lon="0.20159">
        <ele>1816</ele>
        <time>2019-03-24T08:03:27Z</time>
      </trkpt>
      <trkpt lat="42.91395" lon="0.20153">
        <ele>1818</ele>
        <time>2019-03-24T08:03:40Z</time>
      </trkpt>
      <trkpt lat="42.91401" lon="0.20142">
        <ele>1821</ele>
        <time>2019-03-24T08:03:57Z</time>
      </trkpt>
      <trkpt lat="42.91408" lon="0.2013">
        <ele>1823</ele>
        <time>2019-03-24T08:04:15Z</time>
      </trkpt>
      <trkpt lat="42.91413" lon="0.20121">
        <ele>1825</ele>
        <time>2019-03-24T08:04:31Z</time>
      </trkpt>
      <trkpt lat="42.91415" lon="0.20114">
        <ele>1827</ele>
        <time>2019-03-24T08:04:47Z</time>
      </trkpt>
      <trkpt lat="42.91422" lon="0.20106">
        <ele>1830</ele>
        <time>2019-03-24T08:05:07Z</time>
      </trkpt>
      <trkpt lat="42.91425" lon="0.20098">
        <ele>1831</ele>
        <time>2019-03-24T08:05:19Z</time>
      </trkpt>
      <trkpt lat="42.91429" lon="0.20091">
        <ele>1834</ele>
        <time>2019-03-24T08:05:33Z</time>
      </trkpt>
      <trkpt lat="42.91428" lon="0.2009">
        <ele>1835</ele>
        <time>2019-03-24T08:05:43Z</time>
      </trkpt>
      <trkpt lat="42.91428" lon="0.20091">
        <ele>1835</ele>
        <time>2019-03-24T08:05:56Z</time>
      </trkpt>
      <trkpt lat="42.91419" lon="0.20096">
        <ele>1835</ele>
        <time>2019-03-24T08:06:10Z</time>
      </trkpt>
      <trkpt lat="42.91409" lon="0.201">
        <ele>1837</ele>
        <time>2019-03-24T08:06:25Z</time>
      </trkpt>
      <trkpt lat="42.91408" lon="0.20091">
        <ele>1839</ele>
        <time>2019-03-24T08:06:38Z</time>
      </trkpt>
      <trkpt lat="42.91412" lon="0.20081">
        <ele>1841</ele>
        <time>2019-03-24T08:06:52Z</time>
      </trkpt>
      <trkpt lat="42.91413" lon="0.20079">
        <ele>1841</ele>
        <time>2019-03-24T08:06:54Z</time>
      </trkpt>
      <trkpt lat="42.91417" lon="0.20073">
        <ele>1843</ele>
        <time>2019-03-24T08:07:08Z</time>
      </trkpt>
      <trkpt lat="42.91422" lon="0.20067">
        <ele>1846</ele>
        <time>2019-03-24T08:07:22Z</time>
      </trkpt>
      <trkpt lat="42.91426" lon="0.2006">
        <ele>1847</ele>
        <time>2019-03-24T08:07:37Z</time>
      </trkpt>
      <trkpt lat="42.91423" lon="0.20064">
        <ele>1848</ele>
        <time>2019-03-24T08:07:49Z</time>
      </trkpt>
      <trkpt lat="42.91414" lon="0.20065">
        <ele>1851</ele>
        <time>2019-03-24T08:08:05Z</time>
      </trkpt>
      <trkpt lat="42.91404" lon="0.20066">
        <ele>1854</ele>
        <time>2019-03-24T08:08:24Z</time>
      </trkpt>
      <trkpt lat="42.91406" lon="0.2006">
        <ele>1855</ele>
        <time>2019-03-24T08:08:40Z</time>
      </trkpt>
      <trkpt lat="42.91405" lon="0.20058">
        <ele>1855</ele>
        <time>2019-03-24T08:09:11Z</time>
      </trkpt>
      <trkpt lat="42.91406" lon="0.2005">
        <ele>1855</ele>
        <time>2019-03-24T08:09:29Z</time>
      </trkpt>
      <trkpt lat="42.91411" lon="0.20043">
        <ele>1857</ele>
        <time>2019-03-24T08:09:42Z</time>
      </trkpt>
      <trkpt lat="42.91418" lon="0.20035">
        <ele>1860</ele>
        <time>2019-03-24T08:09:58Z</time>
      </trkpt>
      <trkpt lat="42.91425" lon="0.20028">
        <ele>1863</ele>
        <time>2019-03-24T08:10:14Z</time>
      </trkpt>
      <trkpt lat="42.91431" lon="0.20022">
        <ele>1865</ele>
        <time>2019-03-24T08:10:28Z</time>
      </trkpt>
      <trkpt lat="42.91432" lon="0.20024">
        <ele>1866</ele>
        <time>2019-03-24T08:10:41Z</time>
      </trkpt>
      <trkpt lat="42.91425" lon="0.20022">
        <ele>1869</ele>
        <time>2019-03-24T08:10:58Z</time>
      </trkpt>
      <trkpt lat="42.91412" lon="0.2002">
        <ele>1871</ele>
        <time>2019-03-24T08:11:18Z</time>
      </trkpt>
      <trkpt lat="42.91408" lon="0.20017">
        <ele>1874</ele>
        <time>2019-03-24T08:11:35Z</time>
      </trkpt>
      <trkpt lat="42.9141" lon="0.20008">
        <ele>1875</ele>
        <time>2019-03-24T08:11:55Z</time>
      </trkpt>
      <trkpt lat="42.91413" lon="0.20002">
        <ele>1877</ele>
        <time>2019-03-24T08:12:06Z</time>
      </trkpt>
      <trkpt lat="42.91415" lon="0.20001">
        <ele>1877</ele>
        <time>2019-03-24T08:12:08Z</time>
      </trkpt>
      <trkpt lat="42.91423" lon="0.19994">
        <ele>1878</ele>
        <time>2019-03-24T08:12:20Z</time>
      </trkpt>
      <trkpt lat="42.91428" lon="0.19991">
        <ele>1879</ele>
        <time>2019-03-24T08:12:34Z</time>
      </trkpt>
      <trkpt lat="42.91429" lon="0.19991">
        <ele>1879</ele>
        <time>2019-03-24T08:12:36Z</time>
      </trkpt>
      <trkpt lat="42.9144" lon="0.19986">
        <ele>1879</ele>
        <time>2019-03-24T08:12:49Z</time>
      </trkpt>
      <trkpt lat="42.9145" lon="0.19981">
        <ele>1881</ele>
        <time>2019-03-24T08:13:02Z</time>
      </trkpt>
      <trkpt lat="42.91456" lon="0.19973">
        <ele>1882</ele>
        <time>2019-03-24T08:13:16Z</time>
      </trkpt>
      <trkpt lat="42.9146" lon="0.19964">
        <ele>1885</ele>
        <time>2019-03-24T08:13:30Z</time>
      </trkpt>
      <trkpt lat="42.9146" lon="0.19964">
        <ele>1885</ele>
        <time>2019-03-24T08:13:31Z</time>
      </trkpt>
      <trkpt lat="42.91463" lon="0.19954">
        <ele>1887</ele>
        <time>2019-03-24T08:13:44Z</time>
      </trkpt>
      <trkpt lat="42.91465" lon="0.19946">
        <ele>1889</ele>
        <time>2019-03-24T08:13:56Z</time>
      </trkpt>
      <trkpt lat="42.91461" lon="0.19951">
        <ele>1891</ele>
        <time>2019-03-24T08:14:10Z</time>
      </trkpt>
      <trkpt lat="42.91451" lon="0.19955">
        <ele>1894</ele>
        <time>2019-03-24T08:14:27Z</time>
      </trkpt>
      <trkpt lat="42.91443" lon="0.19954">
        <ele>1895</ele>
        <time>2019-03-24T08:14:41Z</time>
      </trkpt>
      <trkpt lat="42.91431" lon="0.19953">
        <ele>1898</ele>
        <time>2019-03-24T08:14:58Z</time>
      </trkpt>
      <trkpt lat="42.91422" lon="0.19949">
        <ele>1901</ele>
        <time>2019-03-24T08:15:17Z</time>
      </trkpt>
      <trkpt lat="42.91425" lon="0.19941">
        <ele>1902</ele>
        <time>2019-03-24T08:15:36Z</time>
      </trkpt>
      <trkpt lat="42.9143" lon="0.19932">
        <ele>1904</ele>
        <time>2019-03-24T08:15:54Z</time>
      </trkpt>
      <trkpt lat="42.91434" lon="0.19923">
        <ele>1906</ele>
        <time>2019-03-24T08:16:09Z</time>
      </trkpt>
      <trkpt lat="42.91436" lon="0.19919">
        <ele>1908</ele>
        <time>2019-03-24T08:16:26Z</time>
      </trkpt>
      <trkpt lat="42.91435" lon="0.19924">
        <ele>1908</ele>
        <time>2019-03-24T08:16:44Z</time>
      </trkpt>
      <trkpt lat="42.91428" lon="0.19925">
        <ele>1911</ele>
        <time>2019-03-24T08:16:58Z</time>
      </trkpt>
      <trkpt lat="42.9142" lon="0.19926">
        <ele>1913</ele>
        <time>2019-03-24T08:17:13Z</time>
      </trkpt>
      <trkpt lat="42.91413" lon="0.19925">
        <ele>1915</ele>
        <time>2019-03-24T08:17:27Z</time>
      </trkpt>
      <trkpt lat="42.91405" lon="0.19928">
        <ele>1917</ele>
        <time>2019-03-24T08:17:43Z</time>
      </trkpt>
      <trkpt lat="42.91396" lon="0.19932">
        <ele>1918</ele>
        <time>2019-03-24T08:17:57Z</time>
      </trkpt>
      <trkpt lat="42.91389" lon="0.19939">
        <ele>1921</ele>
        <time>2019-03-24T08:18:13Z</time>
      </trkpt>
      <trkpt lat="42.91383" lon="0.19943">
        <ele>1923</ele>
        <time>2019-03-24T08:18:27Z</time>
      </trkpt>
      <trkpt lat="42.91382" lon="0.19936">
        <ele>1923</ele>
        <time>2019-03-24T08:18:47Z</time>
      </trkpt>
      <trkpt lat="42.91383" lon="0.19926">
        <ele>1925</ele>
        <time>2019-03-24T08:19:03Z</time>
      </trkpt>
      <trkpt lat="42.91384" lon="0.19916">
        <ele>1927</ele>
        <time>2019-03-24T08:19:17Z</time>
      </trkpt>
      <trkpt lat="42.9138" lon="0.19917">
        <ele>1929</ele>
        <time>2019-03-24T08:19:28Z</time>
      </trkpt>
      <trkpt lat="42.91374" lon="0.19925">
        <ele>1931</ele>
        <time>2019-03-24T08:19:43Z</time>
      </trkpt>
      <trkpt lat="42.91365" lon="0.19929">
        <ele>1933</ele>
        <time>2019-03-24T08:19:59Z</time>
      </trkpt>
      <trkpt lat="42.91356" lon="0.1993">
        <ele>1936</ele>
        <time>2019-03-24T08:20:16Z</time>
      </trkpt>
      <trkpt lat="42.91346" lon="0.19927">
        <ele>1938</ele>
        <time>2019-03-24T08:20:36Z</time>
      </trkpt>
      <trkpt lat="42.91332" lon="0.19925">
        <ele>1942</ele>
        <time>2019-03-24T08:20:58Z</time>
      </trkpt>
      <trkpt lat="42.91327" lon="0.19926">
        <ele>1942</ele>
        <time>2019-03-24T08:21:06Z</time>
      </trkpt>
      <trkpt lat="42.91315" lon="0.19929">
        <ele>1944</ele>
        <time>2019-03-24T08:21:20Z</time>
      </trkpt>
      <trkpt lat="42.9131" lon="0.19933">
        <ele>1946</ele>
        <time>2019-03-24T08:21:33Z</time>
      </trkpt>
      <trkpt lat="42.91308" lon="0.19931">
        <ele>1946</ele>
        <time>2019-03-24T08:21:46Z</time>
      </trkpt>
      <trkpt lat="42.91306" lon="0.19931">
        <ele>1946</ele>
        <time>2019-03-24T08:22:08Z</time>
      </trkpt>
      <trkpt lat="42.91306" lon="0.1993">
        <ele>1946</ele>
        <time>2019-03-24T08:22:25Z</time>
      </trkpt>
      <trkpt lat="42.91307" lon="0.19929">
        <ele>1947</ele>
        <time>2019-03-24T08:22:51Z</time>
      </trkpt>
      <trkpt lat="42.91304" lon="0.1993">
        <ele>1946</ele>
        <time>2019-03-24T08:23:09Z</time>
      </trkpt>
      <trkpt lat="42.91307" lon="0.19933">
        <ele>1945</ele>
        <time>2019-03-24T08:23:23Z</time>
      </trkpt>
      <trkpt lat="42.91307" lon="0.1993">
        <ele>1945</ele>
        <time>2019-03-24T08:23:40Z</time>
      </trkpt>
      <trkpt lat="42.91307" lon="0.1993">
        <ele>1945</ele>
        <time>2019-03-24T08:24:17Z</time>
      </trkpt>
      <trkpt lat="42.91307" lon="0.19934">
        <ele>1946</ele>
        <time>2019-03-24T08:24:33Z</time>
      </trkpt>
      <trkpt lat="42.91307" lon="0.19933">
        <ele>1946</ele>
        <time>2019-03-24T08:24:51Z</time>
      </trkpt>
      <trkpt lat="42.91308" lon="0.19925">
        <ele>1946</ele>
        <time>2019-03-24T08:25:08Z</time>
      </trkpt>
      <trkpt lat="42.9131" lon="0.19916">
        <ele>1947</ele>
        <time>2019-03-24T08:25:18Z</time>
      </trkpt>
      <trkpt lat="42.91314" lon="0.19905">
        <ele>1949</ele>
        <time>2019-03-24T08:25:33Z</time>
      </trkpt>
      <trkpt lat="42.9132" lon="0.19892">
        <ele>1951</ele>
        <time>2019-03-24T08:25:48Z</time>
      </trkpt>
      <trkpt lat="42.91324" lon="0.19881">
        <ele>1953</ele>
        <time>2019-03-24T08:26:01Z</time>
      </trkpt>
      <trkpt lat="42.91324" lon="0.19872">
        <ele>1955</ele>
        <time>2019-03-24T08:26:15Z</time>
      </trkpt>
      <trkpt lat="42.91327" lon="0.19865">
        <ele>1957</ele>
        <time>2019-03-24T08:26:29Z</time>
      </trkpt>
      <trkpt lat="42.91319" lon="0.19866">
        <ele>1959</ele>
        <time>2019-03-24T08:26:44Z</time>
      </trkpt>
      <trkpt lat="42.9131" lon="0.19859">
        <ele>1962</ele>
        <time>2019-03-24T08:27:02Z</time>
      </trkpt>
      <trkpt lat="42.91304" lon="0.19855">
        <ele>1965</ele>
        <time>2019-03-24T08:27:17Z</time>
      </trkpt>
      <trkpt lat="42.91306" lon="0.19842">
        <ele>1968</ele>
        <time>2019-03-24T08:27:36Z</time>
      </trkpt>
      <trkpt lat="42.9131" lon="0.19832">
        <ele>1971</ele>
        <time>2019-03-24T08:27:53Z</time>
      </trkpt>
      <trkpt lat="42.91311" lon="0.1982">
        <ele>1973</ele>
        <time>2019-03-24T08:28:05Z</time>
      </trkpt>
      <trkpt lat="42.91313" lon="0.19805">
        <ele>1975</ele>
        <time>2019-03-24T08:28:25Z</time>
      </trkpt>
      <trkpt lat="42.91311" lon="0.19807">
        <ele>1978</ele>
        <time>2019-03-24T08:28:37Z</time>
      </trkpt>
      <trkpt lat="42.91301" lon="0.19808">
        <ele>1979</ele>
        <time>2019-03-24T08:28:52Z</time>
      </trkpt>
      <trkpt lat="42.91292" lon="0.19812">
        <ele>1982</ele>
        <time>2019-03-24T08:29:05Z</time>
      </trkpt>
      <trkpt lat="42.91283" lon="0.19812">
        <ele>1984</ele>
        <time>2019-03-24T08:29:20Z</time>
      </trkpt>
      <trkpt lat="42.91287" lon="0.19796">
        <ele>1986</ele>
        <time>2019-03-24T08:29:38Z</time>
      </trkpt>
      <trkpt lat="42.91287" lon="0.19787">
        <ele>1988</ele>
        <time>2019-03-24T08:29:50Z</time>
      </trkpt>
      <trkpt lat="42.91288" lon="0.19779">
        <ele>1990</ele>
        <time>2019-03-24T08:30:02Z</time>
      </trkpt>
      <trkpt lat="42.9128" lon="0.19784">
        <ele>1991</ele>
        <time>2019-03-24T08:30:16Z</time>
      </trkpt>
      <trkpt lat="42.91277" lon="0.19787">
        <ele>1991</ele>
        <time>2019-03-24T08:30:20Z</time>
      </trkpt>
      <trkpt lat="42.91271" lon="0.19795">
        <ele>1992</ele>
        <time>2019-03-24T08:30:32Z</time>
      </trkpt>
      <trkpt lat="42.91272" lon="0.19795">
        <ele>1992</ele>
        <time>2019-03-24T08:30:52Z</time>
      </trkpt>
      <trkpt lat="42.91273" lon="0.19796">
        <ele>1991</ele>
        <time>2019-03-24T08:31:14Z</time>
      </trkpt>
      <trkpt lat="42.91271" lon="0.19795">
        <ele>1991</ele>
        <time>2019-03-24T08:31:35Z</time>
      </trkpt>
      <trkpt lat="42.9127" lon="0.19795">
        <ele>1991</ele>
        <time>2019-03-24T08:32:03Z</time>
      </trkpt>
      <trkpt lat="42.91272" lon="0.19796">
        <ele>1991</ele>
        <time>2019-03-24T08:32:20Z</time>
      </trkpt>
      <trkpt lat="42.91265" lon="0.19801">
        <ele>1993</ele>
        <time>2019-03-24T08:32:34Z</time>
      </trkpt>
      <trkpt lat="42.91263" lon="0.19803">
        <ele>1993</ele>
        <time>2019-03-24T08:32:37Z</time>
      </trkpt>
      <trkpt lat="42.91256" lon="0.19808">
        <ele>1994</ele>
        <time>2019-03-24T08:32:46Z</time>
      </trkpt>
      <trkpt lat="42.91243" lon="0.19816">
        <ele>1995</ele>
        <time>2019-03-24T08:33:01Z</time>
      </trkpt>
      <trkpt lat="42.91231" lon="0.19827">
        <ele>1996</ele>
        <time>2019-03-24T08:33:17Z</time>
      </trkpt>
      <trkpt lat="42.91225" lon="0.19841">
        <ele>1997</ele>
        <time>2019-03-24T08:33:31Z</time>
      </trkpt>
      <trkpt lat="42.91215" lon="0.19855">
        <ele>1998</ele>
        <time>2019-03-24T08:33:47Z</time>
      </trkpt>
      <trkpt lat="42.91208" lon="0.19868">
        <ele>2000</ele>
        <time>2019-03-24T08:34:02Z</time>
      </trkpt>
      <trkpt lat="42.91205" lon="0.19875">
        <ele>2000</ele>
        <time>2019-03-24T08:34:09Z</time>
      </trkpt>
      <trkpt lat="42.91198" lon="0.19888">
        <ele>2002</ele>
        <time>2019-03-24T08:34:23Z</time>
      </trkpt>
      <trkpt lat="42.91187" lon="0.19893">
        <ele>2003</ele>
        <time>2019-03-24T08:34:39Z</time>
      </trkpt>
      <trkpt lat="42.91186" lon="0.19893">
        <ele>2003</ele>
        <time>2019-03-24T08:35:07Z</time>
      </trkpt>
      <trkpt lat="42.91185" lon="0.19894">
        <ele>2003</ele>
        <time>2019-03-24T08:35:37Z</time>
      </trkpt>
      <trkpt lat="42.91184" lon="0.19892">
        <ele>2004</ele>
        <time>2019-03-24T08:36:05Z</time>
      </trkpt>
      <trkpt lat="42.9118" lon="0.19889">
        <ele>2004</ele>
        <time>2019-03-24T08:36:18Z</time>
      </trkpt>
      <trkpt lat="42.9118" lon="0.19888">
        <ele>2005</ele>
        <time>2019-03-24T08:36:41Z</time>
      </trkpt>
      <trkpt lat="42.91179" lon="0.19889">
        <ele>2004</ele>
        <time>2019-03-24T08:36:57Z</time>
      </trkpt>
      <trkpt lat="42.91178" lon="0.19888">
        <ele>2005</ele>
        <time>2019-03-24T08:36:59Z</time>
      </trkpt>
      <trkpt lat="42.91166" lon="0.19883">
        <ele>2006</ele>
        <time>2019-03-24T08:37:17Z</time>
      </trkpt>
      <trkpt lat="42.9116" lon="0.19877">
        <ele>2007</ele>
        <time>2019-03-24T08:37:34Z</time>
      </trkpt>
      <trkpt lat="42.91155" lon="0.19873">
        <ele>2007</ele>
        <time>2019-03-24T08:37:59Z</time>
      </trkpt>
      <trkpt lat="42.91143" lon="0.19864">
        <ele>2008</ele>
        <time>2019-03-24T08:38:18Z</time>
      </trkpt>
      <trkpt lat="42.91137" lon="0.19862">
        <ele>2011</ele>
        <time>2019-03-24T08:38:34Z</time>
      </trkpt>
      <trkpt lat="42.91127" lon="0.19857">
        <ele>2012</ele>
        <time>2019-03-24T08:38:48Z</time>
      </trkpt>
      <trkpt lat="42.91125" lon="0.19852">
        <ele>2012</ele>
        <time>2019-03-24T08:39:05Z</time>
      </trkpt>
      <trkpt lat="42.91126" lon="0.19851">
        <ele>2012</ele>
        <time>2019-03-24T08:39:34Z</time>
      </trkpt>
      <trkpt lat="42.91128" lon="0.19849">
        <ele>2013</ele>
        <time>2019-03-24T08:40:02Z</time>
      </trkpt>
      <trkpt lat="42.91121" lon="0.19848">
        <ele>2013</ele>
        <time>2019-03-24T08:40:26Z</time>
      </trkpt>
      <trkpt lat="42.91118" lon="0.1984">
        <ele>2013</ele>
        <time>2019-03-24T08:40:41Z</time>
      </trkpt>
      <trkpt lat="42.91111" lon="0.19826">
        <ele>2015</ele>
        <time>2019-03-24T08:40:57Z</time>
      </trkpt>
      <trkpt lat="42.91109" lon="0.19824">
        <ele>2015</ele>
        <time>2019-03-24T08:41:01Z</time>
      </trkpt>
      <trkpt lat="42.91101" lon="0.19808">
        <ele>2016</ele>
        <time>2019-03-24T08:41:19Z</time>
      </trkpt>
      <trkpt lat="42.91094" lon="0.19795">
        <ele>2017</ele>
        <time>2019-03-24T08:41:33Z</time>
      </trkpt>
      <trkpt lat="42.91087" lon="0.19782">
        <ele>2018</ele>
        <time>2019-03-24T08:41:47Z</time>
      </trkpt>
      <trkpt lat="42.91082" lon="0.19765">
        <ele>2019</ele>
        <time>2019-03-24T08:42:02Z</time>
      </trkpt>
      <trkpt lat="42.91076" lon="0.19747">
        <ele>2021</ele>
        <time>2019-03-24T08:42:19Z</time>
      </trkpt>
      <trkpt lat="42.91075" lon="0.19743">
        <ele>2021</ele>
        <time>2019-03-24T08:42:23Z</time>
      </trkpt>
      <trkpt lat="42.9107" lon="0.19727">
        <ele>2022</ele>
        <time>2019-03-24T08:42:38Z</time>
      </trkpt>
      <trkpt lat="42.91066" lon="0.1971">
        <ele>2022</ele>
        <time>2019-03-24T08:42:53Z</time>
      </trkpt>
      <trkpt lat="42.91062" lon="0.19698">
        <ele>2023</ele>
        <time>2019-03-24T08:43:04Z</time>
      </trkpt>
      <trkpt lat="42.91061" lon="0.19693">
        <ele>2023</ele>
        <time>2019-03-24T08:43:17Z</time>
      </trkpt>
      <trkpt lat="42.91058" lon="0.19695">
        <ele>2024</ele>
        <time>2019-03-24T08:43:40Z</time>
      </trkpt>
      <trkpt lat="42.91058" lon="0.19691">
        <ele>2024</ele>
        <time>2019-03-24T08:44:07Z</time>
      </trkpt>
      <trkpt lat="42.91055" lon="0.19678">
        <ele>2024</ele>
        <time>2019-03-24T08:44:24Z</time>
      </trkpt>
      <trkpt lat="42.91053" lon="0.19672">
        <ele>2024</ele>
        <time>2019-03-24T08:44:30Z</time>
      </trkpt>
      <trkpt lat="42.9105" lon="0.19666">
        <ele>2025</ele>
        <time>2019-03-24T08:44:36Z</time>
      </trkpt>
      <trkpt lat="42.91049" lon="0.19663">
        <ele>2025</ele>
        <time>2019-03-24T08:44:39Z</time>
      </trkpt>
      <trkpt lat="42.91042" lon="0.19648">
        <ele>2026</ele>
        <time>2019-03-24T08:44:53Z</time>
      </trkpt>
      <trkpt lat="42.91033" lon="0.19634">
        <ele>2025</ele>
        <time>2019-03-24T08:45:07Z</time>
      </trkpt>
      <trkpt lat="42.91027" lon="0.19624">
        <ele>2025</ele>
        <time>2019-03-24T08:45:21Z</time>
      </trkpt>
      <trkpt lat="42.91024" lon="0.19618">
        <ele>2025</ele>
        <time>2019-03-24T08:45:29Z</time>
      </trkpt>
      <trkpt lat="42.91017" lon="0.19604">
        <ele>2025</ele>
        <time>2019-03-24T08:45:44Z</time>
      </trkpt>
      <trkpt lat="42.91009" lon="0.19597">
        <ele>2026</ele>
        <time>2019-03-24T08:45:56Z</time>
      </trkpt>
      <trkpt lat="42.90997" lon="0.1959">
        <ele>2025</ele>
        <time>2019-03-24T08:46:09Z</time>
      </trkpt>
      <trkpt lat="42.90987" lon="0.19572">
        <ele>2024</ele>
        <time>2019-03-24T08:46:24Z</time>
      </trkpt>
      <trkpt lat="42.90978" lon="0.19559">
        <ele>2024</ele>
        <time>2019-03-24T08:46:39Z</time>
      </trkpt>
      <trkpt lat="42.90968" lon="0.19543">
        <ele>2025</ele>
        <time>2019-03-24T08:46:55Z</time>
      </trkpt>
      <trkpt lat="42.90965" lon="0.19529">
        <ele>2026</ele>
        <time>2019-03-24T08:47:08Z</time>
      </trkpt>
      <trkpt lat="42.90962" lon="0.1952">
        <ele>2028</ele>
        <time>2019-03-24T08:47:19Z</time>
      </trkpt>
      <trkpt lat="42.90956" lon="0.1951">
        <ele>2030</ele>
        <time>2019-03-24T08:47:33Z</time>
      </trkpt>
      <trkpt lat="42.90951" lon="0.195">
        <ele>2031</ele>
        <time>2019-03-24T08:47:48Z</time>
      </trkpt>
      <trkpt lat="42.90945" lon="0.19491">
        <ele>2033</ele>
        <time>2019-03-24T08:48:04Z</time>
      </trkpt>
      <trkpt lat="42.90938" lon="0.19479">
        <ele>2036</ele>
        <time>2019-03-24T08:48:21Z</time>
      </trkpt>
      <trkpt lat="42.90932" lon="0.19472">
        <ele>2037</ele>
        <time>2019-03-24T08:48:36Z</time>
      </trkpt>
      <trkpt lat="42.90922" lon="0.19464">
        <ele>2040</ele>
        <time>2019-03-24T08:48:54Z</time>
      </trkpt>
      <trkpt lat="42.90914" lon="0.1946">
        <ele>2042</ele>
        <time>2019-03-24T08:49:11Z</time>
      </trkpt>
      <trkpt lat="42.90903" lon="0.1946">
        <ele>2044</ele>
        <time>2019-03-24T08:49:28Z</time>
      </trkpt>
      <trkpt lat="42.90894" lon="0.19458">
        <ele>2046</ele>
        <time>2019-03-24T08:49:43Z</time>
      </trkpt>
      <trkpt lat="42.90892" lon="0.19446">
        <ele>2048</ele>
        <time>2019-03-24T08:49:56Z</time>
      </trkpt>
      <trkpt lat="42.9089" lon="0.19436">
        <ele>2051</ele>
        <time>2019-03-24T08:50:12Z</time>
      </trkpt>
      <trkpt lat="42.90884" lon="0.19429">
        <ele>2052</ele>
        <time>2019-03-24T08:50:26Z</time>
      </trkpt>
      <trkpt lat="42.90878" lon="0.1942">
        <ele>2053</ele>
        <time>2019-03-24T08:50:41Z</time>
      </trkpt>
      <trkpt lat="42.90874" lon="0.1941">
        <ele>2056</ele>
        <time>2019-03-24T08:50:56Z</time>
      </trkpt>
      <trkpt lat="42.90871" lon="0.19399">
        <ele>2058</ele>
        <time>2019-03-24T08:51:10Z</time>
      </trkpt>
      <trkpt lat="42.90868" lon="0.19387">
        <ele>2061</ele>
        <time>2019-03-24T08:51:25Z</time>
      </trkpt>
      <trkpt lat="42.90863" lon="0.19377">
        <ele>2062</ele>
        <time>2019-03-24T08:51:38Z</time>
      </trkpt>
      <trkpt lat="42.90858" lon="0.19367">
        <ele>2064</ele>
        <time>2019-03-24T08:51:52Z</time>
      </trkpt>
      <trkpt lat="42.90852" lon="0.19356">
        <ele>2066</ele>
        <time>2019-03-24T08:52:05Z</time>
      </trkpt>
      <trkpt lat="42.90844" lon="0.19351">
        <ele>2068</ele>
        <time>2019-03-24T08:52:20Z</time>
      </trkpt>
      <trkpt lat="42.90834" lon="0.19343">
        <ele>2069</ele>
        <time>2019-03-24T08:52:36Z</time>
      </trkpt>
      <trkpt lat="42.90825" lon="0.19334">
        <ele>2071</ele>
        <time>2019-03-24T08:52:53Z</time>
      </trkpt>
      <trkpt lat="42.90816" lon="0.1933">
        <ele>2073</ele>
        <time>2019-03-24T08:53:08Z</time>
      </trkpt>
      <trkpt lat="42.90803" lon="0.19328">
        <ele>2076</ele>
        <time>2019-03-24T08:53:26Z</time>
      </trkpt>
      <trkpt lat="42.90792" lon="0.19329">
        <ele>2077</ele>
        <time>2019-03-24T08:53:41Z</time>
      </trkpt>
      <trkpt lat="42.90783" lon="0.19333">
        <ele>2080</ele>
        <time>2019-03-24T08:53:59Z</time>
      </trkpt>
      <trkpt lat="42.90775" lon="0.19341">
        <ele>2081</ele>
        <time>2019-03-24T08:54:15Z</time>
      </trkpt>
      <trkpt lat="42.90767" lon="0.19348">
        <ele>2083</ele>
        <time>2019-03-24T08:54:30Z</time>
      </trkpt>
      <trkpt lat="42.90762" lon="0.19352">
        <ele>2084</ele>
        <time>2019-03-24T08:54:43Z</time>
      </trkpt>
      <trkpt lat="42.90756" lon="0.19362">
        <ele>2088</ele>
        <time>2019-03-24T08:55:01Z</time>
      </trkpt>
      <trkpt lat="42.90752" lon="0.19373">
        <ele>2090</ele>
        <time>2019-03-24T08:55:19Z</time>
      </trkpt>
      <trkpt lat="42.90748" lon="0.19372">
        <ele>2090</ele>
        <time>2019-03-24T08:55:38Z</time>
      </trkpt>
      <trkpt lat="42.90746" lon="0.1936">
        <ele>2092</ele>
        <time>2019-03-24T08:55:51Z</time>
      </trkpt>
      <trkpt lat="42.90745" lon="0.19354">
        <ele>2093</ele>
        <time>2019-03-24T08:56:05Z</time>
      </trkpt>
      <trkpt lat="42.90743" lon="0.19364">
        <ele>2095</ele>
        <time>2019-03-24T08:56:20Z</time>
      </trkpt>
      <trkpt lat="42.90741" lon="0.19374">
        <ele>2097</ele>
        <time>2019-03-24T08:56:34Z</time>
      </trkpt>
      <trkpt lat="42.90741" lon="0.19385">
        <ele>2100</ele>
        <time>2019-03-24T08:56:49Z</time>
      </trkpt>
      <trkpt lat="42.90734" lon="0.19381">
        <ele>2100</ele>
        <time>2019-03-24T08:57:05Z</time>
      </trkpt>
      <trkpt lat="42.90731" lon="0.19371">
        <ele>2101</ele>
        <time>2019-03-24T08:57:17Z</time>
      </trkpt>
      <trkpt lat="42.90727" lon="0.1936">
        <ele>2103</ele>
        <time>2019-03-24T08:57:33Z</time>
      </trkpt>
      <trkpt lat="42.90728" lon="0.19368">
        <ele>2104</ele>
        <time>2019-03-24T08:57:48Z</time>
      </trkpt>
      <trkpt lat="42.90729" lon="0.19378">
        <ele>2106</ele>
        <time>2019-03-24T08:58:01Z</time>
      </trkpt>
      <trkpt lat="42.90723" lon="0.19375">
        <ele>2106</ele>
        <time>2019-03-24T08:58:17Z</time>
      </trkpt>
      <trkpt lat="42.90722" lon="0.19367">
        <ele>2107</ele>
        <time>2019-03-24T08:58:38Z</time>
      </trkpt>
      <trkpt lat="42.90721" lon="0.19362">
        <ele>2108</ele>
        <time>2019-03-24T08:58:42Z</time>
      </trkpt>
      <trkpt lat="42.90718" lon="0.19355">
        <ele>2109</ele>
        <time>2019-03-24T08:58:54Z</time>
      </trkpt>
      <trkpt lat="42.90719" lon="0.19349">
        <ele>2111</ele>
        <time>2019-03-24T08:59:07Z</time>
      </trkpt>
      <trkpt lat="42.90718" lon="0.19358">
        <ele>2112</ele>
        <time>2019-03-24T08:59:24Z</time>
      </trkpt>
      <trkpt lat="42.90718" lon="0.1936">
        <ele>2113</ele>
        <time>2019-03-24T08:59:40Z</time>
      </trkpt>
      <trkpt lat="42.90713" lon="0.19353">
        <ele>2114</ele>
        <time>2019-03-24T08:59:53Z</time>
      </trkpt>
      <trkpt lat="42.90713" lon="0.19345">
        <ele>2115</ele>
        <time>2019-03-24T09:00:05Z</time>
      </trkpt>
      <trkpt lat="42.90714" lon="0.19338">
        <ele>2117</ele>
        <time>2019-03-24T09:00:17Z</time>
      </trkpt>
      <trkpt lat="42.90716" lon="0.19335">
        <ele>2118</ele>
        <time>2019-03-24T09:00:29Z</time>
      </trkpt>
      <trkpt lat="42.90718" lon="0.19335">
        <ele>2118</ele>
        <time>2019-03-24T09:00:46Z</time>
      </trkpt>
      <trkpt lat="42.90717" lon="0.19334">
        <ele>2120</ele>
        <time>2019-03-24T09:01:03Z</time>
      </trkpt>
      <trkpt lat="42.90723" lon="0.19335">
        <ele>2120</ele>
        <time>2019-03-24T09:01:21Z</time>
      </trkpt>
      <trkpt lat="42.9072" lon="0.19345">
        <ele>2121</ele>
        <time>2019-03-24T09:01:38Z</time>
      </trkpt>
      <trkpt lat="42.90708" lon="0.19348">
        <ele>2123</ele>
        <time>2019-03-24T09:01:56Z</time>
      </trkpt>
      <trkpt lat="42.90706" lon="0.19357">
        <ele>2124</ele>
        <time>2019-03-24T09:02:09Z</time>
      </trkpt>
      <trkpt lat="42.90705" lon="0.19367">
        <ele>2125</ele>
        <time>2019-03-24T09:02:24Z</time>
      </trkpt>
      <trkpt lat="42.90706" lon="0.19367">
        <ele>2126</ele>
        <time>2019-03-24T09:02:49Z</time>
      </trkpt>
      <trkpt lat="42.90699" lon="0.19361">
        <ele>2126</ele>
        <time>2019-03-24T09:03:07Z</time>
      </trkpt>
      <trkpt lat="42.90699" lon="0.19355">
        <ele>2127</ele>
        <time>2019-03-24T09:03:34Z</time>
      </trkpt>
      <trkpt lat="42.90699" lon="0.19358">
        <ele>2128</ele>
        <time>2019-03-24T09:03:51Z</time>
      </trkpt>
      <trkpt lat="42.90695" lon="0.19368">
        <ele>2130</ele>
        <time>2019-03-24T09:04:05Z</time>
      </trkpt>
      <trkpt lat="42.90688" lon="0.19374">
        <ele>2133</ele>
        <time>2019-03-24T09:04:20Z</time>
      </trkpt>
      <trkpt lat="42.90678" lon="0.19377">
        <ele>2135</ele>
        <time>2019-03-24T09:04:35Z</time>
      </trkpt>
      <trkpt lat="42.90667" lon="0.19382">
        <ele>2137</ele>
        <time>2019-03-24T09:04:48Z</time>
      </trkpt>
      <trkpt lat="42.90659" lon="0.19383">
        <ele>2138</ele>
        <time>2019-03-24T09:05:01Z</time>
      </trkpt>
      <trkpt lat="42.90654" lon="0.19383">
        <ele>2138</ele>
        <time>2019-03-24T09:05:16Z</time>
      </trkpt>
      <trkpt lat="42.90639" lon="0.19386">
        <ele>2139</ele>
        <time>2019-03-24T09:05:30Z</time>
      </trkpt>
      <trkpt lat="42.90634" lon="0.19387">
        <ele>2140</ele>
        <time>2019-03-24T09:05:35Z</time>
      </trkpt>
      <trkpt lat="42.90624" lon="0.19387">
        <ele>2139</ele>
        <time>2019-03-24T09:05:48Z</time>
      </trkpt>
      <trkpt lat="42.90616" lon="0.1939">
        <ele>2141</ele>
        <time>2019-03-24T09:06:00Z</time>
      </trkpt>
      <trkpt lat="42.90605" lon="0.1939">
        <ele>2143</ele>
        <time>2019-03-24T09:06:15Z</time>
      </trkpt>
      <trkpt lat="42.90603" lon="0.19385">
        <ele>2146</ele>
        <time>2019-03-24T09:06:31Z</time>
      </trkpt>
      <trkpt lat="42.90594" lon="0.19383">
        <ele>2147</ele>
        <time>2019-03-24T09:06:48Z</time>
      </trkpt>
      <trkpt lat="42.90592" lon="0.19382">
        <ele>2147</ele>
        <time>2019-03-24T09:06:51Z</time>
      </trkpt>
      <trkpt lat="42.90583" lon="0.19378">
        <ele>2149</ele>
        <time>2019-03-24T09:07:08Z</time>
      </trkpt>
      <trkpt lat="42.90572" lon="0.19369">
        <ele>2149</ele>
        <time>2019-03-24T09:07:24Z</time>
      </trkpt>
      <trkpt lat="42.90561" lon="0.19364">
        <ele>2150</ele>
        <time>2019-03-24T09:07:41Z</time>
      </trkpt>
      <trkpt lat="42.90565" lon="0.19361">
        <ele>2150</ele>
        <time>2019-03-24T09:07:57Z</time>
      </trkpt>
      <trkpt lat="42.90567" lon="0.19357">
        <ele>2150</ele>
        <time>2019-03-24T09:08:16Z</time>
      </trkpt>
      <trkpt lat="42.90569" lon="0.19356">
        <ele>2150</ele>
        <time>2019-03-24T09:08:18Z</time>
      </trkpt>
      <trkpt lat="42.90575" lon="0.19357">
        <ele>2148</ele>
        <time>2019-03-24T09:08:34Z</time>
      </trkpt>
      <trkpt lat="42.90575" lon="0.19355">
        <ele>2149</ele>
        <time>2019-03-24T09:09:00Z</time>
      </trkpt>
      <trkpt lat="42.90573" lon="0.19355">
        <ele>2149</ele>
        <time>2019-03-24T09:09:27Z</time>
      </trkpt>
      <trkpt lat="42.90579" lon="0.19353">
        <ele>2149</ele>
        <time>2019-03-24T09:09:57Z</time>
      </trkpt>
      <trkpt lat="42.90579" lon="0.19352">
        <ele>2149</ele>
        <time>2019-03-24T09:10:23Z</time>
      </trkpt>
      <trkpt lat="42.90584" lon="0.19353">
        <ele>2150</ele>
        <time>2019-03-24T09:10:58Z</time>
      </trkpt>
      <trkpt lat="42.90584" lon="0.19357">
        <ele>2149</ele>
        <time>2019-03-24T09:11:25Z</time>
      </trkpt>
      <trkpt lat="42.90586" lon="0.19354">
        <ele>2149</ele>
        <time>2019-03-24T09:11:55Z</time>
      </trkpt>
      <trkpt lat="42.90576" lon="0.19355">
        <ele>2149</ele>
        <time>2019-03-24T09:12:26Z</time>
      </trkpt>
      <trkpt lat="42.90586" lon="0.19356">
        <ele>2149</ele>
        <time>2019-03-24T09:12:48Z</time>
      </trkpt>
      <trkpt lat="42.90605" lon="0.19358">
        <ele>2149</ele>
        <time>2019-03-24T09:13:11Z</time>
      </trkpt>
      <trkpt lat="42.90652" lon="0.19368">
        <ele>2149</ele>
        <time>2019-03-24T09:13:36Z</time>
      </trkpt>
      <trkpt lat="42.90637" lon="0.19362">
        <ele>2149</ele>
        <time>2019-03-24T09:14:05Z</time>
      </trkpt>
      <trkpt lat="42.90635" lon="0.1936">
        <ele>2149</ele>
        <time>2019-03-24T09:14:40Z</time>
      </trkpt>
      <trkpt lat="42.90623" lon="0.19355">
        <ele>2150</ele>
        <time>2019-03-24T09:15:11Z</time>
      </trkpt>
      <trkpt lat="42.90618" lon="0.19361">
        <ele>2150</ele>
        <time>2019-03-24T09:15:42Z</time>
      </trkpt>
      <trkpt lat="42.9062" lon="0.19363">
        <ele>2150</ele>
        <time>2019-03-24T09:16:06Z</time>
      </trkpt>
      <trkpt lat="42.90623" lon="0.19367">
        <ele>2151</ele>
        <time>2019-03-24T09:16:26Z</time>
      </trkpt>
      <trkpt lat="42.90645" lon="0.19362">
        <ele>2151</ele>
        <time>2019-03-24T09:16:47Z</time>
      </trkpt>
      <trkpt lat="42.90647" lon="0.19362">
        <ele>2150</ele>
        <time>2019-03-24T09:16:49Z</time>
      </trkpt>
      <trkpt lat="42.90649" lon="0.19362">
        <ele>2152</ele>
        <time>2019-03-24T09:16:50Z</time>
      </trkpt>
      <trkpt lat="42.90608" lon="0.19367">
        <ele>2151</ele>
        <time>2019-03-24T09:17:09Z</time>
      </trkpt>
      <trkpt lat="42.90597" lon="0.19365">
        <ele>2150</ele>
        <time>2019-03-24T09:17:17Z</time>
      </trkpt>
      <trkpt lat="42.90606" lon="0.19359">
        <ele>2152</ele>
        <time>2019-03-24T09:17:25Z</time>
      </trkpt>
      <trkpt lat="42.90613" lon="0.19359">
        <ele>2153</ele>
        <time>2019-03-24T09:17:37Z</time>
      </trkpt>
      <trkpt lat="42.90614" lon="0.19362">
        <ele>2152</ele>
        <time>2019-03-24T09:17:53Z</time>
      </trkpt>
      <trkpt lat="42.9061" lon="0.19367">
        <ele>2154</ele>
        <time>2019-03-24T09:18:08Z</time>
      </trkpt>
      <trkpt lat="42.90602" lon="0.19373">
        <ele>2156</ele>
        <time>2019-03-24T09:18:22Z</time>
      </trkpt>
      <trkpt lat="42.90588" lon="0.19378">
        <ele>2158</ele>
        <time>2019-03-24T09:18:34Z</time>
      </trkpt>
      <trkpt lat="42.90566" lon="0.19386">
        <ele>2159</ele>
        <time>2019-03-24T09:18:45Z</time>
      </trkpt>
      <trkpt lat="42.90551" lon="0.19392">
        <ele>2162</ele>
        <time>2019-03-24T09:19:00Z</time>
      </trkpt>
      <trkpt lat="42.90535" lon="0.19396">
        <ele>2164</ele>
        <time>2019-03-24T09:19:16Z</time>
      </trkpt>
      <trkpt lat="42.90531" lon="0.19396">
        <ele>2165</ele>
        <time>2019-03-24T09:19:29Z</time>
      </trkpt>
      <trkpt lat="42.90535" lon="0.19399">
        <ele>2167</ele>
        <time>2019-03-24T09:19:38Z</time>
      </trkpt>
      <trkpt lat="42.90523" lon="0.19398">
        <ele>2167</ele>
        <time>2019-03-24T09:19:55Z</time>
      </trkpt>
      <trkpt lat="42.90523" lon="0.19406">
        <ele>2168</ele>
        <time>2019-03-24T09:20:18Z</time>
      </trkpt>
      <trkpt lat="42.90517" lon="0.19415">
        <ele>2171</ele>
        <time>2019-03-24T09:20:34Z</time>
      </trkpt>
      <trkpt lat="42.9051" lon="0.19427">
        <ele>2173</ele>
        <time>2019-03-24T09:20:50Z</time>
      </trkpt>
      <trkpt lat="42.90498" lon="0.19421">
        <ele>2175</ele>
        <time>2019-03-24T09:21:05Z</time>
      </trkpt>
      <trkpt lat="42.90489" lon="0.19418">
        <ele>2177</ele>
        <time>2019-03-24T09:21:19Z</time>
      </trkpt>
      <trkpt lat="42.9049" lon="0.19421">
        <ele>2179</ele>
        <time>2019-03-24T09:21:36Z</time>
      </trkpt>
      <trkpt lat="42.90491" lon="0.19434">
        <ele>2181</ele>
        <time>2019-03-24T09:21:55Z</time>
      </trkpt>
      <trkpt lat="42.9049" lon="0.1944">
        <ele>2183</ele>
        <time>2019-03-24T09:22:15Z</time>
      </trkpt>
      <trkpt lat="42.90476" lon="0.19437">
        <ele>2186</ele>
        <time>2019-03-24T09:22:32Z</time>
      </trkpt>
      <trkpt lat="42.90465" lon="0.19437">
        <ele>2188</ele>
        <time>2019-03-24T09:22:49Z</time>
      </trkpt>
      <trkpt lat="42.90457" lon="0.19437">
        <ele>2191</ele>
        <time>2019-03-24T09:23:05Z</time>
      </trkpt>
      <trkpt lat="42.9046" lon="0.19445">
        <ele>2192</ele>
        <time>2019-03-24T09:23:20Z</time>
      </trkpt>
      <trkpt lat="42.90455" lon="0.19445">
        <ele>2194</ele>
        <time>2019-03-24T09:23:31Z</time>
      </trkpt>
      <trkpt lat="42.90446" lon="0.19441">
        <ele>2195</ele>
        <time>2019-03-24T09:23:41Z</time>
      </trkpt>
      <trkpt lat="42.90443" lon="0.19431">
        <ele>2196</ele>
        <time>2019-03-24T09:23:55Z</time>
      </trkpt>
      <trkpt lat="42.90443" lon="0.19421">
        <ele>2198</ele>
        <time>2019-03-24T09:24:08Z</time>
      </trkpt>
      <trkpt lat="42.9044" lon="0.19425">
        <ele>2201</ele>
        <time>2019-03-24T09:24:22Z</time>
      </trkpt>
      <trkpt lat="42.90437" lon="0.19426">
        <ele>2201</ele>
        <time>2019-03-24T09:24:43Z</time>
      </trkpt>
      <trkpt lat="42.90435" lon="0.19432">
        <ele>2203</ele>
        <time>2019-03-24T09:25:05Z</time>
      </trkpt>
      <trkpt lat="42.90433" lon="0.19436">
        <ele>2203</ele>
        <time>2019-03-24T09:25:20Z</time>
      </trkpt>
      <trkpt lat="42.90432" lon="0.19433">
        <ele>2203</ele>
        <time>2019-03-24T09:25:23Z</time>
      </trkpt>
      <trkpt lat="42.90427" lon="0.19428">
        <ele>2205</ele>
        <time>2019-03-24T09:25:37Z</time>
      </trkpt>
      <trkpt lat="42.90422" lon="0.19419">
        <ele>2208</ele>
        <time>2019-03-24T09:25:51Z</time>
      </trkpt>
      <trkpt lat="42.90417" lon="0.19411">
        <ele>2210</ele>
        <time>2019-03-24T09:26:06Z</time>
      </trkpt>
      <trkpt lat="42.90415" lon="0.19411">
        <ele>2211</ele>
        <time>2019-03-24T09:26:21Z</time>
      </trkpt>
      <trkpt lat="42.90416" lon="0.19419">
        <ele>2212</ele>
        <time>2019-03-24T09:26:38Z</time>
      </trkpt>
      <trkpt lat="42.90413" lon="0.19425">
        <ele>2214</ele>
        <time>2019-03-24T09:27:05Z</time>
      </trkpt>
      <trkpt lat="42.9041" lon="0.19428">
        <ele>2215</ele>
        <time>2019-03-24T09:27:22Z</time>
      </trkpt>
      <trkpt lat="42.90405" lon="0.19422">
        <ele>2216</ele>
        <time>2019-03-24T09:27:33Z</time>
      </trkpt>
      <trkpt lat="42.90405" lon="0.19414">
        <ele>2217</ele>
        <time>2019-03-24T09:27:42Z</time>
      </trkpt>
      <trkpt lat="42.90405" lon="0.19412">
        <ele>2218</ele>
        <time>2019-03-24T09:27:44Z</time>
      </trkpt>
      <trkpt lat="42.90402" lon="0.19402">
        <ele>2219</ele>
        <time>2019-03-24T09:27:57Z</time>
      </trkpt>
      <trkpt lat="42.90406" lon="0.19404">
        <ele>2220</ele>
        <time>2019-03-24T09:28:14Z</time>
      </trkpt>
      <trkpt lat="42.90411" lon="0.19407">
        <ele>2219</ele>
        <time>2019-03-24T09:28:42Z</time>
      </trkpt>
      <trkpt lat="42.9041" lon="0.19407">
        <ele>2219</ele>
        <time>2019-03-24T09:29:03Z</time>
      </trkpt>
      <trkpt lat="42.90406" lon="0.19416">
        <ele>2221</ele>
        <time>2019-03-24T09:29:19Z</time>
      </trkpt>
      <trkpt lat="42.90406" lon="0.19423">
        <ele>2222</ele>
        <time>2019-03-24T09:29:36Z</time>
      </trkpt>
      <trkpt lat="42.90396" lon="0.19423">
        <ele>2222</ele>
        <time>2019-03-24T09:29:49Z</time>
      </trkpt>
      <trkpt lat="42.90394" lon="0.19413">
        <ele>2224</ele>
        <time>2019-03-24T09:30:03Z</time>
      </trkpt>
      <trkpt lat="42.90392" lon="0.19407">
        <ele>2225</ele>
        <time>2019-03-24T09:30:17Z</time>
      </trkpt>
      <trkpt lat="42.90393" lon="0.19416">
        <ele>2226</ele>
        <time>2019-03-24T09:30:28Z</time>
      </trkpt>
      <trkpt lat="42.90394" lon="0.19424">
        <ele>2228</ele>
        <time>2019-03-24T09:30:45Z</time>
      </trkpt>
      <trkpt lat="42.90392" lon="0.19433">
        <ele>2230</ele>
        <time>2019-03-24T09:31:01Z</time>
      </trkpt>
      <trkpt lat="42.90392" lon="0.19435">
        <ele>2232</ele>
        <time>2019-03-24T09:31:04Z</time>
      </trkpt>
      <trkpt lat="42.9039" lon="0.19445">
        <ele>2234</ele>
        <time>2019-03-24T09:31:20Z</time>
      </trkpt>
      <trkpt lat="42.90383" lon="0.1944">
        <ele>2234</ele>
        <time>2019-03-24T09:31:38Z</time>
      </trkpt>
      <trkpt lat="42.9038" lon="0.19433">
        <ele>2236</ele>
        <time>2019-03-24T09:31:50Z</time>
      </trkpt>
      <trkpt lat="42.90376" lon="0.19424">
        <ele>2237</ele>
        <time>2019-03-24T09:32:04Z</time>
      </trkpt>
      <trkpt lat="42.90378" lon="0.19421">
        <ele>2239</ele>
        <time>2019-03-24T09:32:18Z</time>
      </trkpt>
      <trkpt lat="42.90383" lon="0.19425">
        <ele>2240</ele>
        <time>2019-03-24T09:32:31Z</time>
      </trkpt>
      <trkpt lat="42.90379" lon="0.19439">
        <ele>2241</ele>
        <time>2019-03-24T09:32:50Z</time>
      </trkpt>
      <trkpt lat="42.90381" lon="0.19449">
        <ele>2245</ele>
        <time>2019-03-24T09:33:08Z</time>
      </trkpt>
      <trkpt lat="42.90381" lon="0.19459">
        <ele>2247</ele>
        <time>2019-03-24T09:33:23Z</time>
      </trkpt>
      <trkpt lat="42.90382" lon="0.19471">
        <ele>2250</ele>
        <time>2019-03-24T09:33:41Z</time>
      </trkpt>
      <trkpt lat="42.90383" lon="0.19481">
        <ele>2252</ele>
        <time>2019-03-24T09:33:55Z</time>
      </trkpt>
      <trkpt lat="42.90385" lon="0.1949">
        <ele>2255</ele>
        <time>2019-03-24T09:34:11Z</time>
      </trkpt>
      <trkpt lat="42.90389" lon="0.19497">
        <ele>2257</ele>
        <time>2019-03-24T09:34:28Z</time>
      </trkpt>
      <trkpt lat="42.90393" lon="0.19504">
        <ele>2258</ele>
        <time>2019-03-24T09:34:57Z</time>
      </trkpt>
      <trkpt lat="42.90394" lon="0.19515">
        <ele>2261</ele>
        <time>2019-03-24T09:35:14Z</time>
      </trkpt>
      <trkpt lat="42.90394" lon="0.19516">
        <ele>2261</ele>
        <time>2019-03-24T09:35:15Z</time>
      </trkpt>
      <trkpt lat="42.90396" lon="0.19526">
        <ele>2264</ele>
        <time>2019-03-24T09:35:32Z</time>
      </trkpt>
      <trkpt lat="42.90395" lon="0.19529">
        <ele>2265</ele>
        <time>2019-03-24T09:35:50Z</time>
      </trkpt>
      <trkpt lat="42.90388" lon="0.19525">
        <ele>2265</ele>
        <time>2019-03-24T09:36:06Z</time>
      </trkpt>
      <trkpt lat="42.90373" lon="0.1953">
        <ele>2268</ele>
        <time>2019-03-24T09:36:21Z</time>
      </trkpt>
      <trkpt lat="42.90366" lon="0.19527">
        <ele>2271</ele>
        <time>2019-03-24T09:36:35Z</time>
      </trkpt>
      <trkpt lat="42.90359" lon="0.19524">
        <ele>2273</ele>
        <time>2019-03-24T09:36:51Z</time>
      </trkpt>
      <trkpt lat="42.90353" lon="0.19519">
        <ele>2275</ele>
        <time>2019-03-24T09:37:06Z</time>
      </trkpt>
      <trkpt lat="42.90356" lon="0.19517">
        <ele>2276</ele>
        <time>2019-03-24T09:37:21Z</time>
      </trkpt>
      <trkpt lat="42.90357" lon="0.19516">
        <ele>2277</ele>
        <time>2019-03-24T09:37:36Z</time>
      </trkpt>
      <trkpt lat="42.90357" lon="0.19511">
        <ele>2276</ele>
        <time>2019-03-24T09:38:11Z</time>
      </trkpt>
      <trkpt lat="42.90366" lon="0.19511">
        <ele>2277</ele>
        <time>2019-03-24T09:38:42Z</time>
      </trkpt>
      <trkpt lat="42.90368" lon="0.19523">
        <ele>2279</ele>
        <time>2019-03-24T09:38:59Z</time>
      </trkpt>
      <trkpt lat="42.90373" lon="0.19535">
        <ele>2281</ele>
        <time>2019-03-24T09:39:18Z</time>
      </trkpt>
      <trkpt lat="42.90378" lon="0.19547">
        <ele>2284</ele>
        <time>2019-03-24T09:39:34Z</time>
      </trkpt>
      <trkpt lat="42.90378" lon="0.19548">
        <ele>2285</ele>
        <time>2019-03-24T09:39:36Z</time>
      </trkpt>
      <trkpt lat="42.90382" lon="0.19557">
        <ele>2287</ele>
        <time>2019-03-24T09:39:51Z</time>
      </trkpt>
      <trkpt lat="42.90385" lon="0.19562">
        <ele>2288</ele>
        <time>2019-03-24T09:40:08Z</time>
      </trkpt>
      <trkpt lat="42.90388" lon="0.19566">
        <ele>2289</ele>
        <time>2019-03-24T09:40:27Z</time>
      </trkpt>
      <trkpt lat="42.9039" lon="0.19573">
        <ele>2291</ele>
        <time>2019-03-24T09:40:41Z</time>
      </trkpt>
      <trkpt lat="42.90393" lon="0.19581">
        <ele>2293</ele>
        <time>2019-03-24T09:40:54Z</time>
      </trkpt>
      <trkpt lat="42.90394" lon="0.19588">
        <ele>2295</ele>
        <time>2019-03-24T09:41:08Z</time>
      </trkpt>
      <trkpt lat="42.90395" lon="0.19599">
        <ele>2298</ele>
        <time>2019-03-24T09:41:22Z</time>
      </trkpt>
      <trkpt lat="42.90395" lon="0.19606">
        <ele>2300</ele>
        <time>2019-03-24T09:41:38Z</time>
      </trkpt>
      <trkpt lat="42.90398" lon="0.19612">
        <ele>2302</ele>
        <time>2019-03-24T09:41:56Z</time>
      </trkpt>
      <trkpt lat="42.90397" lon="0.19615">
        <ele>2302</ele>
        <time>2019-03-24T09:42:15Z</time>
      </trkpt>
      <trkpt lat="42.90388" lon="0.19612">
        <ele>2305</ele>
        <time>2019-03-24T09:42:28Z</time>
      </trkpt>
      <trkpt lat="42.90388" lon="0.19609">
        <ele>2305</ele>
        <time>2019-03-24T09:42:44Z</time>
      </trkpt>
      <trkpt lat="42.90385" lon="0.19609">
        <ele>2307</ele>
        <time>2019-03-24T09:43:01Z</time>
      </trkpt>
      <trkpt lat="42.90377" lon="0.19607">
        <ele>2308</ele>
        <time>2019-03-24T09:43:16Z</time>
      </trkpt>
      <trkpt lat="42.90368" lon="0.19604">
        <ele>2311</ele>
        <time>2019-03-24T09:43:31Z</time>
      </trkpt>
      <trkpt lat="42.90367" lon="0.19604">
        <ele>2312</ele>
        <time>2019-03-24T09:43:47Z</time>
      </trkpt>
      <trkpt lat="42.90367" lon="0.19602">
        <ele>2312</ele>
        <time>2019-03-24T09:44:04Z</time>
      </trkpt>
      <trkpt lat="42.9037" lon="0.196">
        <ele>2312</ele>
        <time>2019-03-24T09:44:22Z</time>
      </trkpt>
      <trkpt lat="42.90374" lon="0.19602">
        <ele>2313</ele>
        <time>2019-03-24T09:44:45Z</time>
      </trkpt>
      <trkpt lat="42.90373" lon="0.19603">
        <ele>2314</ele>
        <time>2019-03-24T09:45:09Z</time>
      </trkpt>
      <trkpt lat="42.90373" lon="0.19605">
        <ele>2314</ele>
        <time>2019-03-24T09:45:28Z</time>
      </trkpt>
      <trkpt lat="42.90377" lon="0.1961">
        <ele>2314</ele>
        <time>2019-03-24T09:45:47Z</time>
      </trkpt>
      <trkpt lat="42.90376" lon="0.19611">
        <ele>2315</ele>
        <time>2019-03-24T09:46:05Z</time>
      </trkpt>
      <trkpt lat="42.90376" lon="0.19614">
        <ele>2315</ele>
        <time>2019-03-24T09:46:28Z</time>
      </trkpt>
      <trkpt lat="42.90376" lon="0.19616">
        <ele>2315</ele>
        <time>2019-03-24T09:46:44Z</time>
      </trkpt>
      <trkpt lat="42.90378" lon="0.19619">
        <ele>2315</ele>
        <time>2019-03-24T09:47:18Z</time>
      </trkpt>
      <trkpt lat="42.9038" lon="0.19618">
        <ele>2315</ele>
        <time>2019-03-24T09:47:55Z</time>
      </trkpt>
      <trkpt lat="42.90381" lon="0.19617">
        <ele>2315</ele>
        <time>2019-03-24T09:48:27Z</time>
      </trkpt>
      <trkpt lat="42.90374" lon="0.19622">
        <ele>2316</ele>
        <time>2019-03-24T09:48:48Z</time>
      </trkpt>
      <trkpt lat="42.90378" lon="0.19626">
        <ele>2317</ele>
        <time>2019-03-24T09:49:03Z</time>
      </trkpt>
      <trkpt lat="42.90378" lon="0.19628">
        <ele>2318</ele>
        <time>2019-03-24T09:49:23Z</time>
      </trkpt>
      <trkpt lat="42.9038" lon="0.19631">
        <ele>2319</ele>
        <time>2019-03-24T09:49:35Z</time>
      </trkpt>
      <trkpt lat="42.90379" lon="0.19638">
        <ele>2321</ele>
        <time>2019-03-24T09:49:48Z</time>
      </trkpt>
      <trkpt lat="42.90378" lon="0.19641">
        <ele>2321</ele>
        <time>2019-03-24T09:50:09Z</time>
      </trkpt>
      <trkpt lat="42.90373" lon="0.19645">
        <ele>2322</ele>
        <time>2019-03-24T09:50:31Z</time>
      </trkpt>
      <trkpt lat="42.90367" lon="0.19644">
        <ele>2323</ele>
        <time>2019-03-24T09:50:46Z</time>
      </trkpt>
      <trkpt lat="42.9037" lon="0.19646">
        <ele>2323</ele>
        <time>2019-03-24T09:51:03Z</time>
      </trkpt>
      <trkpt lat="42.90372" lon="0.19641">
        <ele>2324</ele>
        <time>2019-03-24T09:51:27Z</time>
      </trkpt>
      <trkpt lat="42.90374" lon="0.19647">
        <ele>2325</ele>
        <time>2019-03-24T09:51:47Z</time>
      </trkpt>
      <trkpt lat="42.90376" lon="0.19649">
        <ele>2326</ele>
        <time>2019-03-24T09:52:05Z</time>
      </trkpt>
      <trkpt lat="42.90377" lon="0.19652">
        <ele>2326</ele>
        <time>2019-03-24T09:52:18Z</time>
      </trkpt>
      <trkpt lat="42.9038" lon="0.19654">
        <ele>2327</ele>
        <time>2019-03-24T09:52:34Z</time>
      </trkpt>
      <trkpt lat="42.90382" lon="0.19653">
        <ele>2327</ele>
        <time>2019-03-24T09:52:50Z</time>
      </trkpt>
      <trkpt lat="42.90383" lon="0.19656">
        <ele>2327</ele>
        <time>2019-03-24T09:53:04Z</time>
      </trkpt>
      <trkpt lat="42.90381" lon="0.19659">
        <ele>2329</ele>
        <time>2019-03-24T09:53:20Z</time>
      </trkpt>
      <trkpt lat="42.90382" lon="0.19662">
        <ele>2330</ele>
        <time>2019-03-24T09:53:35Z</time>
      </trkpt>
      <trkpt lat="42.9038" lon="0.19662">
        <ele>2328</ele>
        <time>2019-03-24T09:53:45Z</time>
      </trkpt>
      <trkpt lat="42.90382" lon="0.19668">
        <ele>2330</ele>
        <time>2019-03-24T09:54:10Z</time>
      </trkpt>
      <trkpt lat="42.90383" lon="0.19662">
        <ele>2330</ele>
        <time>2019-03-24T09:54:26Z</time>
      </trkpt>
      <trkpt lat="42.90387" lon="0.19663">
        <ele>2331</ele>
        <time>2019-03-24T09:54:43Z</time>
      </trkpt>
      <trkpt lat="42.90391" lon="0.19668">
        <ele>2331</ele>
        <time>2019-03-24T09:54:55Z</time>
      </trkpt>
      <trkpt lat="42.90398" lon="0.19672">
        <ele>2333</ele>
        <time>2019-03-24T09:55:07Z</time>
      </trkpt>
      <trkpt lat="42.90398" lon="0.19677">
        <ele>2334</ele>
        <time>2019-03-24T09:55:19Z</time>
      </trkpt>
      <trkpt lat="42.90398" lon="0.19682">
        <ele>2333</ele>
        <time>2019-03-24T09:55:46Z</time>
      </trkpt>
      <trkpt lat="42.90393" lon="0.19684">
        <ele>2336</ele>
        <time>2019-03-24T09:56:01Z</time>
      </trkpt>
      <trkpt lat="42.90389" lon="0.19686">
        <ele>2337</ele>
        <time>2019-03-24T09:56:14Z</time>
      </trkpt>
      <trkpt lat="42.90383" lon="0.19688">
        <ele>2338</ele>
        <time>2019-03-24T09:56:34Z</time>
      </trkpt>
      <trkpt lat="42.90376" lon="0.19689">
        <ele>2340</ele>
        <time>2019-03-24T09:56:47Z</time>
      </trkpt>
      <trkpt lat="42.90372" lon="0.1969">
        <ele>2341</ele>
        <time>2019-03-24T09:57:01Z</time>
      </trkpt>
      <trkpt lat="42.90367" lon="0.19688">
        <ele>2343</ele>
        <time>2019-03-24T09:57:19Z</time>
      </trkpt>
      <trkpt lat="42.90364" lon="0.19687">
        <ele>2344</ele>
        <time>2019-03-24T09:57:33Z</time>
      </trkpt>
      <trkpt lat="42.90368" lon="0.19686">
        <ele>2344</ele>
        <time>2019-03-24T09:57:50Z</time>
      </trkpt>
      <trkpt lat="42.90368" lon="0.19681">
        <ele>2344</ele>
        <time>2019-03-24T09:58:22Z</time>
      </trkpt>
      <trkpt lat="42.9037" lon="0.19684">
        <ele>2344</ele>
        <time>2019-03-24T09:58:46Z</time>
      </trkpt>
      <trkpt lat="42.90377" lon="0.19682">
        <ele>2344</ele>
        <time>2019-03-24T09:59:22Z</time>
      </trkpt>
      <trkpt lat="42.90379" lon="0.19688">
        <ele>2344</ele>
        <time>2019-03-24T09:59:42Z</time>
      </trkpt>
      <trkpt lat="42.90382" lon="0.19697">
        <ele>2346</ele>
        <time>2019-03-24T09:59:56Z</time>
      </trkpt>
      <trkpt lat="42.90385" lon="0.19704">
        <ele>2348</ele>
        <time>2019-03-24T10:00:12Z</time>
      </trkpt>
      <trkpt lat="42.90389" lon="0.19711">
        <ele>2351</ele>
        <time>2019-03-24T10:00:27Z</time>
      </trkpt>
      <trkpt lat="42.90393" lon="0.19715">
        <ele>2352</ele>
        <time>2019-03-24T10:00:47Z</time>
      </trkpt>
      <trkpt lat="42.90396" lon="0.19719">
        <ele>2353</ele>
        <time>2019-03-24T10:01:01Z</time>
      </trkpt>
      <trkpt lat="42.90399" lon="0.1972">
        <ele>2352</ele>
        <time>2019-03-24T10:01:22Z</time>
      </trkpt>
      <trkpt lat="42.90397" lon="0.1972">
        <ele>2352</ele>
        <time>2019-03-24T10:01:42Z</time>
      </trkpt>
      <trkpt lat="42.90399" lon="0.19721">
        <ele>2352</ele>
        <time>2019-03-24T10:01:58Z</time>
      </trkpt>
      <trkpt lat="42.90397" lon="0.19727">
        <ele>2353</ele>
        <time>2019-03-24T10:02:17Z</time>
      </trkpt>
      <trkpt lat="42.904" lon="0.19724">
        <ele>2353</ele>
        <time>2019-03-24T10:02:33Z</time>
      </trkpt>
      <trkpt lat="42.904" lon="0.19722">
        <ele>2353</ele>
        <time>2019-03-24T10:02:49Z</time>
      </trkpt>
      <trkpt lat="42.904" lon="0.19728">
        <ele>2355</ele>
        <time>2019-03-24T10:03:02Z</time>
      </trkpt>
      <trkpt lat="42.90398" lon="0.19734">
        <ele>2359</ele>
        <time>2019-03-24T10:03:14Z</time>
      </trkpt>
      <trkpt lat="42.90394" lon="0.19738">
        <ele>2360</ele>
        <time>2019-03-24T10:03:29Z</time>
      </trkpt>
      <trkpt lat="42.90393" lon="0.1974">
        <ele>2360</ele>
        <time>2019-03-24T10:03:42Z</time>
      </trkpt>
      <trkpt lat="42.90391" lon="0.19741">
        <ele>2362</ele>
        <time>2019-03-24T10:04:01Z</time>
      </trkpt>
      <trkpt lat="42.90391" lon="0.19741">
        <ele>2361</ele>
        <time>2019-03-24T10:04:23Z</time>
      </trkpt>
      <trkpt lat="42.9039" lon="0.19736">
        <ele>2360</ele>
        <time>2019-03-24T10:04:35Z</time>
      </trkpt>
      <trkpt lat="42.9039" lon="0.19732">
        <ele>2357</ele>
        <time>2019-03-24T10:04:51Z</time>
      </trkpt>
      <trkpt lat="42.90391" lon="0.1973">
        <ele>2357</ele>
        <time>2019-03-24T10:05:17Z</time>
      </trkpt>
      <trkpt lat="42.90391" lon="0.1973">
        <ele>2357</ele>
        <time>2019-03-24T10:05:42Z</time>
      </trkpt>
      <trkpt lat="42.90392" lon="0.19731">
        <ele>2358</ele>
        <time>2019-03-24T10:05:58Z</time>
      </trkpt>
      <trkpt lat="42.90394" lon="0.19738">
        <ele>2360</ele>
        <time>2019-03-24T10:06:10Z</time>
      </trkpt>
      <trkpt lat="42.90392" lon="0.1974">
        <ele>2359</ele>
        <time>2019-03-24T10:06:27Z</time>
      </trkpt>
      <trkpt lat="42.90392" lon="0.1974">
        <ele>2361</ele>
        <time>2019-03-24T10:06:30Z</time>
      </trkpt>
      <trkpt lat="42.90392" lon="0.19739">
        <ele>2361</ele>
        <time>2019-03-24T10:06:53Z</time>
      </trkpt>
      <trkpt lat="42.90393" lon="0.1974">
        <ele>2362</ele>
        <time>2019-03-24T10:06:56Z</time>
      </trkpt>
      <trkpt lat="42.90393" lon="0.19741">
        <ele>2361</ele>
        <time>2019-03-24T10:07:13Z</time>
      </trkpt>
      <trkpt lat="42.90392" lon="0.19742">
        <ele>2362</ele>
        <time>2019-03-24T10:07:32Z</time>
      </trkpt>
      <trkpt lat="42.90391" lon="0.19742">
        <ele>2361</ele>
        <time>2019-03-24T10:08:10Z</time>
      </trkpt>
      <trkpt lat="42.90396" lon="0.19742">
        <ele>2361</ele>
        <time>2019-03-24T10:08:36Z</time>
      </trkpt>
      <trkpt lat="42.90397" lon="0.19742">
        <ele>2363</ele>
        <time>2019-03-24T10:08:51Z</time>
      </trkpt>
      <trkpt lat="42.90399" lon="0.19744">
        <ele>2362</ele>
        <time>2019-03-24T10:09:19Z</time>
      </trkpt>
      <trkpt lat="42.90405" lon="0.19749">
        <ele>2364</ele>
        <time>2019-03-24T10:09:33Z</time>
      </trkpt>
      <trkpt lat="42.90409" lon="0.19756">
        <ele>2367</ele>
        <time>2019-03-24T10:09:47Z</time>
      </trkpt>
      <trkpt lat="42.90413" lon="0.19762">
        <ele>2370</ele>
        <time>2019-03-24T10:10:01Z</time>
      </trkpt>
      <trkpt lat="42.90416" lon="0.1977">
        <ele>2372</ele>
        <time>2019-03-24T10:10:14Z</time>
      </trkpt>
      <trkpt lat="42.90422" lon="0.19778">
        <ele>2374</ele>
        <time>2019-03-24T10:10:30Z</time>
      </trkpt>
      <trkpt lat="42.90425" lon="0.1978">
        <ele>2375</ele>
        <time>2019-03-24T10:10:48Z</time>
      </trkpt>
      <trkpt lat="42.90426" lon="0.19776">
        <ele>2376</ele>
        <time>2019-03-24T10:11:00Z</time>
      </trkpt>
      <trkpt lat="42.90431" lon="0.19778">
        <ele>2377</ele>
        <time>2019-03-24T10:11:13Z</time>
      </trkpt>
      <trkpt lat="42.90435" lon="0.19779">
        <ele>2378</ele>
        <time>2019-03-24T10:11:26Z</time>
      </trkpt>
      <trkpt lat="42.90438" lon="0.19782">
        <ele>2380</ele>
        <time>2019-03-24T10:11:37Z</time>
      </trkpt>
      <trkpt lat="42.90439" lon="0.19784">
        <ele>2381</ele>
        <time>2019-03-24T10:11:50Z</time>
      </trkpt>
      <trkpt lat="42.90442" lon="0.19786">
        <ele>2383</ele>
        <time>2019-03-24T10:12:02Z</time>
      </trkpt>
      <trkpt lat="42.90445" lon="0.19788">
        <ele>2384</ele>
        <time>2019-03-24T10:12:18Z</time>
      </trkpt>
      <trkpt lat="42.90443" lon="0.19792">
        <ele>2385</ele>
        <time>2019-03-24T10:12:36Z</time>
      </trkpt>
      <trkpt lat="42.90444" lon="0.19795">
        <ele>2385</ele>
        <time>2019-03-24T10:12:56Z</time>
      </trkpt>
      <trkpt lat="42.90447" lon="0.19792">
        <ele>2385</ele>
        <time>2019-03-24T10:13:19Z</time>
      </trkpt>
      <trkpt lat="42.90446" lon="0.19792">
        <ele>2384</ele>
        <time>2019-03-24T10:13:39Z</time>
      </trkpt>
      <trkpt lat="42.90445" lon="0.1979">
        <ele>2385</ele>
        <time>2019-03-24T10:14:11Z</time>
      </trkpt>
      <trkpt lat="42.90445" lon="0.19791">
        <ele>2384</ele>
        <time>2019-03-24T10:14:35Z</time>
      </trkpt>
      <trkpt lat="42.90445" lon="0.19793">
        <ele>2383</ele>
        <time>2019-03-24T10:14:53Z</time>
      </trkpt>
      <trkpt lat="42.90444" lon="0.19795">
        <ele>2384</ele>
        <time>2019-03-24T10:15:12Z</time>
      </trkpt>
      <trkpt lat="42.90444" lon="0.19794">
        <ele>2382</ele>
        <time>2019-03-24T10:15:31Z</time>
      </trkpt>
      <trkpt lat="42.90445" lon="0.19796">
        <ele>2382</ele>
        <time>2019-03-24T10:15:49Z</time>
      </trkpt>
      <trkpt lat="42.90446" lon="0.19802">
        <ele>2380</ele>
        <time>2019-03-24T10:16:06Z</time>
      </trkpt>
      <trkpt lat="42.90445" lon="0.19801">
        <ele>2379</ele>
        <time>2019-03-24T10:16:25Z</time>
      </trkpt>
      <trkpt lat="42.90444" lon="0.19801">
        <ele>2378</ele>
        <time>2019-03-24T10:16:44Z</time>
      </trkpt>
      <trkpt lat="42.90445" lon="0.19809">
        <ele>2377</ele>
        <time>2019-03-24T10:17:01Z</time>
      </trkpt>
      <trkpt lat="42.90447" lon="0.19813">
        <ele>2376</ele>
        <time>2019-03-24T10:17:16Z</time>
      </trkpt>
      <trkpt lat="42.90447" lon="0.19815">
        <ele>2376</ele>
        <time>2019-03-24T10:17:35Z</time>
      </trkpt>
      <trkpt lat="42.90449" lon="0.19819">
        <ele>2376</ele>
        <time>2019-03-24T10:17:53Z</time>
      </trkpt>
      <trkpt lat="42.90451" lon="0.19824">
        <ele>2374</ele>
        <time>2019-03-24T10:18:14Z</time>
      </trkpt>
      <trkpt lat="42.90455" lon="0.19828">
        <ele>2373</ele>
        <time>2019-03-24T10:18:31Z</time>
      </trkpt>
      <trkpt lat="42.90456" lon="0.19827">
        <ele>2372</ele>
        <time>2019-03-24T10:18:51Z</time>
      </trkpt>
      <trkpt lat="42.90457" lon="0.19829">
        <ele>2373</ele>
        <time>2019-03-24T10:19:05Z</time>
      </trkpt>
      <trkpt lat="42.90458" lon="0.1983">
        <ele>2372</ele>
        <time>2019-03-24T10:19:28Z</time>
      </trkpt>
      <trkpt lat="42.90458" lon="0.19833">
        <ele>2372</ele>
        <time>2019-03-24T10:19:49Z</time>
      </trkpt>
      <trkpt lat="42.90457" lon="0.19834">
        <ele>2371</ele>
        <time>2019-03-24T10:20:09Z</time>
      </trkpt>
      <trkpt lat="42.90456" lon="0.19835">
        <ele>2369</ele>
        <time>2019-03-24T10:20:26Z</time>
      </trkpt>
      <trkpt lat="42.9046" lon="0.1984">
        <ele>2369</ele>
        <time>2019-03-24T10:20:43Z</time>
      </trkpt>
      <trkpt lat="42.9046" lon="0.19844">
        <ele>2369</ele>
        <time>2019-03-24T10:21:06Z</time>
      </trkpt>
      <trkpt lat="42.9046" lon="0.19845">
        <ele>2370</ele>
        <time>2019-03-24T10:21:29Z</time>
      </trkpt>
      <trkpt lat="42.9046" lon="0.19842">
        <ele>2370</ele>
        <time>2019-03-24T10:21:54Z</time>
      </trkpt>
      <trkpt lat="42.90459" lon="0.19842">
        <ele>2371</ele>
        <time>2019-03-24T10:22:21Z</time>
      </trkpt>
      <trkpt lat="42.90467" lon="0.19845">
        <ele>2371</ele>
        <time>2019-03-24T10:22:37Z</time>
      </trkpt>
      <trkpt lat="42.90468" lon="0.19848">
        <ele>2373</ele>
        <time>2019-03-24T10:22:50Z</time>
      </trkpt>
      <trkpt lat="42.9047" lon="0.1985">
        <ele>2374</ele>
        <time>2019-03-24T10:23:04Z</time>
      </trkpt>
      <trkpt lat="42.90471" lon="0.19853">
        <ele>2376</ele>
        <time>2019-03-24T10:23:19Z</time>
      </trkpt>
      <trkpt lat="42.90471" lon="0.19858">
        <ele>2378</ele>
        <time>2019-03-24T10:23:32Z</time>
      </trkpt>
      <trkpt lat="42.90472" lon="0.19863">
        <ele>2380</ele>
        <time>2019-03-24T10:23:47Z</time>
      </trkpt>
      <trkpt lat="42.9047" lon="0.19866">
        <ele>2380</ele>
        <time>2019-03-24T10:24:01Z</time>
      </trkpt>
      <trkpt lat="42.90472" lon="0.19867">
        <ele>2380</ele>
        <time>2019-03-24T10:24:15Z</time>
      </trkpt>
      <trkpt lat="42.90472" lon="0.19868">
        <ele>2380</ele>
        <time>2019-03-24T10:24:42Z</time>
      </trkpt>
      <trkpt lat="42.90469" lon="0.19868">
        <ele>2380</ele>
        <time>2019-03-24T10:25:08Z</time>
      </trkpt>
      <trkpt lat="42.90471" lon="0.19867">
        <ele>2380</ele>
        <time>2019-03-24T10:25:40Z</time>
      </trkpt>
      <trkpt lat="42.90469" lon="0.19866">
        <ele>2380</ele>
        <time>2019-03-24T10:25:58Z</time>
      </trkpt>
      <trkpt lat="42.90469" lon="0.19868">
        <ele>2380</ele>
        <time>2019-03-24T10:26:24Z</time>
      </trkpt>
      <trkpt lat="42.90468" lon="0.19867">
        <ele>2381</ele>
        <time>2019-03-24T10:26:47Z</time>
      </trkpt>
      <trkpt lat="42.9047" lon="0.19867">
        <ele>2380</ele>
        <time>2019-03-24T10:27:15Z</time>
      </trkpt>
      <trkpt lat="42.9047" lon="0.19866">
        <ele>2380</ele>
        <time>2019-03-24T10:27:17Z</time>
      </trkpt>
      <trkpt lat="42.9047" lon="0.19863">
        <ele>2380</ele>
        <time>2019-03-24T10:27:33Z</time>
      </trkpt>
      <trkpt lat="42.90469" lon="0.19863">
        <ele>2379</ele>
        <time>2019-03-24T10:28:00Z</time>
      </trkpt>
      <trkpt lat="42.9047" lon="0.19865">
        <ele>2380</ele>
        <time>2019-03-24T10:28:27Z</time>
      </trkpt>
      <trkpt lat="42.9047" lon="0.19867">
        <ele>2380</ele>
        <time>2019-03-24T10:28:49Z</time>
      </trkpt>
      <trkpt lat="42.9047" lon="0.19865">
        <ele>2379</ele>
        <time>2019-03-24T10:29:26Z</time>
      </trkpt>
      <trkpt lat="42.9047" lon="0.19863">
        <ele>2380</ele>
        <time>2019-03-24T10:30:00Z</time>
      </trkpt>
      <trkpt lat="42.90469" lon="0.19866">
        <ele>2380</ele>
        <time>2019-03-24T10:30:35Z</time>
      </trkpt>
      <trkpt lat="42.90469" lon="0.19867">
        <ele>2379</ele>
        <time>2019-03-24T10:30:50Z</time>
      </trkpt>
      <trkpt lat="42.9047" lon="0.19866">
        <ele>2379</ele>
        <time>2019-03-24T10:31:22Z</time>
      </trkpt>
      <trkpt lat="42.90471" lon="0.19867">
        <ele>2379</ele>
        <time>2019-03-24T10:31:52Z</time>
      </trkpt>
      <trkpt lat="42.90469" lon="0.19867">
        <ele>2379</ele>
        <time>2019-03-24T10:32:25Z</time>
      </trkpt>
      <trkpt lat="42.90469" lon="0.19866">
        <ele>2379</ele>
        <time>2019-03-24T10:32:55Z</time>
      </trkpt>
      <trkpt lat="42.90469" lon="0.19867">
        <ele>2379</ele>
        <time>2019-03-24T10:33:25Z</time>
      </trkpt>
      <trkpt lat="42.90468" lon="0.19866">
        <ele>2379</ele>
        <time>2019-03-24T10:34:02Z</time>
      </trkpt>
      <trkpt lat="42.9047" lon="0.19867">
        <ele>2379</ele>
        <time>2019-03-24T10:34:32Z</time>
      </trkpt>
      <trkpt lat="42.9047" lon="0.19867">
        <ele>2380</ele>
        <time>2019-03-24T10:34:57Z</time>
      </trkpt>
      <trkpt lat="42.9047" lon="0.19866">
        <ele>2380</ele>
        <time>2019-03-24T10:35:31Z</time>
      </trkpt>
      <trkpt lat="42.90469" lon="0.19866">
        <ele>2380</ele>
        <time>2019-03-24T10:36:01Z</time>
      </trkpt>
      <trkpt lat="42.9047" lon="0.19866">
        <ele>2380</ele>
        <time>2019-03-24T10:36:38Z</time>
      </trkpt>
      <trkpt lat="42.90468" lon="0.19866">
        <ele>2380</ele>
        <time>2019-03-24T10:37:15Z</time>
      </trkpt>
      <trkpt lat="42.9047" lon="0.19866">
        <ele>2380</ele>
        <time>2019-03-24T10:37:51Z</time>
      </trkpt>
      <trkpt lat="42.90469" lon="0.19866">
        <ele>2380</ele>
        <time>2019-03-24T10:38:29Z</time>
      </trkpt>
      <trkpt lat="42.90469" lon="0.19866">
        <ele>2380</ele>
        <time>2019-03-24T10:38:59Z</time>
      </trkpt>
      <trkpt lat="42.90469" lon="0.19866">
        <ele>2380</ele>
        <time>2019-03-24T10:39:32Z</time>
      </trkpt>
      <trkpt lat="42.90469" lon="0.19866">
        <ele>2380</ele>
        <time>2019-03-24T10:40:11Z</time>
      </trkpt>
      <trkpt lat="42.90469" lon="0.19867">
        <ele>2380</ele>
        <time>2019-03-24T10:40:46Z</time>
      </trkpt>
      <trkpt lat="42.90469" lon="0.19866">
        <ele>2380</ele>
        <time>2019-03-24T10:41:18Z</time>
      </trkpt>
      <trkpt lat="42.90469" lon="0.19867">
        <ele>2380</ele>
        <time>2019-03-24T10:41:59Z</time>
      </trkpt>
      <trkpt lat="42.9047" lon="0.19867">
        <ele>2380</ele>
        <time>2019-03-24T10:42:39Z</time>
      </trkpt>
      <trkpt lat="42.9047" lon="0.19867">
        <ele>2380</ele>
        <time>2019-03-24T10:43:17Z</time>
      </trkpt>
      <trkpt lat="42.90469" lon="0.19866">
        <ele>2380</ele>
        <time>2019-03-24T10:43:51Z</time>
      </trkpt>
      <trkpt lat="42.90469" lon="0.19867">
        <ele>2380</ele>
        <time>2019-03-24T10:44:32Z</time>
      </trkpt>
      <trkpt lat="42.90469" lon="0.19867">
        <ele>2380</ele>
        <time>2019-03-24T10:45:10Z</time>
      </trkpt>
      <trkpt lat="42.90469" lon="0.19867">
        <ele>2380</ele>
        <time>2019-03-24T10:45:46Z</time>
      </trkpt>
      <trkpt lat="42.90469" lon="0.19866">
        <ele>2380</ele>
        <time>2019-03-24T10:46:20Z</time>
      </trkpt>
      <trkpt lat="42.90469" lon="0.19866">
        <ele>2380</ele>
        <time>2019-03-24T10:46:56Z</time>
      </trkpt>
      <trkpt lat="42.90469" lon="0.19867">
        <ele>2380</ele>
        <time>2019-03-24T10:47:26Z</time>
      </trkpt>
      <trkpt lat="42.9047" lon="0.19867">
        <ele>2380</ele>
        <time>2019-03-24T10:48:01Z</time>
      </trkpt>
      <trkpt lat="42.90469" lon="0.19867">
        <ele>2380</ele>
        <time>2019-03-24T10:48:28Z</time>
      </trkpt>
      <trkpt lat="42.90469" lon="0.19866">
        <ele>2380</ele>
        <time>2019-03-24T10:49:01Z</time>
      </trkpt>
      <trkpt lat="42.90469" lon="0.19865">
        <ele>2381</ele>
        <time>2019-03-24T10:49:39Z</time>
      </trkpt>
      <trkpt lat="42.90469" lon="0.19866">
        <ele>2381</ele>
        <time>2019-03-24T10:50:23Z</time>
      </trkpt>
      <trkpt lat="42.90469" lon="0.19867">
        <ele>2381</ele>
        <time>2019-03-24T10:50:57Z</time>
      </trkpt>
      <trkpt lat="42.9047" lon="0.19867">
        <ele>2380</ele>
        <time>2019-03-24T10:51:36Z</time>
      </trkpt>
      <trkpt lat="42.90469" lon="0.19867">
        <ele>2381</ele>
        <time>2019-03-24T10:52:10Z</time>
      </trkpt>
      <trkpt lat="42.90469" lon="0.19866">
        <ele>2381</ele>
        <time>2019-03-24T10:52:46Z</time>
      </trkpt>
      <trkpt lat="42.9047" lon="0.19866">
        <ele>2381</ele>
        <time>2019-03-24T10:53:16Z</time>
      </trkpt>
      <trkpt lat="42.90469" lon="0.19866">
        <ele>2381</ele>
        <time>2019-03-24T10:53:46Z</time>
      </trkpt>
      <trkpt lat="42.90469" lon="0.19867">
        <ele>2381</ele>
        <time>2019-03-24T10:54:10Z</time>
      </trkpt>
      <trkpt lat="42.9047" lon="0.19867">
        <ele>2381</ele>
        <time>2019-03-24T10:54:38Z</time>
      </trkpt>
      <trkpt lat="42.9047" lon="0.19867">
        <ele>2381</ele>
        <time>2019-03-24T10:55:09Z</time>
      </trkpt>
      <trkpt lat="42.90469" lon="0.19866">
        <ele>2381</ele>
        <time>2019-03-24T10:55:42Z</time>
      </trkpt>
      <trkpt lat="42.9047" lon="0.19867">
        <ele>2381</ele>
        <time>2019-03-24T10:56:39Z</time>
      </trkpt>
      <trkpt lat="42.9047" lon="0.19867">
        <ele>2381</ele>
        <time>2019-03-24T10:57:19Z</time>
      </trkpt>
      <trkpt lat="42.90469" lon="0.19867">
        <ele>2381</ele>
        <time>2019-03-24T10:57:52Z</time>
      </trkpt>
      <trkpt lat="42.9047" lon="0.19867">
        <ele>2382</ele>
        <time>2019-03-24T10:58:22Z</time>
      </trkpt>
      <trkpt lat="42.90469" lon="0.19867">
        <ele>2381</ele>
        <time>2019-03-24T10:59:04Z</time>
      </trkpt>
      <trkpt lat="42.9047" lon="0.19867">
        <ele>2381</ele>
        <time>2019-03-24T10:59:31Z</time>
      </trkpt>
      <trkpt lat="42.90469" lon="0.19867">
        <ele>2382</ele>
        <time>2019-03-24T11:00:03Z</time>
      </trkpt>
      <trkpt lat="42.90469" lon="0.19866">
        <ele>2382</ele>
        <time>2019-03-24T11:00:34Z</time>
      </trkpt>
      <trkpt lat="42.90469" lon="0.19866">
        <ele>2381</ele>
        <time>2019-03-24T11:00:58Z</time>
      </trkpt>
      <trkpt lat="42.90469" lon="0.19866">
        <ele>2382</ele>
        <time>2019-03-24T11:01:37Z</time>
      </trkpt>
      <trkpt lat="42.90468" lon="0.19867">
        <ele>2381</ele>
        <time>2019-03-24T11:02:13Z</time>
      </trkpt>
      <trkpt lat="42.90469" lon="0.19867">
        <ele>2381</ele>
        <time>2019-03-24T11:02:49Z</time>
      </trkpt>
      <trkpt lat="42.90469" lon="0.19867">
        <ele>2382</ele>
        <time>2019-03-24T11:03:23Z</time>
      </trkpt>
      <trkpt lat="42.9047" lon="0.19866">
        <ele>2381</ele>
        <time>2019-03-24T11:03:50Z</time>
      </trkpt>
      <trkpt lat="42.90469" lon="0.19867">
        <ele>2381</ele>
        <time>2019-03-24T11:04:11Z</time>
      </trkpt>
      <trkpt lat="42.90469" lon="0.19867">
        <ele>2381</ele>
        <time>2019-03-24T11:04:26Z</time>
      </trkpt>
      <trkpt lat="42.90471" lon="0.19867">
        <ele>2382</ele>
        <time>2019-03-24T11:04:51Z</time>
      </trkpt>
      <trkpt lat="42.9047" lon="0.19867">
        <ele>2382</ele>
        <time>2019-03-24T11:05:13Z</time>
      </trkpt>
      <trkpt lat="42.90469" lon="0.19866">
        <ele>2382</ele>
        <time>2019-03-24T11:05:39Z</time>
      </trkpt>
      <trkpt lat="42.90469" lon="0.19865">
        <ele>2382</ele>
        <time>2019-03-24T11:06:08Z</time>
      </trkpt>
      <trkpt lat="42.90468" lon="0.19865">
        <ele>2382</ele>
        <time>2019-03-24T11:06:49Z</time>
      </trkpt>
      <trkpt lat="42.90467" lon="0.19865">
        <ele>2382</ele>
        <time>2019-03-24T11:07:05Z</time>
      </trkpt>
      <trkpt lat="42.90468" lon="0.19863">
        <ele>2383</ele>
        <time>2019-03-24T11:07:17Z</time>
      </trkpt>
      <trkpt lat="42.90469" lon="0.19861">
        <ele>2382</ele>
        <time>2019-03-24T11:07:38Z</time>
      </trkpt>
      <trkpt lat="42.90471" lon="0.19866">
        <ele>2382</ele>
        <time>2019-03-24T11:07:54Z</time>
      </trkpt>
      <trkpt lat="42.90469" lon="0.1986">
        <ele>2382</ele>
        <time>2019-03-24T11:08:10Z</time>
      </trkpt>
      <trkpt lat="42.90468" lon="0.19858">
        <ele>2380</ele>
        <time>2019-03-24T11:08:23Z</time>
      </trkpt>
      <trkpt lat="42.90466" lon="0.19852">
        <ele>2378</ele>
        <time>2019-03-24T11:08:35Z</time>
      </trkpt>
      <trkpt lat="42.90466" lon="0.19849">
        <ele>2377</ele>
        <time>2019-03-24T11:08:49Z</time>
      </trkpt>
      <trkpt lat="42.90464" lon="0.19849">
        <ele>2376</ele>
        <time>2019-03-24T11:09:06Z</time>
      </trkpt>
      <trkpt lat="42.90462" lon="0.19847">
        <ele>2375</ele>
        <time>2019-03-24T11:09:20Z</time>
      </trkpt>
      <trkpt lat="42.90455" lon="0.19839">
        <ele>2372</ele>
        <time>2019-03-24T11:09:35Z</time>
      </trkpt>
      <trkpt lat="42.90456" lon="0.19833">
        <ele>2372</ele>
        <time>2019-03-24T11:09:49Z</time>
      </trkpt>
      <trkpt lat="42.90456" lon="0.1983">
        <ele>2370</ele>
        <time>2019-03-24T11:10:07Z</time>
      </trkpt>
      <trkpt lat="42.90453" lon="0.19827">
        <ele>2370</ele>
        <time>2019-03-24T11:10:26Z</time>
      </trkpt>
      <trkpt lat="42.90453" lon="0.19825">
        <ele>2372</ele>
        <time>2019-03-24T11:10:43Z</time>
      </trkpt>
      <trkpt lat="42.9045" lon="0.19823">
        <ele>2374</ele>
        <time>2019-03-24T11:10:57Z</time>
      </trkpt>
      <trkpt lat="42.90448" lon="0.19816">
        <ele>2376</ele>
        <time>2019-03-24T11:11:13Z</time>
      </trkpt>
      <trkpt lat="42.90446" lon="0.19815">
        <ele>2377</ele>
        <time>2019-03-24T11:11:26Z</time>
      </trkpt>
      <trkpt lat="42.90444" lon="0.19809">
        <ele>2378</ele>
        <time>2019-03-24T11:11:40Z</time>
      </trkpt>
      <trkpt lat="42.90444" lon="0.19803">
        <ele>2380</ele>
        <time>2019-03-24T11:11:55Z</time>
      </trkpt>
      <trkpt lat="42.90444" lon="0.19801">
        <ele>2381</ele>
        <time>2019-03-24T11:12:13Z</time>
      </trkpt>
      <trkpt lat="42.90443" lon="0.19799">
        <ele>2381</ele>
        <time>2019-03-24T11:12:29Z</time>
      </trkpt>
      <trkpt lat="42.90443" lon="0.19798">
        <ele>2383</ele>
        <time>2019-03-24T11:12:33Z</time>
      </trkpt>
      <trkpt lat="42.90442" lon="0.19796">
        <ele>2384</ele>
        <time>2019-03-24T11:12:49Z</time>
      </trkpt>
      <trkpt lat="42.90442" lon="0.19793">
        <ele>2386</ele>
        <time>2019-03-24T11:13:06Z</time>
      </trkpt>
      <trkpt lat="42.90442" lon="0.19791">
        <ele>2387</ele>
        <time>2019-03-24T11:13:18Z</time>
      </trkpt>
      <trkpt lat="42.90443" lon="0.1979">
        <ele>2386</ele>
        <time>2019-03-24T11:13:40Z</time>
      </trkpt>
      <trkpt lat="42.90438" lon="0.19789">
        <ele>2385</ele>
        <time>2019-03-24T11:13:56Z</time>
      </trkpt>
      <trkpt lat="42.90434" lon="0.19787">
        <ele>2386</ele>
        <time>2019-03-24T11:14:12Z</time>
      </trkpt>
      <trkpt lat="42.90431" lon="0.19786">
        <ele>2384</ele>
        <time>2019-03-24T11:14:26Z</time>
      </trkpt>
      <trkpt lat="42.9043" lon="0.19784">
        <ele>2383</ele>
        <time>2019-03-24T11:14:46Z</time>
      </trkpt>
      <trkpt lat="42.90429" lon="0.19785">
        <ele>2382</ele>
        <time>2019-03-24T11:14:53Z</time>
      </trkpt>
      <trkpt lat="42.90429" lon="0.19786">
        <ele>2381</ele>
        <time>2019-03-24T11:15:07Z</time>
      </trkpt>
      <trkpt lat="42.90424" lon="0.19782">
        <ele>2380</ele>
        <time>2019-03-24T11:15:21Z</time>
      </trkpt>
      <trkpt lat="42.90422" lon="0.19781">
        <ele>2377</ele>
        <time>2019-03-24T11:15:35Z</time>
      </trkpt>
      <trkpt lat="42.90422" lon="0.19781">
        <ele>2377</ele>
        <time>2019-03-24T11:15:36Z</time>
      </trkpt>
      <trkpt lat="42.90416" lon="0.19771">
        <ele>2374</ele>
        <time>2019-03-24T11:15:49Z</time>
      </trkpt>
      <trkpt lat="42.90417" lon="0.19768">
        <ele>2373</ele>
        <time>2019-03-24T11:16:01Z</time>
      </trkpt>
      <trkpt lat="42.90419" lon="0.1977">
        <ele>2374</ele>
        <time>2019-03-24T11:16:31Z</time>
      </trkpt>
      <trkpt lat="42.90419" lon="0.19769">
        <ele>2374</ele>
        <time>2019-03-24T11:16:53Z</time>
      </trkpt>
      <trkpt lat="42.9042" lon="0.19767">
        <ele>2374</ele>
        <time>2019-03-24T11:17:13Z</time>
      </trkpt>
      <trkpt lat="42.90418" lon="0.19768">
        <ele>2374</ele>
        <time>2019-03-24T11:17:34Z</time>
      </trkpt>
      <trkpt lat="42.90418" lon="0.19771">
        <ele>2374</ele>
        <time>2019-03-24T11:18:00Z</time>
      </trkpt>
      <trkpt lat="42.90416" lon="0.1977">
        <ele>2374</ele>
        <time>2019-03-24T11:18:14Z</time>
      </trkpt>
      <trkpt lat="42.90415" lon="0.19763">
        <ele>2372</ele>
        <time>2019-03-24T11:18:27Z</time>
      </trkpt>
      <trkpt lat="42.90408" lon="0.19756">
        <ele>2370</ele>
        <time>2019-03-24T11:18:40Z</time>
      </trkpt>
      <trkpt lat="42.90403" lon="0.19749">
        <ele>2367</ele>
        <time>2019-03-24T11:18:52Z</time>
      </trkpt>
      <trkpt lat="42.90396" lon="0.19745">
        <ele>2364</ele>
        <time>2019-03-24T11:19:06Z</time>
      </trkpt>
      <trkpt lat="42.9039" lon="0.19741">
        <ele>2363</ele>
        <time>2019-03-24T11:19:16Z</time>
      </trkpt>
      <trkpt lat="42.90391" lon="0.19739">
        <ele>2362</ele>
        <time>2019-03-24T11:19:29Z</time>
      </trkpt>
      <trkpt lat="42.90392" lon="0.19741">
        <ele>2363</ele>
        <time>2019-03-24T11:19:46Z</time>
      </trkpt>
      <trkpt lat="42.90393" lon="0.1974">
        <ele>2362</ele>
        <time>2019-03-24T11:20:01Z</time>
      </trkpt>
      <trkpt lat="42.90392" lon="0.19739">
        <ele>2362</ele>
        <time>2019-03-24T11:20:27Z</time>
      </trkpt>
      <trkpt lat="42.90392" lon="0.1974">
        <ele>2362</ele>
        <time>2019-03-24T11:20:53Z</time>
      </trkpt>
      <trkpt lat="42.90394" lon="0.19741">
        <ele>2361</ele>
        <time>2019-03-24T11:21:27Z</time>
      </trkpt>
      <trkpt lat="42.90392" lon="0.19739">
        <ele>2362</ele>
        <time>2019-03-24T11:21:54Z</time>
      </trkpt>
      <trkpt lat="42.90391" lon="0.19739">
        <ele>2361</ele>
        <time>2019-03-24T11:22:23Z</time>
      </trkpt>
      <trkpt lat="42.90392" lon="0.1974">
        <ele>2362</ele>
        <time>2019-03-24T11:22:51Z</time>
      </trkpt>
      <trkpt lat="42.90392" lon="0.19738">
        <ele>2362</ele>
        <time>2019-03-24T11:23:24Z</time>
      </trkpt>
      <trkpt lat="42.90392" lon="0.19739">
        <ele>2362</ele>
        <time>2019-03-24T11:24:00Z</time>
      </trkpt>
      <trkpt lat="42.90392" lon="0.19739">
        <ele>2362</ele>
        <time>2019-03-24T11:24:39Z</time>
      </trkpt>
      <trkpt lat="42.90392" lon="0.19739">
        <ele>2362</ele>
        <time>2019-03-24T11:25:15Z</time>
      </trkpt>
      <trkpt lat="42.90393" lon="0.19738">
        <ele>2362</ele>
        <time>2019-03-24T11:25:46Z</time>
      </trkpt>
      <trkpt lat="42.90393" lon="0.19741">
        <ele>2363</ele>
        <time>2019-03-24T11:26:24Z</time>
      </trkpt>
      <trkpt lat="42.90394" lon="0.19739">
        <ele>2362</ele>
        <time>2019-03-24T11:26:58Z</time>
      </trkpt>
      <trkpt lat="42.90393" lon="0.19741">
        <ele>2362</ele>
        <time>2019-03-24T11:27:36Z</time>
      </trkpt>
      <trkpt lat="42.90392" lon="0.19739">
        <ele>2361</ele>
        <time>2019-03-24T11:27:49Z</time>
      </trkpt>
      <trkpt lat="42.90394" lon="0.19741">
        <ele>2363</ele>
        <time>2019-03-24T11:27:58Z</time>
      </trkpt>
      <trkpt lat="42.90393" lon="0.19739">
        <ele>2363</ele>
        <time>2019-03-24T11:28:18Z</time>
      </trkpt>
      <trkpt lat="42.90392" lon="0.19739">
        <ele>2362</ele>
        <time>2019-03-24T11:28:37Z</time>
      </trkpt>
      <trkpt lat="42.90391" lon="0.19741">
        <ele>2362</ele>
        <time>2019-03-24T11:29:01Z</time>
      </trkpt>
      <trkpt lat="42.9039" lon="0.19743">
        <ele>2362</ele>
        <time>2019-03-24T11:29:19Z</time>
      </trkpt>
      <trkpt lat="42.9039" lon="0.19738">
        <ele>2362</ele>
        <time>2019-03-24T11:29:41Z</time>
      </trkpt>
      <trkpt lat="42.90393" lon="0.19732">
        <ele>2361</ele>
        <time>2019-03-24T11:29:55Z</time>
      </trkpt>
      <trkpt lat="42.90399" lon="0.19725">
        <ele>2357</ele>
        <time>2019-03-24T11:30:10Z</time>
      </trkpt>
      <trkpt lat="42.90396" lon="0.19722">
        <ele>2355</ele>
        <time>2019-03-24T11:30:25Z</time>
      </trkpt>
      <trkpt lat="42.90395" lon="0.19721">
        <ele>2354</ele>
        <time>2019-03-24T11:30:55Z</time>
      </trkpt>
      <trkpt lat="42.90395" lon="0.19719">
        <ele>2352</ele>
        <time>2019-03-24T11:31:10Z</time>
      </trkpt>
      <trkpt lat="42.90398" lon="0.19722">
        <ele>2352</ele>
        <time>2019-03-24T11:31:23Z</time>
      </trkpt>
      <trkpt lat="42.904" lon="0.19722">
        <ele>2352</ele>
        <time>2019-03-24T11:31:39Z</time>
      </trkpt>
      <trkpt lat="42.904" lon="0.19721">
        <ele>2352</ele>
        <time>2019-03-24T11:32:02Z</time>
      </trkpt>
      <trkpt lat="42.90401" lon="0.19722">
        <ele>2353</ele>
        <time>2019-03-24T11:32:19Z</time>
      </trkpt>
      <trkpt lat="42.90394" lon="0.1972">
        <ele>2353</ele>
        <time>2019-03-24T11:32:40Z</time>
      </trkpt>
      <trkpt lat="42.9039" lon="0.19717">
        <ele>2352</ele>
        <time>2019-03-24T11:32:57Z</time>
      </trkpt>
      <trkpt lat="42.90387" lon="0.19713">
        <ele>2352</ele>
        <time>2019-03-24T11:33:10Z</time>
      </trkpt>
      <trkpt lat="42.90386" lon="0.19713">
        <ele>2351</ele>
        <time>2019-03-24T11:33:11Z</time>
      </trkpt>
      <trkpt lat="42.90383" lon="0.19707">
        <ele>2350</ele>
        <time>2019-03-24T11:33:16Z</time>
      </trkpt>
      <trkpt lat="42.90377" lon="0.19697">
        <ele>2347</ele>
        <time>2019-03-24T11:33:22Z</time>
      </trkpt>
      <trkpt lat="42.90368" lon="0.1968">
        <ele>2343</ele>
        <time>2019-03-24T11:33:32Z</time>
      </trkpt>
      <trkpt lat="42.90361" lon="0.19669">
        <ele>2341</ele>
        <time>2019-03-24T11:33:45Z</time>
      </trkpt>
      <trkpt lat="42.90358" lon="0.19656">
        <ele>2339</ele>
        <time>2019-03-24T11:33:56Z</time>
      </trkpt>
      <trkpt lat="42.90358" lon="0.19655">
        <ele>2339</ele>
        <time>2019-03-24T11:33:59Z</time>
      </trkpt>
      <trkpt lat="42.90365" lon="0.19653">
        <ele>2335</ele>
        <time>2019-03-24T11:34:07Z</time>
      </trkpt>
      <trkpt lat="42.90367" lon="0.19647">
        <ele>2332</ele>
        <time>2019-03-24T11:34:11Z</time>
      </trkpt>
      <trkpt lat="42.90366" lon="0.19647">
        <ele>2332</ele>
        <time>2019-03-24T11:34:12Z</time>
      </trkpt>
      <trkpt lat="42.90364" lon="0.19646">
        <ele>2332</ele>
        <time>2019-03-24T11:34:27Z</time>
      </trkpt>
      <trkpt lat="42.90364" lon="0.19644">
        <ele>2332</ele>
        <time>2019-03-24T11:34:31Z</time>
      </trkpt>
      <trkpt lat="42.90363" lon="0.19631">
        <ele>2328</ele>
        <time>2019-03-24T11:34:37Z</time>
      </trkpt>
      <trkpt lat="42.90362" lon="0.19628">
        <ele>2328</ele>
        <time>2019-03-24T11:34:39Z</time>
      </trkpt>
      <trkpt lat="42.90362" lon="0.19624">
        <ele>2327</ele>
        <time>2019-03-24T11:34:42Z</time>
      </trkpt>
      <trkpt lat="42.90369" lon="0.19623">
        <ele>2323</ele>
        <time>2019-03-24T11:34:46Z</time>
      </trkpt>
      <trkpt lat="42.90372" lon="0.19623">
        <ele>2322</ele>
        <time>2019-03-24T11:34:48Z</time>
      </trkpt>
      <trkpt lat="42.90373" lon="0.19619">
        <ele>2320</ele>
        <time>2019-03-24T11:34:49Z</time>
      </trkpt>
      <trkpt lat="42.90373" lon="0.19615">
        <ele>2319</ele>
        <time>2019-03-24T11:34:50Z</time>
      </trkpt>
      <trkpt lat="42.90371" lon="0.19611">
        <ele>2318</ele>
        <time>2019-03-24T11:34:59Z</time>
      </trkpt>
      <trkpt lat="42.90369" lon="0.19609">
        <ele>2318</ele>
        <time>2019-03-24T11:35:19Z</time>
      </trkpt>
      <trkpt lat="42.9037" lon="0.19596">
        <ele>2315</ele>
        <time>2019-03-24T11:35:25Z</time>
      </trkpt>
      <trkpt lat="42.9037" lon="0.19591">
        <ele>2313</ele>
        <time>2019-03-24T11:35:28Z</time>
      </trkpt>
      <trkpt lat="42.9037" lon="0.19586">
        <ele>2310</ele>
        <time>2019-03-24T11:35:33Z</time>
      </trkpt>
      <trkpt lat="42.90371" lon="0.1958">
        <ele>2308</ele>
        <time>2019-03-24T11:35:39Z</time>
      </trkpt>
      <trkpt lat="42.90378" lon="0.19582">
        <ele>2305</ele>
        <time>2019-03-24T11:35:42Z</time>
      </trkpt>
      <trkpt lat="42.9038" lon="0.19584">
        <ele>2303</ele>
        <time>2019-03-24T11:35:44Z</time>
      </trkpt>
      <trkpt lat="42.90382" lon="0.19583">
        <ele>2303</ele>
        <time>2019-03-24T11:35:46Z</time>
      </trkpt>
      <trkpt lat="42.90379" lon="0.1957">
        <ele>2298</ele>
        <time>2019-03-24T11:35:49Z</time>
      </trkpt>
      <trkpt lat="42.90375" lon="0.19555">
        <ele>2295</ele>
        <time>2019-03-24T11:35:55Z</time>
      </trkpt>
      <trkpt lat="42.90374" lon="0.19547">
        <ele>2294</ele>
        <time>2019-03-24T11:36:04Z</time>
      </trkpt>
      <trkpt lat="42.90375" lon="0.19545">
        <ele>2293</ele>
        <time>2019-03-24T11:36:05Z</time>
      </trkpt>
      <trkpt lat="42.90378" lon="0.19543">
        <ele>2291</ele>
        <time>2019-03-24T11:36:06Z</time>
      </trkpt>
      <trkpt lat="42.90382" lon="0.19543">
        <ele>2289</ele>
        <time>2019-03-24T11:36:09Z</time>
      </trkpt>
      <trkpt lat="42.90383" lon="0.19538">
        <ele>2288</ele>
        <time>2019-03-24T11:36:10Z</time>
      </trkpt>
      <trkpt lat="42.90382" lon="0.19536">
        <ele>2287</ele>
        <time>2019-03-24T11:36:11Z</time>
      </trkpt>
      <trkpt lat="42.90381" lon="0.19535">
        <ele>2286</ele>
        <time>2019-03-24T11:36:12Z</time>
      </trkpt>
      <trkpt lat="42.9038" lon="0.19521">
        <ele>2283</ele>
        <time>2019-03-24T11:36:18Z</time>
      </trkpt>
      <trkpt lat="42.90377" lon="0.19512">
        <ele>2281</ele>
        <time>2019-03-24T11:36:21Z</time>
      </trkpt>
      <trkpt lat="42.90375" lon="0.19501">
        <ele>2277</ele>
        <time>2019-03-24T11:36:27Z</time>
      </trkpt>
      <trkpt lat="42.90371" lon="0.19501">
        <ele>2278</ele>
        <time>2019-03-24T11:36:41Z</time>
      </trkpt>
      <trkpt lat="42.90367" lon="0.19502">
        <ele>2278</ele>
        <time>2019-03-24T11:37:06Z</time>
      </trkpt>
      <trkpt lat="42.90364" lon="0.19502">
        <ele>2278</ele>
        <time>2019-03-24T11:37:14Z</time>
      </trkpt>
      <trkpt lat="42.90362" lon="0.19478">
        <ele>2275</ele>
        <time>2019-03-24T11:37:20Z</time>
      </trkpt>
      <trkpt lat="42.90364" lon="0.19467">
        <ele>2274</ele>
        <time>2019-03-24T11:37:31Z</time>
      </trkpt>
      <trkpt lat="42.90362" lon="0.19445">
        <ele>2271</ele>
        <time>2019-03-24T11:37:38Z</time>
      </trkpt>
      <trkpt lat="42.90362" lon="0.19441">
        <ele>2270</ele>
        <time>2019-03-24T11:37:50Z</time>
      </trkpt>
      <trkpt lat="42.90364" lon="0.19438">
        <ele>2270</ele>
        <time>2019-03-24T11:37:56Z</time>
      </trkpt>
      <trkpt lat="42.90369" lon="0.19441">
        <ele>2267</ele>
        <time>2019-03-24T11:37:58Z</time>
      </trkpt>
      <trkpt lat="42.9037" lon="0.19442">
        <ele>2266</ele>
        <time>2019-03-24T11:37:59Z</time>
      </trkpt>
      <trkpt lat="42.90373" lon="0.19441">
        <ele>2265</ele>
        <time>2019-03-24T11:38:00Z</time>
      </trkpt>
      <trkpt lat="42.90374" lon="0.19438">
        <ele>2264</ele>
        <time>2019-03-24T11:38:01Z</time>
      </trkpt>
      <trkpt lat="42.90377" lon="0.19436">
        <ele>2262</ele>
        <time>2019-03-24T11:38:02Z</time>
      </trkpt>
      <trkpt lat="42.90382" lon="0.19437">
        <ele>2259</ele>
        <time>2019-03-24T11:38:04Z</time>
      </trkpt>
      <trkpt lat="42.90387" lon="0.19432">
        <ele>2256</ele>
        <time>2019-03-24T11:38:06Z</time>
      </trkpt>
      <trkpt lat="42.90392" lon="0.19432">
        <ele>2252</ele>
        <time>2019-03-24T11:38:08Z</time>
      </trkpt>
      <trkpt lat="42.90395" lon="0.19433">
        <ele>2251</ele>
        <time>2019-03-24T11:38:09Z</time>
      </trkpt>
      <trkpt lat="42.90397" lon="0.19433">
        <ele>2249</ele>
        <time>2019-03-24T11:38:10Z</time>
      </trkpt>
      <trkpt lat="42.904" lon="0.1943">
        <ele>2247</ele>
        <time>2019-03-24T11:38:11Z</time>
      </trkpt>
      <trkpt lat="42.90405" lon="0.19428">
        <ele>2245</ele>
        <time>2019-03-24T11:38:12Z</time>
      </trkpt>
      <trkpt lat="42.9041" lon="0.1943">
        <ele>2243</ele>
        <time>2019-03-24T11:38:14Z</time>
      </trkpt>
      <trkpt lat="42.90412" lon="0.19429">
        <ele>2241</ele>
        <time>2019-03-24T11:38:15Z</time>
      </trkpt>
      <trkpt lat="42.90415" lon="0.19424">
        <ele>2240</ele>
        <time>2019-03-24T11:38:16Z</time>
      </trkpt>
      <trkpt lat="42.90419" lon="0.19422">
        <ele>2237</ele>
        <time>2019-03-24T11:38:17Z</time>
      </trkpt>
      <trkpt lat="42.90423" lon="0.19422">
        <ele>2236</ele>
        <time>2019-03-24T11:38:18Z</time>
      </trkpt>
      <trkpt lat="42.90429" lon="0.19421">
        <ele>2233</ele>
        <time>2019-03-24T11:38:20Z</time>
      </trkpt>
      <trkpt lat="42.90433" lon="0.19418">
        <ele>2231</ele>
        <time>2019-03-24T11:38:21Z</time>
      </trkpt>
      <trkpt lat="42.9043" lon="0.19416">
        <ele>2229</ele>
        <time>2019-03-24T11:38:30Z</time>
      </trkpt>
      <trkpt lat="42.90434" lon="0.19415">
        <ele>2230</ele>
        <time>2019-03-24T11:38:54Z</time>
      </trkpt>
      <trkpt lat="42.90435" lon="0.19416">
        <ele>2230</ele>
        <time>2019-03-24T11:39:00Z</time>
      </trkpt>
      <trkpt lat="42.90443" lon="0.19395">
        <ele>2227</ele>
        <time>2019-03-24T11:39:05Z</time>
      </trkpt>
      <trkpt lat="42.90447" lon="0.19383">
        <ele>2226</ele>
        <time>2019-03-24T11:39:07Z</time>
      </trkpt>
      <trkpt lat="42.90448" lon="0.19377">
        <ele>2226</ele>
        <time>2019-03-24T11:39:08Z</time>
      </trkpt>
      <trkpt lat="42.9045" lon="0.19364">
        <ele>2223</ele>
        <time>2019-03-24T11:39:10Z</time>
      </trkpt>
      <trkpt lat="42.90451" lon="0.19352">
        <ele>2221</ele>
        <time>2019-03-24T11:39:12Z</time>
      </trkpt>
      <trkpt lat="42.90454" lon="0.19334">
        <ele>2219</ele>
        <time>2019-03-24T11:39:15Z</time>
      </trkpt>
      <trkpt lat="42.90457" lon="0.19321">
        <ele>2216</ele>
        <time>2019-03-24T11:39:18Z</time>
      </trkpt>
      <trkpt lat="42.90457" lon="0.1932">
        <ele>2216</ele>
        <time>2019-03-24T11:39:19Z</time>
      </trkpt>
      <trkpt lat="42.90447" lon="0.19318">
        <ele>2215</ele>
        <time>2019-03-24T11:39:32Z</time>
      </trkpt>
      <trkpt lat="42.90451" lon="0.19312">
        <ele>2212</ele>
        <time>2019-03-24T11:39:36Z</time>
      </trkpt>
      <trkpt lat="42.90456" lon="0.19314">
        <ele>2209</ele>
        <time>2019-03-24T11:39:38Z</time>
      </trkpt>
      <trkpt lat="42.90462" lon="0.19319">
        <ele>2205</ele>
        <time>2019-03-24T11:39:40Z</time>
      </trkpt>
      <trkpt lat="42.90472" lon="0.19319">
        <ele>2198</ele>
        <time>2019-03-24T11:39:43Z</time>
      </trkpt>
      <trkpt lat="42.90479" lon="0.19323">
        <ele>2194</ele>
        <time>2019-03-24T11:39:45Z</time>
      </trkpt>
      <trkpt lat="42.90491" lon="0.19323">
        <ele>2188</ele>
        <time>2019-03-24T11:39:48Z</time>
      </trkpt>
      <trkpt lat="42.90498" lon="0.19324">
        <ele>2183</ele>
        <time>2019-03-24T11:39:49Z</time>
      </trkpt>
      <trkpt lat="42.90508" lon="0.19331">
        <ele>2178</ele>
        <time>2019-03-24T11:39:52Z</time>
      </trkpt>
      <trkpt lat="42.90512" lon="0.19334">
        <ele>2175</ele>
        <time>2019-03-24T11:39:53Z</time>
      </trkpt>
      <trkpt lat="42.90517" lon="0.19337">
        <ele>2174</ele>
        <time>2019-03-24T11:39:54Z</time>
      </trkpt>
      <trkpt lat="42.90529" lon="0.19355">
        <ele>2167</ele>
        <time>2019-03-24T11:39:57Z</time>
      </trkpt>
      <trkpt lat="42.90521" lon="0.19372">
        <ele>2166</ele>
        <time>2019-03-24T11:40:03Z</time>
      </trkpt>
      <trkpt lat="42.90517" lon="0.19369">
        <ele>2168</ele>
        <time>2019-03-24T11:40:19Z</time>
      </trkpt>
      <trkpt lat="42.90516" lon="0.19365">
        <ele>2168</ele>
        <time>2019-03-24T11:40:43Z</time>
      </trkpt>
      <trkpt lat="42.90509" lon="0.19369">
        <ele>2168</ele>
        <time>2019-03-24T11:41:12Z</time>
      </trkpt>
      <trkpt lat="42.90515" lon="0.19364">
        <ele>2168</ele>
        <time>2019-03-24T11:41:37Z</time>
      </trkpt>
      <trkpt lat="42.90515" lon="0.19364">
        <ele>2168</ele>
        <time>2019-03-24T11:41:56Z</time>
      </trkpt>
      <trkpt lat="42.90517" lon="0.19365">
        <ele>2168</ele>
        <time>2019-03-24T11:42:16Z</time>
      </trkpt>
      <trkpt lat="42.90518" lon="0.1936">
        <ele>2167</ele>
        <time>2019-03-24T11:42:41Z</time>
      </trkpt>
      <trkpt lat="42.90523" lon="0.19356">
        <ele>2168</ele>
        <time>2019-03-24T11:43:09Z</time>
      </trkpt>
      <trkpt lat="42.90524" lon="0.19358">
        <ele>2167</ele>
        <time>2019-03-24T11:43:21Z</time>
      </trkpt>
      <trkpt lat="42.90536" lon="0.19365">
        <ele>2164</ele>
        <time>2019-03-24T11:43:26Z</time>
      </trkpt>
      <trkpt lat="42.90546" lon="0.19371">
        <ele>2162</ele>
        <time>2019-03-24T11:43:28Z</time>
      </trkpt>
      <trkpt lat="42.90551" lon="0.19376">
        <ele>2159</ele>
        <time>2019-03-24T11:43:29Z</time>
      </trkpt>
      <trkpt lat="42.9056" lon="0.1938">
        <ele>2157</ele>
        <time>2019-03-24T11:43:31Z</time>
      </trkpt>
      <trkpt lat="42.90567" lon="0.19381">
        <ele>2156</ele>
        <time>2019-03-24T11:43:32Z</time>
      </trkpt>
      <trkpt lat="42.90581" lon="0.19385">
        <ele>2154</ele>
        <time>2019-03-24T11:43:35Z</time>
      </trkpt>
      <trkpt lat="42.90585" lon="0.19386">
        <ele>2153</ele>
        <time>2019-03-24T11:43:36Z</time>
      </trkpt>
      <trkpt lat="42.90598" lon="0.19396">
        <ele>2152</ele>
        <time>2019-03-24T11:43:39Z</time>
      </trkpt>
      <trkpt lat="42.90636" lon="0.19386">
        <ele>2147</ele>
        <time>2019-03-24T11:43:46Z</time>
      </trkpt>
      <trkpt lat="42.90643" lon="0.19385">
        <ele>2145</ele>
        <time>2019-03-24T11:43:47Z</time>
      </trkpt>
      <trkpt lat="42.90659" lon="0.19384">
        <ele>2142</ele>
        <time>2019-03-24T11:43:49Z</time>
      </trkpt>
      <trkpt lat="42.90689" lon="0.19382">
        <ele>2140</ele>
        <time>2019-03-24T11:43:54Z</time>
      </trkpt>
      <trkpt lat="42.90695" lon="0.19382">
        <ele>2138</ele>
        <time>2019-03-24T11:43:56Z</time>
      </trkpt>
      <trkpt lat="42.90698" lon="0.19382">
        <ele>2138</ele>
        <time>2019-03-24T11:43:58Z</time>
      </trkpt>
      <trkpt lat="42.90701" lon="0.19377">
        <ele>2138</ele>
        <time>2019-03-24T11:44:10Z</time>
      </trkpt>
      <trkpt lat="42.90704" lon="0.19378">
        <ele>2137</ele>
        <time>2019-03-24T11:44:40Z</time>
      </trkpt>
      <trkpt lat="42.90703" lon="0.19378">
        <ele>2137</ele>
        <time>2019-03-24T11:44:44Z</time>
      </trkpt>
      <trkpt lat="42.90706" lon="0.19365">
        <ele>2133</ele>
        <time>2019-03-24T11:44:49Z</time>
      </trkpt>
      <trkpt lat="42.90707" lon="0.1936">
        <ele>2133</ele>
        <time>2019-03-24T11:44:50Z</time>
      </trkpt>
      <trkpt lat="42.90709" lon="0.19355">
        <ele>2132</ele>
        <time>2019-03-24T11:44:51Z</time>
      </trkpt>
      <trkpt lat="42.90715" lon="0.19342">
        <ele>2130</ele>
        <time>2019-03-24T11:44:54Z</time>
      </trkpt>
      <trkpt lat="42.90723" lon="0.19327">
        <ele>2127</ele>
        <time>2019-03-24T11:44:59Z</time>
      </trkpt>
      <trkpt lat="42.90735" lon="0.19309">
        <ele>2124</ele>
        <time>2019-03-24T11:45:04Z</time>
      </trkpt>
      <trkpt lat="42.90736" lon="0.19305">
        <ele>2124</ele>
        <time>2019-03-24T11:45:17Z</time>
      </trkpt>
      <trkpt lat="42.90741" lon="0.19299">
        <ele>2121</ele>
        <time>2019-03-24T11:45:30Z</time>
      </trkpt>
      <trkpt lat="42.90746" lon="0.19313">
        <ele>2115</ele>
        <time>2019-03-24T11:45:34Z</time>
      </trkpt>
      <trkpt lat="42.90748" lon="0.19316">
        <ele>2114</ele>
        <time>2019-03-24T11:45:35Z</time>
      </trkpt>
      <trkpt lat="42.90754" lon="0.19323">
        <ele>2109</ele>
        <time>2019-03-24T11:45:37Z</time>
      </trkpt>
      <trkpt lat="42.9076" lon="0.19332">
        <ele>2106</ele>
        <time>2019-03-24T11:45:39Z</time>
      </trkpt>
      <trkpt lat="42.9077" lon="0.19341">
        <ele>2098</ele>
        <time>2019-03-24T11:45:42Z</time>
      </trkpt>
      <trkpt lat="42.90776" lon="0.19346">
        <ele>2094</ele>
        <time>2019-03-24T11:45:44Z</time>
      </trkpt>
      <trkpt lat="42.9078" lon="0.19347">
        <ele>2091</ele>
        <time>2019-03-24T11:45:45Z</time>
      </trkpt>
      <trkpt lat="42.90786" lon="0.19357">
        <ele>2086</ele>
        <time>2019-03-24T11:45:47Z</time>
      </trkpt>
      <trkpt lat="42.90791" lon="0.19364">
        <ele>2081</ele>
        <time>2019-03-24T11:45:49Z</time>
      </trkpt>
      <trkpt lat="42.90795" lon="0.19367">
        <ele>2079</ele>
        <time>2019-03-24T11:45:50Z</time>
      </trkpt>
      <trkpt lat="42.90807" lon="0.19375">
        <ele>2071</ele>
        <time>2019-03-24T11:45:53Z</time>
      </trkpt>
      <trkpt lat="42.90819" lon="0.19385">
        <ele>2065</ele>
        <time>2019-03-24T11:45:56Z</time>
      </trkpt>
      <trkpt lat="42.90829" lon="0.19404">
        <ele>2057</ele>
        <time>2019-03-24T11:46:00Z</time>
      </trkpt>
      <trkpt lat="42.90829" lon="0.19408">
        <ele>2058</ele>
        <time>2019-03-24T11:46:01Z</time>
      </trkpt>
      <trkpt lat="42.90826" lon="0.19414">
        <ele>2059</ele>
        <time>2019-03-24T11:46:11Z</time>
      </trkpt>
      <trkpt lat="42.90826" lon="0.19416">
        <ele>2060</ele>
        <time>2019-03-24T11:46:35Z</time>
      </trkpt>
      <trkpt lat="42.90822" lon="0.19414">
        <ele>2060</ele>
        <time>2019-03-24T11:46:52Z</time>
      </trkpt>
      <trkpt lat="42.90821" lon="0.19415">
        <ele>2060</ele>
        <time>2019-03-24T11:47:01Z</time>
      </trkpt>
      <trkpt lat="42.90825" lon="0.19421">
        <ele>2058</ele>
        <time>2019-03-24T11:47:05Z</time>
      </trkpt>
      <trkpt lat="42.90826" lon="0.19424">
        <ele>2057</ele>
        <time>2019-03-24T11:47:09Z</time>
      </trkpt>
      <trkpt lat="42.90833" lon="0.19426">
        <ele>2056</ele>
        <time>2019-03-24T11:47:12Z</time>
      </trkpt>
      <trkpt lat="42.90857" lon="0.19444">
        <ele>2051</ele>
        <time>2019-03-24T11:47:17Z</time>
      </trkpt>
      <trkpt lat="42.90863" lon="0.19466">
        <ele>2047</ele>
        <time>2019-03-24T11:47:20Z</time>
      </trkpt>
      <trkpt lat="42.90865" lon="0.19474">
        <ele>2046</ele>
        <time>2019-03-24T11:47:21Z</time>
      </trkpt>
      <trkpt lat="42.90871" lon="0.19499">
        <ele>2041</ele>
        <time>2019-03-24T11:47:25Z</time>
      </trkpt>
      <trkpt lat="42.90871" lon="0.19512">
        <ele>2039</ele>
        <time>2019-03-24T11:47:27Z</time>
      </trkpt>
      <trkpt lat="42.90878" lon="0.19532">
        <ele>2035</ele>
        <time>2019-03-24T11:47:31Z</time>
      </trkpt>
      <trkpt lat="42.90875" lon="0.19538">
        <ele>2033</ele>
        <time>2019-03-24T11:47:38Z</time>
      </trkpt>
      <trkpt lat="42.90873" lon="0.19535">
        <ele>2033</ele>
        <time>2019-03-24T11:47:57Z</time>
      </trkpt>
      <trkpt lat="42.90874" lon="0.19537">
        <ele>2034</ele>
        <time>2019-03-24T11:48:18Z</time>
      </trkpt>
      <trkpt lat="42.90867" lon="0.19543">
        <ele>2032</ele>
        <time>2019-03-24T11:48:30Z</time>
      </trkpt>
      <trkpt lat="42.90867" lon="0.19548">
        <ele>2031</ele>
        <time>2019-03-24T11:48:40Z</time>
      </trkpt>
      <trkpt lat="42.90867" lon="0.19553">
        <ele>2030</ele>
        <time>2019-03-24T11:48:45Z</time>
      </trkpt>
      <trkpt lat="42.9087" lon="0.19567">
        <ele>2026</ele>
        <time>2019-03-24T11:48:49Z</time>
      </trkpt>
      <trkpt lat="42.90875" lon="0.19587">
        <ele>2022</ele>
        <time>2019-03-24T11:48:53Z</time>
      </trkpt>
      <trkpt lat="42.90874" lon="0.19596">
        <ele>2016</ele>
        <time>2019-03-24T11:48:55Z</time>
      </trkpt>
      <trkpt lat="42.90875" lon="0.19601">
        <ele>2017</ele>
        <time>2019-03-24T11:48:56Z</time>
      </trkpt>
      <trkpt lat="42.90877" lon="0.19607">
        <ele>2013</ele>
        <time>2019-03-24T11:48:57Z</time>
      </trkpt>
      <trkpt lat="42.90888" lon="0.19621">
        <ele>2007</ele>
        <time>2019-03-24T11:49:00Z</time>
      </trkpt>
      <trkpt lat="42.90899" lon="0.19635">
        <ele>2001</ele>
        <time>2019-03-24T11:49:03Z</time>
      </trkpt>
      <trkpt lat="42.90902" lon="0.1964">
        <ele>2001</ele>
        <time>2019-03-24T11:49:04Z</time>
      </trkpt>
      <trkpt lat="42.90904" lon="0.19647">
        <ele>1998</ele>
        <time>2019-03-24T11:49:05Z</time>
      </trkpt>
      <trkpt lat="42.90905" lon="0.19654">
        <ele>1994</ele>
        <time>2019-03-24T11:49:06Z</time>
      </trkpt>
      <trkpt lat="42.9091" lon="0.19667">
        <ele>1990</ele>
        <time>2019-03-24T11:49:08Z</time>
      </trkpt>
      <trkpt lat="42.9091" lon="0.19674">
        <ele>1986</ele>
        <time>2019-03-24T11:49:09Z</time>
      </trkpt>
      <trkpt lat="42.90912" lon="0.19692">
        <ele>1982</ele>
        <time>2019-03-24T11:49:11Z</time>
      </trkpt>
      <trkpt lat="42.90909" lon="0.197">
        <ele>1979</ele>
        <time>2019-03-24T11:49:12Z</time>
      </trkpt>
      <trkpt lat="42.90903" lon="0.19709">
        <ele>1978</ele>
        <time>2019-03-24T11:49:14Z</time>
      </trkpt>
      <trkpt lat="42.90898" lon="0.19732">
        <ele>1974</ele>
        <time>2019-03-24T11:49:19Z</time>
      </trkpt>
      <trkpt lat="42.90896" lon="0.19739">
        <ele>1971</ele>
        <time>2019-03-24T11:49:20Z</time>
      </trkpt>
      <trkpt lat="42.90897" lon="0.19745">
        <ele>1972</ele>
        <time>2019-03-24T11:49:21Z</time>
      </trkpt>
      <trkpt lat="42.90904" lon="0.19765">
        <ele>1970</ele>
        <time>2019-03-24T11:49:24Z</time>
      </trkpt>
      <trkpt lat="42.90906" lon="0.19771">
        <ele>1966</ele>
        <time>2019-03-24T11:49:25Z</time>
      </trkpt>
      <trkpt lat="42.90912" lon="0.19796">
        <ele>1960</ele>
        <time>2019-03-24T11:49:29Z</time>
      </trkpt>
      <trkpt lat="42.90914" lon="0.19802">
        <ele>1960</ele>
        <time>2019-03-24T11:49:30Z</time>
      </trkpt>
      <trkpt lat="42.90916" lon="0.19825">
        <ele>1954</ele>
        <time>2019-03-24T11:49:33Z</time>
      </trkpt>
      <trkpt lat="42.90927" lon="0.19842">
        <ele>1951</ele>
        <time>2019-03-24T11:49:36Z</time>
      </trkpt>
      <trkpt lat="42.90933" lon="0.1985">
        <ele>1950</ele>
        <time>2019-03-24T11:49:38Z</time>
      </trkpt>
      <trkpt lat="42.90931" lon="0.19853">
        <ele>1950</ele>
        <time>2019-03-24T11:49:47Z</time>
      </trkpt>
      <trkpt lat="42.90933" lon="0.19854">
        <ele>1949</ele>
        <time>2019-03-24T11:50:01Z</time>
      </trkpt>
      <trkpt lat="42.90934" lon="0.19852">
        <ele>1949</ele>
        <time>2019-03-24T11:50:18Z</time>
      </trkpt>
      <trkpt lat="42.90931" lon="0.19852">
        <ele>1949</ele>
        <time>2019-03-24T11:50:36Z</time>
      </trkpt>
      <trkpt lat="42.9093" lon="0.19851">
        <ele>1949</ele>
        <time>2019-03-24T11:50:49Z</time>
      </trkpt>
      <trkpt lat="42.90932" lon="0.19851">
        <ele>1948</ele>
        <time>2019-03-24T11:51:08Z</time>
      </trkpt>
      <trkpt lat="42.90929" lon="0.19852">
        <ele>1948</ele>
        <time>2019-03-24T11:51:26Z</time>
      </trkpt>
      <trkpt lat="42.90928" lon="0.19853">
        <ele>1947</ele>
        <time>2019-03-24T11:51:38Z</time>
      </trkpt>
      <trkpt lat="42.90927" lon="0.19851">
        <ele>1946</ele>
        <time>2019-03-24T11:52:03Z</time>
      </trkpt>
      <trkpt lat="42.90925" lon="0.19853">
        <ele>1947</ele>
        <time>2019-03-24T11:52:26Z</time>
      </trkpt>
      <trkpt lat="42.90926" lon="0.19852">
        <ele>1947</ele>
        <time>2019-03-24T11:52:58Z</time>
      </trkpt>
      <trkpt lat="42.90925" lon="0.19852">
        <ele>1946</ele>
        <time>2019-03-24T11:53:37Z</time>
      </trkpt>
      <trkpt lat="42.90927" lon="0.19852">
        <ele>1946</ele>
        <time>2019-03-24T11:54:07Z</time>
      </trkpt>
      <trkpt lat="42.90927" lon="0.19853">
        <ele>1945</ele>
        <time>2019-03-24T11:54:35Z</time>
      </trkpt>
      <trkpt lat="42.90925" lon="0.19851">
        <ele>1945</ele>
        <time>2019-03-24T11:55:09Z</time>
      </trkpt>
      <trkpt lat="42.90927" lon="0.19852">
        <ele>1944</ele>
        <time>2019-03-24T11:55:36Z</time>
      </trkpt>
      <trkpt lat="42.90926" lon="0.19853">
        <ele>1945</ele>
        <time>2019-03-24T11:56:08Z</time>
      </trkpt>
      <trkpt lat="42.90927" lon="0.19852">
        <ele>1946</ele>
        <time>2019-03-24T11:56:36Z</time>
      </trkpt>
      <trkpt lat="42.90927" lon="0.19852">
        <ele>1946</ele>
        <time>2019-03-24T11:56:37Z</time>
      </trkpt>
      <trkpt lat="42.90929" lon="0.19852">
        <ele>1946</ele>
        <time>2019-03-24T11:56:50Z</time>
      </trkpt>
      <trkpt lat="42.90928" lon="0.19852">
        <ele>1945</ele>
        <time>2019-03-24T11:57:07Z</time>
      </trkpt>
      <trkpt lat="42.90927" lon="0.19851">
        <ele>1945</ele>
        <time>2019-03-24T11:57:26Z</time>
      </trkpt>
      <trkpt lat="42.90928" lon="0.19853">
        <ele>1945</ele>
        <time>2019-03-24T11:57:44Z</time>
      </trkpt>
      <trkpt lat="42.90927" lon="0.1985">
        <ele>1945</ele>
        <time>2019-03-24T11:58:00Z</time>
      </trkpt>
      <trkpt lat="42.90925" lon="0.1984">
        <ele>1947</ele>
        <time>2019-03-24T11:58:12Z</time>
      </trkpt>
      <trkpt lat="42.90923" lon="0.19822">
        <ele>1948</ele>
        <time>2019-03-24T11:58:31Z</time>
      </trkpt>
      <trkpt lat="42.90923" lon="0.1981">
        <ele>1951</ele>
        <time>2019-03-24T11:58:46Z</time>
      </trkpt>
      <trkpt lat="42.90927" lon="0.19801">
        <ele>1953</ele>
        <time>2019-03-24T11:58:59Z</time>
      </trkpt>
      <trkpt lat="42.9093" lon="0.19793">
        <ele>1954</ele>
        <time>2019-03-24T11:59:11Z</time>
      </trkpt>
      <trkpt lat="42.90924" lon="0.19787">
        <ele>1956</ele>
        <time>2019-03-24T11:59:27Z</time>
      </trkpt>
      <trkpt lat="42.90915" lon="0.19779">
        <ele>1958</ele>
        <time>2019-03-24T11:59:43Z</time>
      </trkpt>
      <trkpt lat="42.90907" lon="0.19769">
        <ele>1959</ele>
        <time>2019-03-24T11:59:58Z</time>
      </trkpt>
      <trkpt lat="42.90914" lon="0.19757">
        <ele>1962</ele>
        <time>2019-03-24T12:00:09Z</time>
      </trkpt>
      <trkpt lat="42.90924" lon="0.19754">
        <ele>1964</ele>
        <time>2019-03-24T12:00:23Z</time>
      </trkpt>
      <trkpt lat="42.90925" lon="0.19751">
        <ele>1964</ele>
        <time>2019-03-24T12:00:38Z</time>
      </trkpt>
      <trkpt lat="42.90923" lon="0.19749">
        <ele>1966</ele>
        <time>2019-03-24T12:00:53Z</time>
      </trkpt>
      <trkpt lat="42.90925" lon="0.19745">
        <ele>1966</ele>
        <time>2019-03-24T12:01:05Z</time>
      </trkpt>
      <trkpt lat="42.90928" lon="0.19744">
        <ele>1967</ele>
        <time>2019-03-24T12:01:07Z</time>
      </trkpt>
      <trkpt lat="42.90933" lon="0.19742">
        <ele>1969</ele>
        <time>2019-03-24T12:01:20Z</time>
      </trkpt>
      <trkpt lat="42.90943" lon="0.19742">
        <ele>1971</ele>
        <time>2019-03-24T12:01:34Z</time>
      </trkpt>
      <trkpt lat="42.9095" lon="0.19739">
        <ele>1973</ele>
        <time>2019-03-24T12:01:48Z</time>
      </trkpt>
      <trkpt lat="42.90948" lon="0.19728">
        <ele>1975</ele>
        <time>2019-03-24T12:02:02Z</time>
      </trkpt>
      <trkpt lat="42.90946" lon="0.19716">
        <ele>1977</ele>
        <time>2019-03-24T12:02:17Z</time>
      </trkpt>
      <trkpt lat="42.9095" lon="0.19713">
        <ele>1979</ele>
        <time>2019-03-24T12:02:29Z</time>
      </trkpt>
      <trkpt lat="42.90957" lon="0.19713">
        <ele>1981</ele>
        <time>2019-03-24T12:02:41Z</time>
      </trkpt>
      <trkpt lat="42.90961" lon="0.19705">
        <ele>1983</ele>
        <time>2019-03-24T12:02:56Z</time>
      </trkpt>
      <trkpt lat="42.90965" lon="0.19698">
        <ele>1985</ele>
        <time>2019-03-24T12:03:10Z</time>
      </trkpt>
      <trkpt lat="42.90968" lon="0.19691">
        <ele>1987</ele>
        <time>2019-03-24T12:03:23Z</time>
      </trkpt>
      <trkpt lat="42.90974" lon="0.19687">
        <ele>1990</ele>
        <time>2019-03-24T12:03:36Z</time>
      </trkpt>
      <trkpt lat="42.90982" lon="0.19691">
        <ele>1992</ele>
        <time>2019-03-24T12:03:50Z</time>
      </trkpt>
      <trkpt lat="42.90988" lon="0.19694">
        <ele>1993</ele>
        <time>2019-03-24T12:04:02Z</time>
      </trkpt>
      <trkpt lat="42.9099" lon="0.19694">
        <ele>1994</ele>
        <time>2019-03-24T12:04:17Z</time>
      </trkpt>
      <trkpt lat="42.90989" lon="0.19692">
        <ele>1994</ele>
        <time>2019-03-24T12:04:23Z</time>
      </trkpt>
      <trkpt lat="42.90987" lon="0.1968">
        <ele>1996</ele>
        <time>2019-03-24T12:04:37Z</time>
      </trkpt>
      <trkpt lat="42.90984" lon="0.19671">
        <ele>1999</ele>
        <time>2019-03-24T12:04:53Z</time>
      </trkpt>
      <trkpt lat="42.90983" lon="0.1966">
        <ele>2000</ele>
        <time>2019-03-24T12:05:08Z</time>
      </trkpt>
      <trkpt lat="42.9098" lon="0.19649">
        <ele>2003</ele>
        <time>2019-03-24T12:05:23Z</time>
      </trkpt>
      <trkpt lat="42.90984" lon="0.19648">
        <ele>2004</ele>
        <time>2019-03-24T12:05:35Z</time>
      </trkpt>
      <trkpt lat="42.90991" lon="0.19652">
        <ele>2005</ele>
        <time>2019-03-24T12:05:48Z</time>
      </trkpt>
      <trkpt lat="42.90996" lon="0.19654">
        <ele>2007</ele>
        <time>2019-03-24T12:05:59Z</time>
      </trkpt>
      <trkpt lat="42.90999" lon="0.19657">
        <ele>2008</ele>
        <time>2019-03-24T12:06:15Z</time>
      </trkpt>
      <trkpt lat="42.91002" lon="0.19656">
        <ele>2009</ele>
        <time>2019-03-24T12:06:32Z</time>
      </trkpt>
      <trkpt lat="42.91006" lon="0.19657">
        <ele>2010</ele>
        <time>2019-03-24T12:06:42Z</time>
      </trkpt>
      <trkpt lat="42.91003" lon="0.19649">
        <ele>2012</ele>
        <time>2019-03-24T12:06:51Z</time>
      </trkpt>
      <trkpt lat="42.91" lon="0.19637">
        <ele>2014</ele>
        <time>2019-03-24T12:07:08Z</time>
      </trkpt>
      <trkpt lat="42.90998" lon="0.19626">
        <ele>2016</ele>
        <time>2019-03-24T12:07:24Z</time>
      </trkpt>
      <trkpt lat="42.90997" lon="0.19616">
        <ele>2018</ele>
        <time>2019-03-24T12:07:37Z</time>
      </trkpt>
      <trkpt lat="42.91" lon="0.19612">
        <ele>2020</ele>
        <time>2019-03-24T12:07:53Z</time>
      </trkpt>
      <trkpt lat="42.91004" lon="0.1961">
        <ele>2020</ele>
        <time>2019-03-24T12:08:10Z</time>
      </trkpt>
      <trkpt lat="42.91006" lon="0.19611">
        <ele>2021</ele>
        <time>2019-03-24T12:08:21Z</time>
      </trkpt>
      <trkpt lat="42.91012" lon="0.19612">
        <ele>2023</ele>
        <time>2019-03-24T12:08:33Z</time>
      </trkpt>
      <trkpt lat="42.91016" lon="0.19606">
        <ele>2026</ele>
        <time>2019-03-24T12:08:47Z</time>
      </trkpt>
      <trkpt lat="42.91011" lon="0.19594">
        <ele>2027</ele>
        <time>2019-03-24T12:09:03Z</time>
      </trkpt>
      <trkpt lat="42.91008" lon="0.19583">
        <ele>2029</ele>
        <time>2019-03-24T12:09:18Z</time>
      </trkpt>
      <trkpt lat="42.91005" lon="0.1957">
        <ele>2031</ele>
        <time>2019-03-24T12:09:34Z</time>
      </trkpt>
      <trkpt lat="42.91003" lon="0.19561">
        <ele>2034</ele>
        <time>2019-03-24T12:09:48Z</time>
      </trkpt>
      <trkpt lat="42.91009" lon="0.19559">
        <ele>2036</ele>
        <time>2019-03-24T12:10:01Z</time>
      </trkpt>
      <trkpt lat="42.91015" lon="0.19554">
        <ele>2038</ele>
        <time>2019-03-24T12:10:13Z</time>
      </trkpt>
      <trkpt lat="42.91012" lon="0.19543">
        <ele>2041</ele>
        <time>2019-03-24T12:10:27Z</time>
      </trkpt>
      <trkpt lat="42.9101" lon="0.19533">
        <ele>2041</ele>
        <time>2019-03-24T12:10:41Z</time>
      </trkpt>
      <trkpt lat="42.91007" lon="0.19522">
        <ele>2044</ele>
        <time>2019-03-24T12:10:55Z</time>
      </trkpt>
      <trkpt lat="42.91006" lon="0.19512">
        <ele>2046</ele>
        <time>2019-03-24T12:11:08Z</time>
      </trkpt>
      <trkpt lat="42.91012" lon="0.19506">
        <ele>2047</ele>
        <time>2019-03-24T12:11:20Z</time>
      </trkpt>
      <trkpt lat="42.91018" lon="0.19506">
        <ele>2050</ele>
        <time>2019-03-24T12:11:33Z</time>
      </trkpt>
      <trkpt lat="42.91026" lon="0.19508">
        <ele>2051</ele>
        <time>2019-03-24T12:11:44Z</time>
      </trkpt>
      <trkpt lat="42.91027" lon="0.19507">
        <ele>2052</ele>
        <time>2019-03-24T12:11:48Z</time>
      </trkpt>
      <trkpt lat="42.91038" lon="0.19508">
        <ele>2053</ele>
        <time>2019-03-24T12:12:02Z</time>
      </trkpt>
      <trkpt lat="42.91042" lon="0.19512">
        <ele>2053</ele>
        <time>2019-03-24T12:12:10Z</time>
      </trkpt>
      <trkpt lat="42.91051" lon="0.19515">
        <ele>2055</ele>
        <time>2019-03-24T12:12:23Z</time>
      </trkpt>
      <trkpt lat="42.91058" lon="0.19517">
        <ele>2056</ele>
        <time>2019-03-24T12:12:36Z</time>
      </trkpt>
      <trkpt lat="42.91064" lon="0.19517">
        <ele>2058</ele>
        <time>2019-03-24T12:12:47Z</time>
      </trkpt>
      <trkpt lat="42.91067" lon="0.19509">
        <ele>2060</ele>
        <time>2019-03-24T12:13:02Z</time>
      </trkpt>
      <trkpt lat="42.91066" lon="0.19496">
        <ele>2063</ele>
        <time>2019-03-24T12:13:19Z</time>
      </trkpt>
      <trkpt lat="42.91065" lon="0.19492">
        <ele>2064</ele>
        <time>2019-03-24T12:13:32Z</time>
      </trkpt>
      <trkpt lat="42.91067" lon="0.19484">
        <ele>2066</ele>
        <time>2019-03-24T12:13:50Z</time>
      </trkpt>
      <trkpt lat="42.91073" lon="0.19476">
        <ele>2068</ele>
        <time>2019-03-24T12:14:04Z</time>
      </trkpt>
      <trkpt lat="42.91073" lon="0.19475">
        <ele>2068</ele>
        <time>2019-03-24T12:14:05Z</time>
      </trkpt>
      <trkpt lat="42.91081" lon="0.19464">
        <ele>2069</ele>
        <time>2019-03-24T12:14:20Z</time>
      </trkpt>
      <trkpt lat="42.91083" lon="0.19455">
        <ele>2071</ele>
        <time>2019-03-24T12:14:33Z</time>
      </trkpt>
      <trkpt lat="42.91091" lon="0.19456">
        <ele>2073</ele>
        <time>2019-03-24T12:14:43Z</time>
      </trkpt>
      <trkpt lat="42.911" lon="0.19457">
        <ele>2074</ele>
        <time>2019-03-24T12:14:56Z</time>
      </trkpt>
      <trkpt lat="42.91107" lon="0.1946">
        <ele>2075</ele>
        <time>2019-03-24T12:15:08Z</time>
      </trkpt>
      <trkpt lat="42.91115" lon="0.19465">
        <ele>2077</ele>
        <time>2019-03-24T12:15:21Z</time>
      </trkpt>
      <trkpt lat="42.91122" lon="0.19469">
        <ele>2079</ele>
        <time>2019-03-24T12:15:34Z</time>
      </trkpt>
      <trkpt lat="42.9113" lon="0.19471">
        <ele>2080</ele>
        <time>2019-03-24T12:15:48Z</time>
      </trkpt>
      <trkpt lat="42.91138" lon="0.19477">
        <ele>2082</ele>
        <time>2019-03-24T12:16:01Z</time>
      </trkpt>
      <trkpt lat="42.91145" lon="0.19481">
        <ele>2083</ele>
        <time>2019-03-24T12:16:13Z</time>
      </trkpt>
      <trkpt lat="42.91153" lon="0.19488">
        <ele>2084</ele>
        <time>2019-03-24T12:16:26Z</time>
      </trkpt>
      <trkpt lat="42.91159" lon="0.19497">
        <ele>2086</ele>
        <time>2019-03-24T12:16:40Z</time>
      </trkpt>
      <trkpt lat="42.91165" lon="0.19503">
        <ele>2087</ele>
        <time>2019-03-24T12:16:52Z</time>
      </trkpt>
      <trkpt lat="42.91171" lon="0.19511">
        <ele>2090</ele>
        <time>2019-03-24T12:17:05Z</time>
      </trkpt>
      <trkpt lat="42.91176" lon="0.19515">
        <ele>2091</ele>
        <time>2019-03-24T12:17:18Z</time>
      </trkpt>
      <trkpt lat="42.91175" lon="0.19503">
        <ele>2092</ele>
        <time>2019-03-24T12:17:32Z</time>
      </trkpt>
      <trkpt lat="42.91175" lon="0.19491">
        <ele>2095</ele>
        <time>2019-03-24T12:17:47Z</time>
      </trkpt>
      <trkpt lat="42.91175" lon="0.1948">
        <ele>2096</ele>
        <time>2019-03-24T12:18:01Z</time>
      </trkpt>
      <trkpt lat="42.91177" lon="0.19481">
        <ele>2097</ele>
        <time>2019-03-24T12:18:14Z</time>
      </trkpt>
      <trkpt lat="42.91182" lon="0.19484">
        <ele>2098</ele>
        <time>2019-03-24T12:18:26Z</time>
      </trkpt>
      <trkpt lat="42.91189" lon="0.19491">
        <ele>2100</ele>
        <time>2019-03-24T12:18:39Z</time>
      </trkpt>
      <trkpt lat="42.91195" lon="0.19496">
        <ele>2101</ele>
        <time>2019-03-24T12:18:51Z</time>
      </trkpt>
      <trkpt lat="42.91196" lon="0.19489">
        <ele>2104</ele>
        <time>2019-03-24T12:19:03Z</time>
      </trkpt>
      <trkpt lat="42.91198" lon="0.19478">
        <ele>2106</ele>
        <time>2019-03-24T12:19:16Z</time>
      </trkpt>
      <trkpt lat="42.91203" lon="0.19475">
        <ele>2108</ele>
        <time>2019-03-24T12:19:26Z</time>
      </trkpt>
      <trkpt lat="42.91213" lon="0.19481">
        <ele>2110</ele>
        <time>2019-03-24T12:19:41Z</time>
      </trkpt>
      <trkpt lat="42.91221" lon="0.19487">
        <ele>2112</ele>
        <time>2019-03-24T12:19:54Z</time>
      </trkpt>
      <trkpt lat="42.91226" lon="0.1949">
        <ele>2113</ele>
        <time>2019-03-24T12:20:07Z</time>
      </trkpt>
      <trkpt lat="42.91224" lon="0.1949">
        <ele>2112</ele>
        <time>2019-03-24T12:20:25Z</time>
      </trkpt>
      <trkpt lat="42.91225" lon="0.1949">
        <ele>2112</ele>
        <time>2019-03-24T12:20:43Z</time>
      </trkpt>
      <trkpt lat="42.91225" lon="0.1949">
        <ele>2112</ele>
        <time>2019-03-24T12:21:11Z</time>
      </trkpt>
      <trkpt lat="42.91224" lon="0.19491">
        <ele>2112</ele>
        <time>2019-03-24T12:21:24Z</time>
      </trkpt>
      <trkpt lat="42.91224" lon="0.19491">
        <ele>2112</ele>
        <time>2019-03-24T12:21:45Z</time>
      </trkpt>
      <trkpt lat="42.91222" lon="0.19487">
        <ele>2112</ele>
        <time>2019-03-24T12:22:10Z</time>
      </trkpt>
      <trkpt lat="42.91222" lon="0.19485">
        <ele>2112</ele>
        <time>2019-03-24T12:22:27Z</time>
      </trkpt>
      <trkpt lat="42.91222" lon="0.19486">
        <ele>2111</ele>
        <time>2019-03-24T12:22:43Z</time>
      </trkpt>
      <trkpt lat="42.91222" lon="0.19487">
        <ele>2111</ele>
        <time>2019-03-24T12:23:04Z</time>
      </trkpt>
      <trkpt lat="42.91221" lon="0.19488">
        <ele>2111</ele>
        <time>2019-03-24T12:23:41Z</time>
      </trkpt>
      <trkpt lat="42.91221" lon="0.19489">
        <ele>2110</ele>
        <time>2019-03-24T12:24:17Z</time>
      </trkpt>
      <trkpt lat="42.91223" lon="0.19486">
        <ele>2111</ele>
        <time>2019-03-24T12:24:48Z</time>
      </trkpt>
      <trkpt lat="42.91223" lon="0.19487">
        <ele>2111</ele>
        <time>2019-03-24T12:25:04Z</time>
      </trkpt>
      <trkpt lat="42.91223" lon="0.19488">
        <ele>2111</ele>
        <time>2019-03-24T12:25:40Z</time>
      </trkpt>
      <trkpt lat="42.91222" lon="0.1949">
        <ele>2111</ele>
        <time>2019-03-24T12:26:20Z</time>
      </trkpt>
      <trkpt lat="42.91222" lon="0.19489">
        <ele>2113</ele>
        <time>2019-03-24T12:26:59Z</time>
      </trkpt>
      <trkpt lat="42.91222" lon="0.19491">
        <ele>2111</ele>
        <time>2019-03-24T12:27:42Z</time>
      </trkpt>
      <trkpt lat="42.91221" lon="0.1949">
        <ele>2110</ele>
        <time>2019-03-24T12:28:23Z</time>
      </trkpt>
      <trkpt lat="42.91221" lon="0.19491">
        <ele>2110</ele>
        <time>2019-03-24T12:29:06Z</time>
      </trkpt>
      <trkpt lat="42.91222" lon="0.19489">
        <ele>2110</ele>
        <time>2019-03-24T12:29:49Z</time>
      </trkpt>
      <trkpt lat="42.91221" lon="0.1949">
        <ele>2110</ele>
        <time>2019-03-24T12:30:30Z</time>
      </trkpt>
      <trkpt lat="42.91221" lon="0.19492">
        <ele>2110</ele>
        <time>2019-03-24T12:31:24Z</time>
      </trkpt>
      <trkpt lat="42.91221" lon="0.19489">
        <ele>2110</ele>
        <time>2019-03-24T12:31:58Z</time>
      </trkpt>
      <trkpt lat="42.91222" lon="0.19489">
        <ele>2110</ele>
        <time>2019-03-24T12:32:18Z</time>
      </trkpt>
      <trkpt lat="42.91222" lon="0.19489">
        <ele>2110</ele>
        <time>2019-03-24T12:32:48Z</time>
      </trkpt>
      <trkpt lat="42.91221" lon="0.19488">
        <ele>2110</ele>
        <time>2019-03-24T12:33:14Z</time>
      </trkpt>
      <trkpt lat="42.91221" lon="0.19488">
        <ele>2110</ele>
        <time>2019-03-24T12:33:40Z</time>
      </trkpt>
      <trkpt lat="42.91221" lon="0.19487">
        <ele>2110</ele>
        <time>2019-03-24T12:34:16Z</time>
      </trkpt>
      <trkpt lat="42.91222" lon="0.19488">
        <ele>2110</ele>
        <time>2019-03-24T12:34:58Z</time>
      </trkpt>
      <trkpt lat="42.91223" lon="0.19488">
        <ele>2110</ele>
        <time>2019-03-24T12:35:36Z</time>
      </trkpt>
      <trkpt lat="42.91222" lon="0.19489">
        <ele>2110</ele>
        <time>2019-03-24T12:36:12Z</time>
      </trkpt>
      <trkpt lat="42.91222" lon="0.1949">
        <ele>2110</ele>
        <time>2019-03-24T12:36:58Z</time>
      </trkpt>
      <trkpt lat="42.91223" lon="0.19489">
        <ele>2112</ele>
        <time>2019-03-24T12:37:20Z</time>
      </trkpt>
      <trkpt lat="42.91226" lon="0.19493">
        <ele>2111</ele>
        <time>2019-03-24T12:37:32Z</time>
      </trkpt>
      <trkpt lat="42.91226" lon="0.19494">
        <ele>2110</ele>
        <time>2019-03-24T12:38:03Z</time>
      </trkpt>
      <trkpt lat="42.91225" lon="0.19494">
        <ele>2110</ele>
        <time>2019-03-24T12:38:32Z</time>
      </trkpt>
      <trkpt lat="42.91224" lon="0.19493">
        <ele>2110</ele>
        <time>2019-03-24T12:39:04Z</time>
      </trkpt>
      <trkpt lat="42.91224" lon="0.19493">
        <ele>2110</ele>
        <time>2019-03-24T12:39:37Z</time>
      </trkpt>
      <trkpt lat="42.91225" lon="0.19493">
        <ele>2110</ele>
        <time>2019-03-24T12:40:12Z</time>
      </trkpt>
      <trkpt lat="42.91225" lon="0.19493">
        <ele>2109</ele>
        <time>2019-03-24T12:40:41Z</time>
      </trkpt>
      <trkpt lat="42.91225" lon="0.19492">
        <ele>2110</ele>
        <time>2019-03-24T12:41:12Z</time>
      </trkpt>
      <trkpt lat="42.91224" lon="0.19493">
        <ele>2110</ele>
        <time>2019-03-24T12:41:44Z</time>
      </trkpt>
      <trkpt lat="42.91225" lon="0.19494">
        <ele>2110</ele>
        <time>2019-03-24T12:42:14Z</time>
      </trkpt>
      <trkpt lat="42.91225" lon="0.19494">
        <ele>2110</ele>
        <time>2019-03-24T12:42:53Z</time>
      </trkpt>
      <trkpt lat="42.91225" lon="0.19495">
        <ele>2110</ele>
        <time>2019-03-24T12:43:30Z</time>
      </trkpt>
      <trkpt lat="42.91224" lon="0.19495">
        <ele>2110</ele>
        <time>2019-03-24T12:43:48Z</time>
      </trkpt>
      <trkpt lat="42.91223" lon="0.19494">
        <ele>2110</ele>
        <time>2019-03-24T12:44:05Z</time>
      </trkpt>
      <trkpt lat="42.91224" lon="0.19494">
        <ele>2111</ele>
        <time>2019-03-24T12:44:34Z</time>
      </trkpt>
      <trkpt lat="42.91225" lon="0.19493">
        <ele>2112</ele>
        <time>2019-03-24T12:44:49Z</time>
      </trkpt>
      <trkpt lat="42.91224" lon="0.19492">
        <ele>2111</ele>
        <time>2019-03-24T12:45:04Z</time>
      </trkpt>
      <trkpt lat="42.91225" lon="0.19494">
        <ele>2111</ele>
        <time>2019-03-24T12:45:24Z</time>
      </trkpt>
      <trkpt lat="42.91224" lon="0.19494">
        <ele>2111</ele>
        <time>2019-03-24T12:45:44Z</time>
      </trkpt>
      <trkpt lat="42.91224" lon="0.19494">
        <ele>2111</ele>
        <time>2019-03-24T12:46:01Z</time>
      </trkpt>
      <trkpt lat="42.91223" lon="0.19495">
        <ele>2112</ele>
        <time>2019-03-24T12:46:19Z</time>
      </trkpt>
      <trkpt lat="42.91224" lon="0.19495">
        <ele>2111</ele>
        <time>2019-03-24T12:46:36Z</time>
      </trkpt>
      <trkpt lat="42.91223" lon="0.19495">
        <ele>2111</ele>
        <time>2019-03-24T12:46:40Z</time>
      </trkpt>
      <trkpt lat="42.91223" lon="0.19507">
        <ele>2110</ele>
        <time>2019-03-24T12:46:45Z</time>
      </trkpt>
      <trkpt lat="42.91232" lon="0.19524">
        <ele>2106</ele>
        <time>2019-03-24T12:46:51Z</time>
      </trkpt>
      <trkpt lat="42.91234" lon="0.19525">
        <ele>2106</ele>
        <time>2019-03-24T12:46:52Z</time>
      </trkpt>
      <trkpt lat="42.91237" lon="0.1953">
        <ele>2105</ele>
        <time>2019-03-24T12:46:54Z</time>
      </trkpt>
      <trkpt lat="42.91239" lon="0.1954">
        <ele>2103</ele>
        <time>2019-03-24T12:46:56Z</time>
      </trkpt>
      <trkpt lat="42.91244" lon="0.19549">
        <ele>2102</ele>
        <time>2019-03-24T12:46:58Z</time>
      </trkpt>
      <trkpt lat="42.91252" lon="0.19563">
        <ele>2100</ele>
        <time>2019-03-24T12:47:02Z</time>
      </trkpt>
      <trkpt lat="42.91259" lon="0.1957">
        <ele>2095</ele>
        <time>2019-03-24T12:47:07Z</time>
      </trkpt>
      <trkpt lat="42.91259" lon="0.19571">
        <ele>2096</ele>
        <time>2019-03-24T12:47:08Z</time>
      </trkpt>
      <trkpt lat="42.91258" lon="0.19573">
        <ele>2095</ele>
        <time>2019-03-24T12:47:11Z</time>
      </trkpt>
      <trkpt lat="42.91258" lon="0.19575">
        <ele>2094</ele>
        <time>2019-03-24T12:47:12Z</time>
      </trkpt>
      <trkpt lat="42.91262" lon="0.19585">
        <ele>2091</ele>
        <time>2019-03-24T12:47:15Z</time>
      </trkpt>
      <trkpt lat="42.91265" lon="0.19597">
        <ele>2085</ele>
        <time>2019-03-24T12:47:18Z</time>
      </trkpt>
      <trkpt lat="42.91267" lon="0.19608">
        <ele>2081</ele>
        <time>2019-03-24T12:47:21Z</time>
      </trkpt>
      <trkpt lat="42.91267" lon="0.19612">
        <ele>2077</ele>
        <time>2019-03-24T12:47:22Z</time>
      </trkpt>
      <trkpt lat="42.9127" lon="0.19619">
        <ele>2072</ele>
        <time>2019-03-24T12:47:24Z</time>
      </trkpt>
      <trkpt lat="42.9127" lon="0.19624">
        <ele>2068</ele>
        <time>2019-03-24T12:47:25Z</time>
      </trkpt>
      <trkpt lat="42.91274" lon="0.19638">
        <ele>2064</ele>
        <time>2019-03-24T12:47:28Z</time>
      </trkpt>
      <trkpt lat="42.91274" lon="0.19644">
        <ele>2060</ele>
        <time>2019-03-24T12:47:29Z</time>
      </trkpt>
      <trkpt lat="42.91277" lon="0.19649">
        <ele>2056</ele>
        <time>2019-03-24T12:47:31Z</time>
      </trkpt>
      <trkpt lat="42.9128" lon="0.19656">
        <ele>2051</ele>
        <time>2019-03-24T12:47:33Z</time>
      </trkpt>
      <trkpt lat="42.91284" lon="0.19661">
        <ele>2047</ele>
        <time>2019-03-24T12:47:35Z</time>
      </trkpt>
      <trkpt lat="42.91292" lon="0.19661">
        <ele>2044</ele>
        <time>2019-03-24T12:47:38Z</time>
      </trkpt>
      <trkpt lat="42.9129" lon="0.19669">
        <ele>2041</ele>
        <time>2019-03-24T12:47:42Z</time>
      </trkpt>
      <trkpt lat="42.91286" lon="0.19674">
        <ele>2041</ele>
        <time>2019-03-24T12:47:52Z</time>
      </trkpt>
      <trkpt lat="42.91284" lon="0.19679">
        <ele>2041</ele>
        <time>2019-03-24T12:48:01Z</time>
      </trkpt>
      <trkpt lat="42.9127" lon="0.19698">
        <ele>2040</ele>
        <time>2019-03-24T12:48:17Z</time>
      </trkpt>
      <trkpt lat="42.91271" lon="0.19698">
        <ele>2040</ele>
        <time>2019-03-24T12:48:37Z</time>
      </trkpt>
      <trkpt lat="42.91264" lon="0.19704">
        <ele>2039</ele>
        <time>2019-03-24T12:48:57Z</time>
      </trkpt>
      <trkpt lat="42.91265" lon="0.19702">
        <ele>2039</ele>
        <time>2019-03-24T12:49:20Z</time>
      </trkpt>
      <trkpt lat="42.91263" lon="0.19702">
        <ele>2040</ele>
        <time>2019-03-24T12:49:51Z</time>
      </trkpt>
      <trkpt lat="42.91257" lon="0.19709">
        <ele>2038</ele>
        <time>2019-03-24T12:49:56Z</time>
      </trkpt>
      <trkpt lat="42.91257" lon="0.19716">
        <ele>2037</ele>
        <time>2019-03-24T12:49:58Z</time>
      </trkpt>
      <trkpt lat="42.91256" lon="0.19724">
        <ele>2031</ele>
        <time>2019-03-24T12:50:00Z</time>
      </trkpt>
      <trkpt lat="42.91255" lon="0.19727">
        <ele>2029</ele>
        <time>2019-03-24T12:50:01Z</time>
      </trkpt>
      <trkpt lat="42.91254" lon="0.1974">
        <ele>2024</ele>
        <time>2019-03-24T12:50:04Z</time>
      </trkpt>
      <trkpt lat="42.91256" lon="0.1975">
        <ele>2018</ele>
        <time>2019-03-24T12:50:06Z</time>
      </trkpt>
      <trkpt lat="42.91255" lon="0.19755">
        <ele>2014</ele>
        <time>2019-03-24T12:50:07Z</time>
      </trkpt>
      <trkpt lat="42.91248" lon="0.19765">
        <ele>2011</ele>
        <time>2019-03-24T12:50:09Z</time>
      </trkpt>
      <trkpt lat="42.91238" lon="0.19777">
        <ele>2008</ele>
        <time>2019-03-24T12:50:12Z</time>
      </trkpt>
      <trkpt lat="42.91228" lon="0.19792">
        <ele>2005</ele>
        <time>2019-03-24T12:50:15Z</time>
      </trkpt>
      <trkpt lat="42.91231" lon="0.19821">
        <ele>1998</ele>
        <time>2019-03-24T12:50:20Z</time>
      </trkpt>
      <trkpt lat="42.91237" lon="0.19834">
        <ele>1993</ele>
        <time>2019-03-24T12:50:22Z</time>
      </trkpt>
      <trkpt lat="42.91237" lon="0.19842">
        <ele>1989</ele>
        <time>2019-03-24T12:50:23Z</time>
      </trkpt>
      <trkpt lat="42.91235" lon="0.19858">
        <ele>1987</ele>
        <time>2019-03-24T12:50:25Z</time>
      </trkpt>
      <trkpt lat="42.91231" lon="0.19869">
        <ele>1987</ele>
        <time>2019-03-24T12:50:30Z</time>
      </trkpt>
      <trkpt lat="42.91231" lon="0.19867">
        <ele>1987</ele>
        <time>2019-03-24T12:50:50Z</time>
      </trkpt>
      <trkpt lat="42.91231" lon="0.19867">
        <ele>1988</ele>
        <time>2019-03-24T12:51:21Z</time>
      </trkpt>
      <trkpt lat="42.9123" lon="0.19867">
        <ele>1987</ele>
        <time>2019-03-24T12:51:43Z</time>
      </trkpt>
      <trkpt lat="42.91231" lon="0.19881">
        <ele>1985</ele>
        <time>2019-03-24T12:51:48Z</time>
      </trkpt>
      <trkpt lat="42.91236" lon="0.19888">
        <ele>1979</ele>
        <time>2019-03-24T12:51:50Z</time>
      </trkpt>
      <trkpt lat="42.91239" lon="0.19891">
        <ele>1978</ele>
        <time>2019-03-24T12:51:51Z</time>
      </trkpt>
      <trkpt lat="42.91242" lon="0.19896">
        <ele>1974</ele>
        <time>2019-03-24T12:51:52Z</time>
      </trkpt>
      <trkpt lat="42.91242" lon="0.19903">
        <ele>1969</ele>
        <time>2019-03-24T12:51:53Z</time>
      </trkpt>
      <trkpt lat="42.91243" lon="0.19909">
        <ele>1970</ele>
        <time>2019-03-24T12:51:54Z</time>
      </trkpt>
      <trkpt lat="42.91249" lon="0.19922">
        <ele>1964</ele>
        <time>2019-03-24T12:51:56Z</time>
      </trkpt>
      <trkpt lat="42.91249" lon="0.1993">
        <ele>1960</ele>
        <time>2019-03-24T12:51:57Z</time>
      </trkpt>
      <trkpt lat="42.91249" lon="0.19938">
        <ele>1960</ele>
        <time>2019-03-24T12:51:58Z</time>
      </trkpt>
      <trkpt lat="42.91249" lon="0.19958">
        <ele>1958</ele>
        <time>2019-03-24T12:52:01Z</time>
      </trkpt>
      <trkpt lat="42.91248" lon="0.19973">
        <ele>1956</ele>
        <time>2019-03-24T12:52:04Z</time>
      </trkpt>
      <trkpt lat="42.91247" lon="0.19991">
        <ele>1951</ele>
        <time>2019-03-24T12:52:07Z</time>
      </trkpt>
      <trkpt lat="42.91256" lon="0.2001">
        <ele>1943</ele>
        <time>2019-03-24T12:52:11Z</time>
      </trkpt>
      <trkpt lat="42.91256" lon="0.20017">
        <ele>1941</ele>
        <time>2019-03-24T12:52:12Z</time>
      </trkpt>
      <trkpt lat="42.91253" lon="0.20033">
        <ele>1940</ele>
        <time>2019-03-24T12:52:20Z</time>
      </trkpt>
      <trkpt lat="42.91253" lon="0.20033">
        <ele>1939</ele>
        <time>2019-03-24T12:52:34Z</time>
      </trkpt>
      <trkpt lat="42.91268" lon="0.20033">
        <ele>1934</ele>
        <time>2019-03-24T12:52:39Z</time>
      </trkpt>
      <trkpt lat="42.91271" lon="0.20037">
        <ele>1930</ele>
        <time>2019-03-24T12:52:40Z</time>
      </trkpt>
      <trkpt lat="42.91279" lon="0.20053">
        <ele>1923</ele>
        <time>2019-03-24T12:52:43Z</time>
      </trkpt>
      <trkpt lat="42.91284" lon="0.20066">
        <ele>1919</ele>
        <time>2019-03-24T12:52:45Z</time>
      </trkpt>
      <trkpt lat="42.91287" lon="0.20073">
        <ele>1914</ele>
        <time>2019-03-24T12:52:46Z</time>
      </trkpt>
      <trkpt lat="42.91287" lon="0.20082">
        <ele>1910</ele>
        <time>2019-03-24T12:52:47Z</time>
      </trkpt>
      <trkpt lat="42.91291" lon="0.2009">
        <ele>1909</ele>
        <time>2019-03-24T12:52:48Z</time>
      </trkpt>
      <trkpt lat="42.91295" lon="0.20097">
        <ele>1904</ele>
        <time>2019-03-24T12:52:49Z</time>
      </trkpt>
      <trkpt lat="42.91302" lon="0.20122">
        <ele>1894</ele>
        <time>2019-03-24T12:52:52Z</time>
      </trkpt>
      <trkpt lat="42.91304" lon="0.20129">
        <ele>1891</ele>
        <time>2019-03-24T12:52:53Z</time>
      </trkpt>
      <trkpt lat="42.91308" lon="0.20137">
        <ele>1891</ele>
        <time>2019-03-24T12:52:54Z</time>
      </trkpt>
      <trkpt lat="42.91309" lon="0.20145">
        <ele>1887</ele>
        <time>2019-03-24T12:52:55Z</time>
      </trkpt>
      <trkpt lat="42.91313" lon="0.20157">
        <ele>1883</ele>
        <time>2019-03-24T12:52:57Z</time>
      </trkpt>
      <trkpt lat="42.91312" lon="0.20161">
        <ele>1878</ele>
        <time>2019-03-24T12:52:58Z</time>
      </trkpt>
      <trkpt lat="42.91308" lon="0.20161">
        <ele>1879</ele>
        <time>2019-03-24T12:53:02Z</time>
      </trkpt>
      <trkpt lat="42.9131" lon="0.20163">
        <ele>1880</ele>
        <time>2019-03-24T12:53:29Z</time>
      </trkpt>
      <trkpt lat="42.9131" lon="0.20164">
        <ele>1880</ele>
        <time>2019-03-24T12:53:30Z</time>
      </trkpt>
      <trkpt lat="42.9132" lon="0.20158">
        <ele>1878</ele>
        <time>2019-03-24T12:53:35Z</time>
      </trkpt>
      <trkpt lat="42.91322" lon="0.20153">
        <ele>1876</ele>
        <time>2019-03-24T12:53:53Z</time>
      </trkpt>
      <trkpt lat="42.91321" lon="0.20151">
        <ele>1876</ele>
        <time>2019-03-24T12:54:30Z</time>
      </trkpt>
      <trkpt lat="42.91323" lon="0.20151">
        <ele>1875</ele>
        <time>2019-03-24T12:54:59Z</time>
      </trkpt>
      <trkpt lat="42.91328" lon="0.20143">
        <ele>1875</ele>
        <time>2019-03-24T12:55:21Z</time>
      </trkpt>
      <trkpt lat="42.91333" lon="0.20134">
        <ele>1873</ele>
        <time>2019-03-24T12:55:24Z</time>
      </trkpt>
      <trkpt lat="42.91345" lon="0.20117">
        <ele>1870</ele>
        <time>2019-03-24T12:55:35Z</time>
      </trkpt>
      <trkpt lat="42.91346" lon="0.20111">
        <ele>1870</ele>
        <time>2019-03-24T12:55:58Z</time>
      </trkpt>
      <trkpt lat="42.91355" lon="0.20098">
        <ele>1868</ele>
        <time>2019-03-24T12:56:04Z</time>
      </trkpt>
      <trkpt lat="42.91359" lon="0.20107">
        <ele>1864</ele>
        <time>2019-03-24T12:56:09Z</time>
      </trkpt>
      <trkpt lat="42.91363" lon="0.20109">
        <ele>1860</ele>
        <time>2019-03-24T12:56:11Z</time>
      </trkpt>
      <trkpt lat="42.91365" lon="0.20115">
        <ele>1856</ele>
        <time>2019-03-24T12:56:13Z</time>
      </trkpt>
      <trkpt lat="42.9137" lon="0.20121">
        <ele>1851</ele>
        <time>2019-03-24T12:56:17Z</time>
      </trkpt>
      <trkpt lat="42.91376" lon="0.20116">
        <ele>1848</ele>
        <time>2019-03-24T12:56:19Z</time>
      </trkpt>
      <trkpt lat="42.9138" lon="0.20119">
        <ele>1843</ele>
        <time>2019-03-24T12:56:22Z</time>
      </trkpt>
      <trkpt lat="42.91389" lon="0.20118">
        <ele>1840</ele>
        <time>2019-03-24T12:56:24Z</time>
      </trkpt>
      <trkpt lat="42.91414" lon="0.20106">
        <ele>1834</ele>
        <time>2019-03-24T12:56:31Z</time>
      </trkpt>
      <trkpt lat="42.91427" lon="0.20107">
        <ele>1830</ele>
        <time>2019-03-24T12:56:34Z</time>
      </trkpt>
      <trkpt lat="42.91436" lon="0.2011">
        <ele>1827</ele>
        <time>2019-03-24T12:56:39Z</time>
      </trkpt>
      <trkpt lat="42.9144" lon="0.20112">
        <ele>1826</ele>
        <time>2019-03-24T12:56:51Z</time>
      </trkpt>
      <trkpt lat="42.91439" lon="0.20111">
        <ele>1826</ele>
        <time>2019-03-24T12:56:56Z</time>
      </trkpt>
      <trkpt lat="42.91439" lon="0.20129">
        <ele>1821</ele>
        <time>2019-03-24T12:57:00Z</time>
      </trkpt>
      <trkpt lat="42.91442" lon="0.20133">
        <ele>1821</ele>
        <time>2019-03-24T12:57:01Z</time>
      </trkpt>
      <trkpt lat="42.91447" lon="0.20145">
        <ele>1817</ele>
        <time>2019-03-24T12:57:03Z</time>
      </trkpt>
      <trkpt lat="42.91446" lon="0.20152">
        <ele>1814</ele>
        <time>2019-03-24T12:57:04Z</time>
      </trkpt>
      <trkpt lat="42.9145" lon="0.20162">
        <ele>1810</ele>
        <time>2019-03-24T12:57:06Z</time>
      </trkpt>
      <trkpt lat="42.91453" lon="0.20173">
        <ele>1805</ele>
        <time>2019-03-24T12:57:08Z</time>
      </trkpt>
      <trkpt lat="42.91457" lon="0.20187">
        <ele>1800</ele>
        <time>2019-03-24T12:57:10Z</time>
      </trkpt>
      <trkpt lat="42.91462" lon="0.20191">
        <ele>1797</ele>
        <time>2019-03-24T12:57:11Z</time>
      </trkpt>
      <trkpt lat="42.91468" lon="0.20205">
        <ele>1793</ele>
        <time>2019-03-24T12:57:13Z</time>
      </trkpt>
      <trkpt lat="42.91466" lon="0.20222">
        <ele>1790</ele>
        <time>2019-03-24T12:57:15Z</time>
      </trkpt>
      <trkpt lat="42.91473" lon="0.20231">
        <ele>1786</ele>
        <time>2019-03-24T12:57:17Z</time>
      </trkpt>
      <trkpt lat="42.91478" lon="0.20244">
        <ele>1782</ele>
        <time>2019-03-24T12:57:20Z</time>
      </trkpt>
      <trkpt lat="42.91477" lon="0.20249">
        <ele>1782</ele>
        <time>2019-03-24T12:57:21Z</time>
      </trkpt>
      <trkpt lat="42.91476" lon="0.20258">
        <ele>1779</ele>
        <time>2019-03-24T12:57:23Z</time>
      </trkpt>
      <trkpt lat="42.91473" lon="0.20258">
        <ele>1780</ele>
        <time>2019-03-24T12:57:35Z</time>
      </trkpt>
      <trkpt lat="42.91466" lon="0.20269">
        <ele>1777</ele>
        <time>2019-03-24T12:57:53Z</time>
      </trkpt>
      <trkpt lat="42.91466" lon="0.20268">
        <ele>1777</ele>
        <time>2019-03-24T12:57:55Z</time>
      </trkpt>
      <trkpt lat="42.91471" lon="0.20269">
        <ele>1774</ele>
        <time>2019-03-24T12:57:59Z</time>
      </trkpt>
      <trkpt lat="42.91473" lon="0.20269">
        <ele>1773</ele>
        <time>2019-03-24T12:58:01Z</time>
      </trkpt>
      <trkpt lat="42.91474" lon="0.2027">
        <ele>1772</ele>
        <time>2019-03-24T12:58:04Z</time>
      </trkpt>
      <trkpt lat="42.91482" lon="0.20273">
        <ele>1769</ele>
        <time>2019-03-24T12:58:13Z</time>
      </trkpt>
      <trkpt lat="42.91483" lon="0.20273">
        <ele>1769</ele>
        <time>2019-03-24T12:58:14Z</time>
      </trkpt>
      <trkpt lat="42.9148" lon="0.20288">
        <ele>1764</ele>
        <time>2019-03-24T12:58:18Z</time>
      </trkpt>
      <trkpt lat="42.91477" lon="0.20296">
        <ele>1762</ele>
        <time>2019-03-24T12:58:21Z</time>
      </trkpt>
      <trkpt lat="42.9149" lon="0.20308">
        <ele>1756</ele>
        <time>2019-03-24T12:58:25Z</time>
      </trkpt>
      <trkpt lat="42.91493" lon="0.20311">
        <ele>1755</ele>
        <time>2019-03-24T12:58:26Z</time>
      </trkpt>
      <trkpt lat="42.91503" lon="0.20321">
        <ele>1753</ele>
        <time>2019-03-24T12:58:29Z</time>
      </trkpt>
      <trkpt lat="42.91516" lon="0.20331">
        <ele>1750</ele>
        <time>2019-03-24T12:58:33Z</time>
      </trkpt>
      <trkpt lat="42.91523" lon="0.20336">
        <ele>1749</ele>
        <time>2019-03-24T12:58:35Z</time>
      </trkpt>
      <trkpt lat="42.91525" lon="0.20339">
        <ele>1748</ele>
        <time>2019-03-24T12:58:42Z</time>
      </trkpt>
      <trkpt lat="42.91524" lon="0.20342">
        <ele>1748</ele>
        <time>2019-03-24T12:59:04Z</time>
      </trkpt>
      <trkpt lat="42.91525" lon="0.20337">
        <ele>1748</ele>
        <time>2019-03-24T12:59:31Z</time>
      </trkpt>
      <trkpt lat="42.91524" lon="0.20336">
        <ele>1748</ele>
        <time>2019-03-24T12:59:57Z</time>
      </trkpt>
      <trkpt lat="42.91525" lon="0.20337">
        <ele>1748</ele>
        <time>2019-03-24T13:00:17Z</time>
      </trkpt>
      <trkpt lat="42.91527" lon="0.20336">
        <ele>1748</ele>
        <time>2019-03-24T13:00:35Z</time>
      </trkpt>
      <trkpt lat="42.91535" lon="0.20337">
        <ele>1751</ele>
        <time>2019-03-24T13:00:46Z</time>
      </trkpt>
      <trkpt lat="42.91535" lon="0.20337">
        <ele>1751</ele>
        <time>2019-03-24T13:00:47Z</time>
      </trkpt>
      <trkpt lat="42.91537" lon="0.20343">
        <ele>1751</ele>
        <time>2019-03-24T13:00:51Z</time>
      </trkpt>
      <trkpt lat="42.91536" lon="0.20346">
        <ele>1751</ele>
        <time>2019-03-24T13:01:05Z</time>
      </trkpt>
      <trkpt lat="42.91538" lon="0.20354">
        <ele>1751</ele>
        <time>2019-03-24T13:01:22Z</time>
      </trkpt>
      <trkpt lat="42.91538" lon="0.20365">
        <ele>1750</ele>
        <time>2019-03-24T13:01:34Z</time>
      </trkpt>
      <trkpt lat="42.91537" lon="0.20364">
        <ele>1749</ele>
        <time>2019-03-24T13:01:55Z</time>
      </trkpt>
      <trkpt lat="42.91541" lon="0.20362">
        <ele>1750</ele>
        <time>2019-03-24T13:02:08Z</time>
      </trkpt>
      <trkpt lat="42.91544" lon="0.20365">
        <ele>1748</ele>
        <time>2019-03-24T13:02:11Z</time>
      </trkpt>
      <trkpt lat="42.91546" lon="0.20371">
        <ele>1747</ele>
        <time>2019-03-24T13:02:15Z</time>
      </trkpt>
      <trkpt lat="42.91555" lon="0.20383">
        <ele>1747</ele>
        <time>2019-03-24T13:02:26Z</time>
      </trkpt>
      <trkpt lat="42.9156" lon="0.20399">
        <ele>1746</ele>
        <time>2019-03-24T13:02:40Z</time>
      </trkpt>
      <trkpt lat="42.9156" lon="0.20402">
        <ele>1747</ele>
        <time>2019-03-24T13:02:52Z</time>
      </trkpt>
      <trkpt lat="42.91562" lon="0.20402">
        <ele>1747</ele>
        <time>2019-03-24T13:03:19Z</time>
      </trkpt>
      <trkpt lat="42.91561" lon="0.20403">
        <ele>1746</ele>
        <time>2019-03-24T13:03:47Z</time>
      </trkpt>
      <trkpt lat="42.91562" lon="0.20396">
        <ele>1746</ele>
        <time>2019-03-24T13:04:08Z</time>
      </trkpt>
      <trkpt lat="42.91562" lon="0.20395">
        <ele>1746</ele>
        <time>2019-03-24T13:04:11Z</time>
      </trkpt>
      <trkpt lat="42.91572" lon="0.20396">
        <ele>1746</ele>
        <time>2019-03-24T13:04:19Z</time>
      </trkpt>
      <trkpt lat="42.91579" lon="0.20402">
        <ele>1746</ele>
        <time>2019-03-24T13:04:26Z</time>
      </trkpt>
      <trkpt lat="42.91581" lon="0.20409">
        <ele>1746</ele>
        <time>2019-03-24T13:04:41Z</time>
      </trkpt>
      <trkpt lat="42.91582" lon="0.20413">
        <ele>1746</ele>
        <time>2019-03-24T13:05:13Z</time>
      </trkpt>
      <trkpt lat="42.9158" lon="0.20412">
        <ele>1746</ele>
        <time>2019-03-24T13:05:43Z</time>
      </trkpt>
      <trkpt lat="42.91581" lon="0.20411">
        <ele>1746</ele>
        <time>2019-03-24T13:06:15Z</time>
      </trkpt>
      <trkpt lat="42.91584" lon="0.20414">
        <ele>1746</ele>
        <time>2019-03-24T13:06:46Z</time>
      </trkpt>
      <trkpt lat="42.91591" lon="0.20406">
        <ele>1746</ele>
        <time>2019-03-24T13:07:06Z</time>
      </trkpt>
      <trkpt lat="42.91593" lon="0.20404">
        <ele>1746</ele>
        <time>2019-03-24T13:07:20Z</time>
      </trkpt>
      <trkpt lat="42.91593" lon="0.20402">
        <ele>1745</ele>
        <time>2019-03-24T13:07:45Z</time>
      </trkpt>
      <trkpt lat="42.91594" lon="0.20403">
        <ele>1745</ele>
        <time>2019-03-24T13:08:07Z</time>
      </trkpt>
      <trkpt lat="42.91596" lon="0.20401">
        <ele>1746</ele>
        <time>2019-03-24T13:08:23Z</time>
      </trkpt>
      <trkpt lat="42.91608" lon="0.20399">
        <ele>1745</ele>
        <time>2019-03-24T13:08:34Z</time>
      </trkpt>
      <trkpt lat="42.91613" lon="0.20396">
        <ele>1745</ele>
        <time>2019-03-24T13:08:39Z</time>
      </trkpt>
      <trkpt lat="42.91624" lon="0.2039">
        <ele>1744</ele>
        <time>2019-03-24T13:08:46Z</time>
      </trkpt>
      <trkpt lat="42.91634" lon="0.20385">
        <ele>1744</ele>
        <time>2019-03-24T13:08:53Z</time>
      </trkpt>
      <trkpt lat="42.91643" lon="0.2038">
        <ele>1745</ele>
        <time>2019-03-24T13:09:05Z</time>
      </trkpt>
      <trkpt lat="42.91648" lon="0.20377">
        <ele>1745</ele>
        <time>2019-03-24T13:09:11Z</time>
      </trkpt>
      <trkpt lat="42.91654" lon="0.20373">
        <ele>1744</ele>
        <time>2019-03-24T13:09:16Z</time>
      </trkpt>
      <trkpt lat="42.91659" lon="0.2037">
        <ele>1744</ele>
        <time>2019-03-24T13:09:20Z</time>
      </trkpt>
      <trkpt lat="42.91671" lon="0.2036">
        <ele>1744</ele>
        <time>2019-03-24T13:09:34Z</time>
      </trkpt>
      <trkpt lat="42.91677" lon="0.20357">
        <ele>1743</ele>
        <time>2019-03-24T13:09:38Z</time>
      </trkpt>
      <trkpt lat="42.91689" lon="0.20347">
        <ele>1743</ele>
        <time>2019-03-24T13:09:51Z</time>
      </trkpt>
      <trkpt lat="42.91699" lon="0.20337">
        <ele>1743</ele>
        <time>2019-03-24T13:10:03Z</time>
      </trkpt>
      <trkpt lat="42.917" lon="0.20336">
        <ele>1742</ele>
        <time>2019-03-24T13:10:04Z</time>
      </trkpt>
      <trkpt lat="42.91709" lon="0.20327">
        <ele>1743</ele>
        <time>2019-03-24T13:10:10Z</time>
      </trkpt>
      <trkpt lat="42.91729" lon="0.20308">
        <ele>1742</ele>
        <time>2019-03-24T13:10:24Z</time>
      </trkpt>
      <trkpt lat="42.91752" lon="0.20292">
        <ele>1738</ele>
        <time>2019-03-24T13:10:36Z</time>
      </trkpt>
      <trkpt lat="42.91763" lon="0.20283">
        <ele>1737</ele>
        <time>2019-03-24T13:10:41Z</time>
      </trkpt>
      <trkpt lat="42.9177" lon="0.20278">
        <ele>1736</ele>
        <time>2019-03-24T13:10:43Z</time>
      </trkpt>
      <trkpt lat="42.91791" lon="0.20256">
        <ele>1734</ele>
        <time>2019-03-24T13:10:48Z</time>
      </trkpt>
      <trkpt lat="42.91807" lon="0.20248">
        <ele>1733</ele>
        <time>2019-03-24T13:10:51Z</time>
      </trkpt>
      <trkpt lat="42.91832" lon="0.2025">
        <ele>1730</ele>
        <time>2019-03-24T13:10:55Z</time>
      </trkpt>
      <trkpt lat="42.91842" lon="0.20246">
        <ele>1729</ele>
        <time>2019-03-24T13:11:02Z</time>
      </trkpt>
      <trkpt lat="42.91845" lon="0.20238">
        <ele>1728</ele>
        <time>2019-03-24T13:11:16Z</time>
      </trkpt>
      <trkpt lat="42.91874" lon="0.20208">
        <ele>1725</ele>
        <time>2019-03-24T13:11:28Z</time>
      </trkpt>
      <trkpt lat="42.91887" lon="0.202">
        <ele>1724</ele>
        <time>2019-03-24T13:11:32Z</time>
      </trkpt>
      <trkpt lat="42.91904" lon="0.20195">
        <ele>1721</ele>
        <time>2019-03-24T13:11:36Z</time>
      </trkpt>
      <trkpt lat="42.91916" lon="0.20189">
        <ele>1720</ele>
        <time>2019-03-24T13:11:39Z</time>
      </trkpt>
      <trkpt lat="42.91941" lon="0.20164">
        <ele>1716</ele>
        <time>2019-03-24T13:11:45Z</time>
      </trkpt>
      <trkpt lat="42.91961" lon="0.20136">
        <ele>1713</ele>
        <time>2019-03-24T13:11:51Z</time>
      </trkpt>
      <trkpt lat="42.91976" lon="0.20124">
        <ele>1710</ele>
        <time>2019-03-24T13:11:55Z</time>
      </trkpt>
      <trkpt lat="42.91998" lon="0.20107">
        <ele>1707</ele>
        <time>2019-03-24T13:12:00Z</time>
      </trkpt>
      <trkpt lat="42.92012" lon="0.20071">
        <ele>1704</ele>
        <time>2019-03-24T13:12:06Z</time>
      </trkpt>
      <trkpt lat="42.92013" lon="0.20062">
        <ele>1703</ele>
        <time>2019-03-24T13:12:07Z</time>
      </trkpt>
      <trkpt lat="42.92013" lon="0.20033">
        <ele>1701</ele>
        <time>2019-03-24T13:12:11Z</time>
      </trkpt>
      <trkpt lat="42.92013" lon="0.20026">
        <ele>1700</ele>
        <time>2019-03-24T13:12:12Z</time>
      </trkpt>
      <trkpt lat="42.92012" lon="0.19983">
        <ele>1696</ele>
        <time>2019-03-24T13:12:20Z</time>
      </trkpt>
      <trkpt lat="42.92012" lon="0.19964">
        <ele>1694</ele>
        <time>2019-03-24T13:12:23Z</time>
      </trkpt>
      <trkpt lat="42.92013" lon="0.19952">
        <ele>1693</ele>
        <time>2019-03-24T13:12:25Z</time>
      </trkpt>
      <trkpt lat="42.92014" lon="0.19946">
        <ele>1693</ele>
        <time>2019-03-24T13:12:26Z</time>
      </trkpt>
      <trkpt lat="42.92012" lon="0.1992">
        <ele>1690</ele>
        <time>2019-03-24T13:12:31Z</time>
      </trkpt>
      <trkpt lat="42.92011" lon="0.19912">
        <ele>1689</ele>
        <time>2019-03-24T13:12:32Z</time>
      </trkpt>
      <trkpt lat="42.92011" lon="0.19907">
        <ele>1688</ele>
        <time>2019-03-24T13:12:33Z</time>
      </trkpt>
      <trkpt lat="42.92009" lon="0.19898">
        <ele>1688</ele>
        <time>2019-03-24T13:12:34Z</time>
      </trkpt>
      <trkpt lat="42.92006" lon="0.19874">
        <ele>1687</ele>
        <time>2019-03-24T13:12:37Z</time>
      </trkpt>
      <trkpt lat="42.92006" lon="0.19869">
        <ele>1687</ele>
        <time>2019-03-24T13:12:38Z</time>
      </trkpt>
      <trkpt lat="42.92004" lon="0.19863">
        <ele>1686</ele>
        <time>2019-03-24T13:12:39Z</time>
      </trkpt>
      <trkpt lat="42.92002" lon="0.19858">
        <ele>1685</ele>
        <time>2019-03-24T13:12:40Z</time>
      </trkpt>
      <trkpt lat="42.92" lon="0.19848">
        <ele>1684</ele>
        <time>2019-03-24T13:12:41Z</time>
      </trkpt>
      <trkpt lat="42.91999" lon="0.19837">
        <ele>1683</ele>
        <time>2019-03-24T13:12:42Z</time>
      </trkpt>
      <trkpt lat="42.91995" lon="0.19814">
        <ele>1680</ele>
        <time>2019-03-24T13:12:47Z</time>
      </trkpt>
      <trkpt lat="42.91994" lon="0.19803">
        <ele>1679</ele>
        <time>2019-03-24T13:12:50Z</time>
      </trkpt>
      <trkpt lat="42.91991" lon="0.19796">
        <ele>1678</ele>
        <time>2019-03-24T13:12:51Z</time>
      </trkpt>
      <trkpt lat="42.91976" lon="0.19793">
        <ele>1678</ele>
        <time>2019-03-24T13:13:01Z</time>
      </trkpt>
      <trkpt lat="42.91961" lon="0.19792">
        <ele>1678</ele>
        <time>2019-03-24T13:13:28Z</time>
      </trkpt>
      <trkpt lat="42.91958" lon="0.19791">
        <ele>1678</ele>
        <time>2019-03-24T13:13:37Z</time>
      </trkpt>
      <trkpt lat="42.91957" lon="0.19787">
        <ele>1678</ele>
        <time>2019-03-24T13:13:40Z</time>
      </trkpt>
      <trkpt lat="42.91957" lon="0.19782">
        <ele>1677</ele>
        <time>2019-03-24T13:13:43Z</time>
      </trkpt>
      <trkpt lat="42.91956" lon="0.19758">
        <ele>1674</ele>
        <time>2019-03-24T13:13:51Z</time>
      </trkpt>
      <trkpt lat="42.91952" lon="0.19738">
        <ele>1672</ele>
        <time>2019-03-24T13:13:56Z</time>
      </trkpt>
      <trkpt lat="42.91941" lon="0.19706">
        <ele>1669</ele>
        <time>2019-03-24T13:14:05Z</time>
      </trkpt>
      <trkpt lat="42.91931" lon="0.19687">
        <ele>1667</ele>
        <time>2019-03-24T13:14:11Z</time>
      </trkpt>
      <trkpt lat="42.91927" lon="0.19681">
        <ele>1666</ele>
        <time>2019-03-24T13:14:13Z</time>
      </trkpt>
      <trkpt lat="42.91925" lon="0.19663">
        <ele>1663</ele>
        <time>2019-03-24T13:14:18Z</time>
      </trkpt>
      <trkpt lat="42.91921" lon="0.19638">
        <ele>1661</ele>
        <time>2019-03-24T13:14:25Z</time>
      </trkpt>
      <trkpt lat="42.91919" lon="0.19635">
        <ele>1661</ele>
        <time>2019-03-24T13:14:26Z</time>
      </trkpt>
      <trkpt lat="42.91913" lon="0.19609">
        <ele>1657</ele>
        <time>2019-03-24T13:14:34Z</time>
      </trkpt>
      <trkpt lat="42.91911" lon="0.19576">
        <ele>1655</ele>
        <time>2019-03-24T13:14:43Z</time>
      </trkpt>
      <trkpt lat="42.91909" lon="0.19561">
        <ele>1653</ele>
        <time>2019-03-24T13:14:46Z</time>
      </trkpt>
      <trkpt lat="42.91911" lon="0.19523">
        <ele>1651</ele>
        <time>2019-03-24T13:14:55Z</time>
      </trkpt>
      <trkpt lat="42.91912" lon="0.19502">
        <ele>1649</ele>
        <time>2019-03-24T13:15:00Z</time>
      </trkpt>
      <trkpt lat="42.9191" lon="0.19473">
        <ele>1646</ele>
        <time>2019-03-24T13:15:10Z</time>
      </trkpt>
      <trkpt lat="42.91905" lon="0.19471">
        <ele>1646</ele>
        <time>2019-03-24T13:15:29Z</time>
      </trkpt>
      <trkpt lat="42.91902" lon="0.19472">
        <ele>1646</ele>
        <time>2019-03-24T13:15:48Z</time>
      </trkpt>
      <trkpt lat="42.91897" lon="0.19461">
        <ele>1646</ele>
        <time>2019-03-24T13:16:18Z</time>
      </trkpt>
      <trkpt lat="42.91898" lon="0.1946">
        <ele>1646</ele>
        <time>2019-03-24T13:16:21Z</time>
      </trkpt>
      <trkpt lat="42.919" lon="0.19458">
        <ele>1646</ele>
        <time>2019-03-24T13:16:35Z</time>
      </trkpt>
      <trkpt lat="42.91901" lon="0.19458">
        <ele>1646</ele>
        <time>2019-03-24T13:16:36Z</time>
      </trkpt>
      <trkpt lat="42.91903" lon="0.19443">
        <ele>1643</ele>
        <time>2019-03-24T13:16:42Z</time>
      </trkpt>
      <trkpt lat="42.91903" lon="0.1944">
        <ele>1643</ele>
        <time>2019-03-24T13:16:43Z</time>
      </trkpt>
      <trkpt lat="42.91909" lon="0.19422">
        <ele>1639</ele>
        <time>2019-03-24T13:16:47Z</time>
      </trkpt>
      <trkpt lat="42.91914" lon="0.19409">
        <ele>1636</ele>
        <time>2019-03-24T13:16:50Z</time>
      </trkpt>
      <trkpt lat="42.91917" lon="0.19402">
        <ele>1634</ele>
        <time>2019-03-24T13:16:52Z</time>
      </trkpt>
      <trkpt lat="42.91929" lon="0.19399">
        <ele>1630</ele>
        <time>2019-03-24T13:16:55Z</time>
      </trkpt>
      <trkpt lat="42.91934" lon="0.19399">
        <ele>1625</ele>
        <time>2019-03-24T13:16:56Z</time>
      </trkpt>
      <trkpt lat="42.91938" lon="0.19398">
        <ele>1623</ele>
        <time>2019-03-24T13:16:57Z</time>
      </trkpt>
      <trkpt lat="42.91946" lon="0.19402">
        <ele>1620</ele>
        <time>2019-03-24T13:16:59Z</time>
      </trkpt>
      <trkpt lat="42.91956" lon="0.194">
        <ele>1616</ele>
        <time>2019-03-24T13:17:01Z</time>
      </trkpt>
      <trkpt lat="42.91962" lon="0.19396">
        <ele>1613</ele>
        <time>2019-03-24T13:17:02Z</time>
      </trkpt>
      <trkpt lat="42.91968" lon="0.19394">
        <ele>1610</ele>
        <time>2019-03-24T13:17:03Z</time>
      </trkpt>
      <trkpt lat="42.91985" lon="0.19389">
        <ele>1602</ele>
        <time>2019-03-24T13:17:06Z</time>
      </trkpt>
      <trkpt lat="42.91987" lon="0.19385">
        <ele>1598</ele>
        <time>2019-03-24T13:17:07Z</time>
      </trkpt>
      <trkpt lat="42.91989" lon="0.19382">
        <ele>1598</ele>
        <time>2019-03-24T13:17:08Z</time>
      </trkpt>
      <trkpt lat="42.91986" lon="0.19373">
        <ele>1597</ele>
        <time>2019-03-24T13:17:16Z</time>
      </trkpt>
      <trkpt lat="42.91983" lon="0.19374">
        <ele>1597</ele>
        <time>2019-03-24T13:17:39Z</time>
      </trkpt>
      <trkpt lat="42.91987" lon="0.19371">
        <ele>1597</ele>
        <time>2019-03-24T13:17:58Z</time>
      </trkpt>
      <trkpt lat="42.91985" lon="0.19372">
        <ele>1597</ele>
        <time>2019-03-24T13:18:04Z</time>
      </trkpt>
      <trkpt lat="42.91985" lon="0.19363">
        <ele>1597</ele>
        <time>2019-03-24T13:18:08Z</time>
      </trkpt>
      <trkpt lat="42.91989" lon="0.19353">
        <ele>1595</ele>
        <time>2019-03-24T13:18:10Z</time>
      </trkpt>
      <trkpt lat="42.91995" lon="0.19343">
        <ele>1594</ele>
        <time>2019-03-24T13:18:12Z</time>
      </trkpt>
      <trkpt lat="42.91998" lon="0.19328">
        <ele>1592</ele>
        <time>2019-03-24T13:18:16Z</time>
      </trkpt>
      <trkpt lat="42.91999" lon="0.19325">
        <ele>1592</ele>
        <time>2019-03-24T13:18:17Z</time>
      </trkpt>
      <trkpt lat="42.92004" lon="0.19324">
        <ele>1589</ele>
        <time>2019-03-24T13:18:19Z</time>
      </trkpt>
      <trkpt lat="42.92007" lon="0.19322">
        <ele>1587</ele>
        <time>2019-03-24T13:18:21Z</time>
      </trkpt>
      <trkpt lat="42.92008" lon="0.19301">
        <ele>1586</ele>
        <time>2019-03-24T13:18:32Z</time>
      </trkpt>
      <trkpt lat="42.92002" lon="0.1929">
        <ele>1587</ele>
        <time>2019-03-24T13:18:45Z</time>
      </trkpt>
      <trkpt lat="42.91994" lon="0.19285">
        <ele>1587</ele>
        <time>2019-03-24T13:18:59Z</time>
      </trkpt>
      <trkpt lat="42.9199" lon="0.19284">
        <ele>1587</ele>
        <time>2019-03-24T13:19:13Z</time>
      </trkpt>
      <trkpt lat="42.91986" lon="0.19283">
        <ele>1587</ele>
        <time>2019-03-24T13:19:27Z</time>
      </trkpt>
      <trkpt lat="42.91979" lon="0.19279">
        <ele>1587</ele>
        <time>2019-03-24T13:19:46Z</time>
      </trkpt>
      <trkpt lat="42.91975" lon="0.1928">
        <ele>1587</ele>
        <time>2019-03-24T13:20:04Z</time>
      </trkpt>
      <trkpt lat="42.91972" lon="0.1928">
        <ele>1588</ele>
        <time>2019-03-24T13:20:21Z</time>
      </trkpt>
      <trkpt lat="42.91969" lon="0.19282">
        <ele>1588</ele>
        <time>2019-03-24T13:20:43Z</time>
      </trkpt>
      <trkpt lat="42.91969" lon="0.19274">
        <ele>1588</ele>
        <time>2019-03-24T13:20:46Z</time>
      </trkpt>
      <trkpt lat="42.91968" lon="0.19271">
        <ele>1588</ele>
        <time>2019-03-24T13:20:48Z</time>
      </trkpt>
      <trkpt lat="42.91963" lon="0.19247">
        <ele>1589</ele>
        <time>2019-03-24T13:21:02Z</time>
      </trkpt>
      <trkpt lat="42.91963" lon="0.19246">
        <ele>1589</ele>
        <time>2019-03-24T13:21:03Z</time>
      </trkpt>
      <trkpt lat="42.91964" lon="0.19229">
        <ele>1591</ele>
        <time>2019-03-24T13:21:17Z</time>
      </trkpt>
      <trkpt lat="42.91964" lon="0.19219">
        <ele>1592</ele>
        <time>2019-03-24T13:21:26Z</time>
      </trkpt>
      <trkpt lat="42.91961" lon="0.19205">
        <ele>1593</ele>
        <time>2019-03-24T13:21:35Z</time>
      </trkpt>
      <trkpt lat="42.91957" lon="0.19191">
        <ele>1594</ele>
        <time>2019-03-24T13:21:43Z</time>
      </trkpt>
      <trkpt lat="42.91954" lon="0.19177">
        <ele>1595</ele>
        <time>2019-03-24T13:21:53Z</time>
      </trkpt>
      <trkpt lat="42.91949" lon="0.19159">
        <ele>1596</ele>
        <time>2019-03-24T13:22:06Z</time>
      </trkpt>
      <trkpt lat="42.91945" lon="0.19143">
        <ele>1598</ele>
        <time>2019-03-24T13:22:20Z</time>
      </trkpt>
      <trkpt lat="42.9194" lon="0.19126">
        <ele>1600</ele>
        <time>2019-03-24T13:22:33Z</time>
      </trkpt>
      <trkpt lat="42.9193" lon="0.19113">
        <ele>1601</ele>
        <time>2019-03-24T13:22:45Z</time>
      </trkpt>
      <trkpt lat="42.91927" lon="0.19109">
        <ele>1602</ele>
        <time>2019-03-24T13:22:55Z</time>
      </trkpt>
      <trkpt lat="42.91919" lon="0.19103">
        <ele>1603</ele>
        <time>2019-03-24T13:23:04Z</time>
      </trkpt>
      <trkpt lat="42.91904" lon="0.19093">
        <ele>1605</ele>
        <time>2019-03-24T13:23:19Z</time>
      </trkpt>
      <trkpt lat="42.91893" lon="0.19085">
        <ele>1607</ele>
        <time>2019-03-24T13:23:33Z</time>
      </trkpt>
      <trkpt lat="42.91886" lon="0.19075">
        <ele>1608</ele>
        <time>2019-03-24T13:23:43Z</time>
      </trkpt>
      <trkpt lat="42.91883" lon="0.19068">
        <ele>1608</ele>
        <time>2019-03-24T13:23:52Z</time>
      </trkpt>
      <trkpt lat="42.91881" lon="0.19065">
        <ele>1609</ele>
        <time>2019-03-24T13:24:03Z</time>
      </trkpt>
      <trkpt lat="42.91877" lon="0.1906">
        <ele>1607</ele>
        <time>2019-03-24T13:24:17Z</time>
      </trkpt>
      <trkpt lat="42.91876" lon="0.19064">
        <ele>1607</ele>
        <time>2019-03-24T13:24:33Z</time>
      </trkpt>
      <trkpt lat="42.91877" lon="0.19062">
        <ele>1607</ele>
        <time>2019-03-24T13:25:02Z</time>
      </trkpt>
      <trkpt lat="42.91881" lon="0.19065">
        <ele>1606</ele>
        <time>2019-03-24T13:25:27Z</time>
      </trkpt>
      <trkpt lat="42.91889" lon="0.19065">
        <ele>1606</ele>
        <time>2019-03-24T13:26:06Z</time>
      </trkpt>
      <trkpt lat="42.91886" lon="0.1907">
        <ele>1607</ele>
        <time>2019-03-24T13:26:36Z</time>
      </trkpt>
      <trkpt lat="42.91893" lon="0.19074">
        <ele>1607</ele>
        <time>2019-03-24T13:27:07Z</time>
      </trkpt>
      <trkpt lat="42.91888" lon="0.19076">
        <ele>1606</ele>
        <time>2019-03-24T13:27:30Z</time>
      </trkpt>
      <trkpt lat="42.91884" lon="0.19079">
        <ele>1606</ele>
        <time>2019-03-24T13:27:57Z</time>
      </trkpt>
      <trkpt lat="42.91881" lon="0.19068">
        <ele>1606</ele>
        <time>2019-03-24T13:28:31Z</time>
      </trkpt>
      <trkpt lat="42.91879" lon="0.19067">
        <ele>1606</ele>
        <time>2019-03-24T13:28:59Z</time>
      </trkpt>
      <trkpt lat="42.91877" lon="0.19063">
        <ele>1606</ele>
        <time>2019-03-24T13:29:26Z</time>
      </trkpt>
      <trkpt lat="42.91873" lon="0.1907">
        <ele>1606</ele>
        <time>2019-03-24T13:30:02Z</time>
      </trkpt>
      <trkpt lat="42.91874" lon="0.19068">
        <ele>1607</ele>
        <time>2019-03-24T13:30:32Z</time>
      </trkpt>
      <trkpt lat="42.91876" lon="0.1907">
        <ele>1607</ele>
        <time>2019-03-24T13:31:03Z</time>
      </trkpt>
      <trkpt lat="42.91876" lon="0.19062">
        <ele>1607</ele>
        <time>2019-03-24T13:31:33Z</time>
      </trkpt>
      <trkpt lat="42.91874" lon="0.1906">
        <ele>1607</ele>
        <time>2019-03-24T13:31:59Z</time>
      </trkpt>
      <trkpt lat="42.91875" lon="0.19058">
        <ele>1607</ele>
        <time>2019-03-24T13:32:26Z</time>
      </trkpt>
      <trkpt lat="42.91876" lon="0.1906">
        <ele>1608</ele>
        <time>2019-03-24T13:32:50Z</time>
      </trkpt>
      <trkpt lat="42.91877" lon="0.19065">
        <ele>1608</ele>
        <time>2019-03-24T13:33:14Z</time>
      </trkpt>
      <trkpt lat="42.91878" lon="0.19062">
        <ele>1607</ele>
        <time>2019-03-24T13:33:39Z</time>
      </trkpt>
      <trkpt lat="42.91876" lon="0.1906">
        <ele>1608</ele>
        <time>2019-03-24T13:34:03Z</time>
      </trkpt>
      <trkpt lat="42.91874" lon="0.19057">
        <ele>1608</ele>
        <time>2019-03-24T13:34:28Z</time>
      </trkpt>
      <trkpt lat="42.91877" lon="0.19057">
        <ele>1608</ele>
        <time>2019-03-24T13:34:57Z</time>
      </trkpt>
      <trkpt lat="42.91877" lon="0.19057">
        <ele>1608</ele>
        <time>2019-03-24T13:35:20Z</time>
      </trkpt>
      <trkpt lat="42.91885" lon="0.19062">
        <ele>1608</ele>
        <time>2019-03-24T13:35:40Z</time>
      </trkpt>
    </trkseg>
  </trk>
</gpx>